[[{"header":{"parameterUnit":"m.s-1","parameterCategory":1,"la1":31.0,"la2":29.5877,"lo1":-88.7671,"lo2":-86.6584,"dy":0.0162,"dx":0.0185,"nx":115,"ny":88,"refTime":"2024-05-22T00:00:00:Z","depth":0,"parameterNumber":2,"parameterNumberName":"U-component_of_WINDS"},"data":[0.0,0.0,0.0,0.0,0.0,0.0,0.0,0.0,0.0,0.0,0.0,0.0,0.0,0.0,0.0,0.0,0.0,0.0,0.0,0.0,0.0,0.0,0.0,0.0,0.0,0.0,0.0,0.0,0.0,0.0,0.0,0.0,0.0,0.0,0.0,0.0,0.0,0.0,0.0,0.0,0.0,0.0,0.0,0.0,0.0,0.0,0.0,0.0,0.0,0.0,0.0,0.0,0.0,0.0,0.0,0.0,0.0,0.0,0.0,0.0,0.0,0.0,0.0,0.0,0.0,0.0,0.0,0.0,0.0,0.0,0.0,0.0,0.0,0.0,0.0,0.0,0.0,0.0,0.0,0.0,0.0,0.0,0.0,0.0,0.0,0.0,0.0,0.0,0.0,0.0,0.0,0.0,0.0,0.0,0.0,0.0,0.0,0.0,0.0,0.0,0.0,0.0,0.0,0.0,0.0,0.0,0.0,0.0,0.0,0.0,0.0,0.0,0.0,0.0,0.0,0.0,0.0,0.0,0.0,0.0,0.0,0.0,0.0,0.0,0.0,0.0,0.0,0.0,0.0,0.0,0.0,0.0,0.0,0.0,0.0,0.0,0.0,0.0,0.0,0.0,0.0,0.0,0.0,0.0,0.0,0.0,0.0,0.0,0.0,0.0,0.0,0.0,0.0,0.0,0.0,0.0,0.0,0.0,0.0,0.0,0.0,0.0,0.0,0.0,0.0,0.0,0.0,0.0,0.0,0.0,0.0,0.0,0.0,0.0,0.0,0.0,0.0,0.0,0.0,0.0,0.0,0.0,0.0,0.0,0.0,0.0,0.0,0.0,0.0,0.0,0.0,0.0,0.0,0.0,0.0,0.0,0.0,0.0,0.0,0.0,0.0,0.0,0.0,0.0,0.0,0.0,0.0,0.0,0.0,0.0,0.0,0.0,0.0,0.0,0.0,0.0,0.0,0.0,0.0,0.0,0.0,0.0,0.0,0.0,0.0,0.0,0.0,0.0,0.0,0.0,0.0,0.0,0.0,0.0,0.0,0.0,0.0,0.0,0.0,0.0,0.0,0.0,0.0,0.0,0.0,0.0,0.0,0.0,0.0,0.0,0.0,0.0,0.0,0.0,0.0,0.0,0.0,0.0,0.0,0.0,0.0,0.0,0.0,0.0,0.0,0.0,0.0,0.0,0.0,0.0,0.0,0.0,0.0,0.0,0.0,0.0,0.0,0.0,0.0,0.0,0.0,0.0,0.0,0.0,0.0,0.0,0.0,0.0,0.0,0.0,0.0,0.0,0.0,0.0,0.0,0.0,0.0,0.0,0.0,0.0,0.0,0.0,0.0,0.0,0.0,0.0,0.0,0.0,0.0,0.0,0.0,0.0,0.0,0.0,0.0,0.0,0.0,0.0,0.0,0.0,0.0,0.0,0.0,0.0,0.0,0.0,0.0,0.0,0.0,0.0,0.0,0.0,0.0,0.0,0.0,0.0,0.0,0.0,0.0,0.0,0.0,0.0,0.0,0.0,0.0,0.0,0.0,0.0,0.0,0.0,0.0,0.0,0.0,0.0,0.0,0.0,0.0,0.0,0.0,0.0,0.0,0.0,0.0,0.0,0.0,0.0,0.0,0.0,0.0,0.0,0.0,0.0,0.0,0.0,0.0,0.0,0.0,0.0,0.0,0.0,0.0,0.0,0.0,0.0,0.0,0.0,0.0,0.0,0.0,0.0,0.0,0.0,0.0,0.0,0.0,0.0,0.0,0.0,0.0,0.0,0.0,0.0,0.0,0.0,0.0,0.0,0.0,0.0,0.0,0.0,0.0,0.0,0.0,0.0,0.0,0.0,0.0,0.0,0.0,0.0,0.0,0.0,0.0,0.0,0.0,0.0,0.0,0.0,0.0,0.0,0.0,0.0,0.0,0.0,0.0,0.0,0.0,0.0,0.0,0.0,0.0,0.0,0.0,0.0,0.0,0.0,0.0,0.0,0.0,0.0,0.0,0.0,0.0,0.0,0.0,0.0,0.0,0.0,0.0,0.0,0.0,0.0,0.0,0.0,0.0,0.0,0.0,0.0,0.0,0.0,0.0,0.0,0.0,0.0,0.0,0.0,0.0,0.0,0.0,0.0,0.0,0.0,0.0,0.0,0.0,0.0,0.0,0.0,0.0,0.0,0.0,0.0,0.0,0.0,0.0,0.0,0.0,0.0,0.0,0.0,0.0,0.0,0.0,0.0,0.0,0.0,0.0,0.0,0.0,0.0,0.0,0.0,0.0,0.0,0.0,0.0,0.0,0.0,0.0,0.0,0.0,0.0,0.0,0.0,0.0,0.0,0.0,0.0,0.0,0.0,0.0,0.0,0.0,0.0,0.0,0.0,0.0,0.0,0.0,0.0,0.0,0.0,0.0,0.0,0.0,0.0,0.0,0.0,0.0,0.0,0.0,0.0,0.0,0.0,0.0,0.0,0.0,0.0,0.0,0.0,0.0,0.0,0.0,0.0,0.0,0.0,0.0,0.0,0.0,0.0,0.0,0.0,0.0,0.0,0.0,0.0,0.0,0.0,0.0,0.0,0.0,0.0,0.0,0.0,0.0,0.0,0.0,0.0,0.0,0.0,0.0,0.0,0.0,0.0,0.0,0.0,0.0,0.0,0.0,0.0,0.0,0.0,0.0,0.0,0.0,0.0,0.0,0.0,0.0,0.0,0.0,0.0,0.0,0.0,0.0,0.0,0.0,0.0,0.0,0.0,0.0,0.0,0.0,0.0,0.0,0.0,0.0,0.0,0.0,0.0,0.0,0.0,0.0,0.0,0.0,0.0,0.0,0.0,0.0,0.0,0.0,0.0,0.0,0.0,0.0,0.0,0.0,0.0,0.0,0.0,0.0,0.0,0.0,0.0,0.0,0.0,0.0,0.0,0.0,0.0,0.0,0.0,0.0,0.0,0.0,0.0,0.0,0.0,0.0,0.0,0.0,0.0,0.0,0.0,0.0,0.0,0.0,0.0,0.0,0.0,0.0,0.0,0.0,0.0,0.0,0.0,0.0,0.0,0.0,0.0,0.0,0.0,0.0,0.0,0.0,0.0,0.0,0.0,0.0,0.0,0.0,0.0,0.0,0.0,0.0,0.0,0.0,0.0,0.0,0.0,0.0,0.0,0.0,0.0,0.0,0.0,0.0,0.0,0.0,0.0,0.0,0.0,0.0,0.0,0.0,0.0,0.0,0.0,0.0,0.0,0.0,0.0,0.0,0.0,0.0,0.0,0.0,0.0,0.0,0.0,0.0,0.0,0.0,0.0,0.0,0.0,0.0,0.0,0.0,0.0,0.0,0.0,0.0,0.0,0.0,0.0,0.0,0.0,0.0,0.0,0.0,0.0,0.0,0.0,0.0,0.0,0.0,0.0,0.0,0.0,0.0,0.0,0.0,0.0,0.0,0.0,0.0,0.0,0.0,0.0,0.0,0.0,0.0,0.0,0.0,0.0,0.0,0.0,0.0,0.0,0.0,0.0,0.0,0.0,0.0,0.0,0.0,0.0,0.0,0.0,0.0,0.0,0.0,0.0,0.0,0.0,0.0,0.0,0.0,0.0,0.0,0.0,0.0,0.0,0.0,0.0,0.0,0.0,0.0,0.0,0.0,0.0,0.0,0.0,0.0,0.0,0.0,0.0,0.0,0.0,0.0,0.0,0.0,0.0,0.0,0.0,0.0,0.0,0.0,0.0,0.0,0.0,0.0,0.0,0.0,0.0,0.0,0.0,0.0,0.0,0.0,0.0,0.0,0.0,0.0,0.0,0.0,0.0,0.0,0.0,0.0,0.0,0.0,0.0,0.0,0.0,0.0,0.0,0.0,0.0,0.0,0.0,0.0,0.0,0.0,0.0,0.0,0.0,0.0,0.0,0.0,0.0,0.0,0.0,0.0,0.0,0.0,0.0,0.0,0.0,0.0,0.0,0.0,0.0,0.0,0.0,0.0,0.0,0.0,0.0,0.0,0.0,0.0,0.0,0.0,0.0,0.0,0.0,0.0,0.0,0.0,0.0,0.0,0.0,0.0,0.0,0.0,0.0,0.0,0.0,0.0,0.0,0.0,0.0,0.0,0.0,0.0,0.0,0.0,0.0,0.0,0.0,0.0,0.0,0.0,0.0,0.0,0.0,0.0,0.0,0.0,0.0,0.0,0.0,0.0,0.0,0.0,0.0,0.0,0.0,0.0,0.0,0.0,0.0,0.0,0.0,0.0,0.0,0.0,0.0,0.0,0.0,0.0,0.0,0.0,0.0,-0.6685,0.0,0.0,0.0,0.0,0.0,0.0,0.0,0.0,0.0,0.0,0.0,0.0,0.0,0.0,0.0,0.0,0.0,0.0,0.0,0.0,0.0,0.0,0.0,0.0,0.0,0.0,0.0,0.0,0.0,0.0,0.0,0.0,0.0,0.0,0.0,0.0,0.0,0.0,0.0,0.0,0.0,0.0,0.0,0.0,0.0,0.0,0.0,0.0,0.0,0.0,0.0,0.0,0.0,0.0,0.0,0.0,0.0,0.0,0.0,0.0,0.0,0.0,0.0,0.0,0.0,0.0,0.0,0.0,0.0,0.0,0.0,0.0,0.0,0.0,0.0,0.0,0.0,0.0,0.0,0.0,0.0,0.0,0.0,0.0,0.0,0.0,0.0,0.0,0.0,0.0,0.0,0.0,0.0,0.0,0.0,0.0,0.0,0.0,0.0,0.0,0.0,0.0,0.0,0.0,0.0,0.0,0.0,0.0,0.0,0.0,-0.6748,-0.6735,-0.6647,-0.6527,-0.6394,0.0,0.0,0.0,0.0,0.0,0.0,0.0,0.0,0.0,0.0,0.0,0.0,0.0,0.0,0.0,0.0,0.0,0.0,0.0,0.0,0.0,0.0,0.0,0.0,0.0,0.0,0.0,0.0,0.0,0.0,0.0,0.0,0.0,0.0,0.0,0.0,0.0,0.0,0.0,0.0,0.0,0.0,0.0,0.0,0.0,0.0,0.0,0.0,0.0,0.0,0.0,0.0,0.0,0.0,0.0,0.0,0.0,0.0,0.0,0.0,0.0,0.0,0.0,0.0,0.0,0.0,0.0,0.0,0.0,0.0,0.0,0.0,0.0,0.0,0.0,0.0,0.0,0.0,0.0,0.0,0.0,0.0,0.0,0.0,0.0,0.0,0.0,0.0,0.0,0.0,0.0,0.0,0.0,0.0,0.0,0.0,0.0,0.0,0.0,0.0,0.0,0.0,0.0,0.0,0.0,0.0,0.0,0.0,0.0,0.0,0.0,0.0,-0.6895,-0.6766,-0.6519,0.0,0.0,0.0,0.0,0.0,0.0,0.0,0.0,0.0,0.0,0.0,0.0,0.0,0.0,0.0,0.0,0.0,0.0,0.0,0.0,0.0,0.0,0.0,0.0,0.0,0.0,0.0,0.0,0.0,0.0,0.0,0.0,0.0,0.0,0.0,0.0,0.0,0.0,0.0,0.0,0.0,0.0,0.0,0.0,0.0,0.0,0.0,0.0,0.0,0.0,0.0,0.0,0.0,0.0,0.0,0.0,0.0,0.0,0.0,0.0,0.0,0.0,0.0,0.0,0.0,0.0,0.0,0.0,0.0,0.0,0.0,0.0,0.0,0.0,0.0,0.0,0.0,0.0,0.0,0.0,0.0,0.0,0.0,0.0,0.0,0.0,0.0,0.0,0.0,0.0,0.0,0.0,0.0,0.0,0.0,0.0,0.0,0.0,0.0,0.0,0.0,0.0,0.0,0.0,0.0,0.0,0.0,0.0,0.0,0.0,-0.6758,-0.7729,-0.7765,0.0,-0.7348,0.0,0.0,0.0,0.0,0.0,0.0,0.0,0.0,0.0,0.0,0.0,0.0,0.0,0.0,0.0,0.0,0.0,0.0,0.0,0.0,0.0,0.0,0.0,0.0,0.0,0.0,0.0,0.0,0.0,0.0,0.0,0.0,0.0,0.0,0.0,0.0,0.0,0.0,0.0,0.0,0.0,0.0,0.0,0.0,0.0,0.0,0.0,0.0,0.0,0.0,0.0,0.0,0.0,0.0,0.0,0.0,0.0,0.0,0.0,0.0,0.0,0.0,0.0,0.0,0.0,0.0,0.0,0.0,0.0,0.0,0.0,0.0,0.0,0.0,0.0,0.0,0.0,0.0,0.0,0.0,0.0,0.0,0.0,0.0,0.0,0.0,0.0,0.0,0.0,0.0,0.0,0.0,0.0,0.0,0.0,0.0,0.0,0.0,0.0,0.0,0.0,0.0,0.0,0.0,0.0,0.0,0.0,0.0,0.0,0.0,0.0,-0.7474,-0.7326,-0.7257,0.0,0.0,0.0,0.0,0.0,0.0,0.0,0.0,0.0,0.0,0.0,0.0,0.0,0.0,0.0,0.0,0.0,0.0,0.0,0.0,0.0,0.0,0.0,0.0,0.0,0.0,0.0,0.0,0.0,0.0,0.0,0.0,0.0,0.0,0.0,0.0,0.0,0.0,0.0,0.0,0.0,0.0,0.0,0.0,0.0,0.0,0.0,0.0,0.0,0.0,0.0,0.0,0.0,0.0,0.0,0.0,0.0,0.0,0.0,0.0,0.0,0.0,0.0,0.0,0.0,0.0,0.0,0.0,0.0,0.0,0.0,0.0,0.0,0.0,0.0,0.0,0.0,0.0,0.0,0.0,0.0,0.0,0.0,0.0,0.0,0.0,0.0,0.0,0.0,0.0,0.0,0.0,0.0,0.0,0.0,0.0,0.0,0.0,0.0,0.0,0.0,0.0,0.0,0.0,0.0,0.0,0.0,0.0,0.0,0.0,-0.7136,0.0,-0.7609,-0.7103,-0.6908,-0.7109,0.0,0.0,0.0,0.0,0.0,0.0,0.0,0.0,0.0,0.0,0.0,0.0,0.0,0.0,0.0,0.0,0.0,0.0,0.0,0.0,0.0,0.0,0.0,0.0,0.0,0.0,0.0,0.0,0.0,0.0,0.0,0.0,0.0,0.0,0.0,0.0,0.0,0.0,0.0,0.0,0.0,0.0,0.0,0.0,0.0,0.0,0.0,0.0,0.0,0.0,0.0,0.0,0.0,0.0,0.0,0.0,0.0,0.0,0.0,0.0,0.0,0.0,0.0,0.0,0.0,0.0,0.0,0.0,0.0,0.0,0.0,0.0,0.0,0.0,0.0,0.0,0.0,0.0,0.0,0.0,0.0,0.0,0.0,0.0,0.0,0.0,0.0,0.0,0.0,0.0,0.0,0.0,0.0,0.0,0.0,0.0,0.0,0.0,0.0,0.0,0.0,0.0,0.0,0.0,0.0,0.0,0.0,0.0,0.0,-0.7894,-0.7905,-0.8639,-0.7482,-0.6918,0.0,0.0,0.0,0.0,0.0,0.0,0.0,0.0,0.0,0.0,0.0,0.0,0.0,0.0,0.0,0.0,0.0,0.0,0.0,0.0,0.0,0.0,0.0,0.0,0.0,0.0,0.0,0.0,0.0,0.0,0.0,0.0,0.0,0.0,0.0,0.0,0.0,0.0,0.0,0.0,0.0,0.0,0.0,0.0,0.0,0.0,0.0,0.0,0.0,0.0,0.0,0.0,0.0,0.0,0.0,0.0,0.0,0.0,0.0,0.0,0.0,0.0,0.0,0.0,0.0,0.0,0.0,0.0,0.0,0.0,0.0,0.0,0.0,0.0,0.0,0.0,0.0,0.0,0.0,0.0,0.0,0.0,0.0,0.0,0.0,0.0,0.0,0.0,0.0,0.0,0.0,0.0,0.0,0.0,0.0,0.0,0.0,0.0,0.0,0.0,0.0,0.0,0.0,0.0,0.0,0.0,0.0,0.0,0.0,-0.6955,-0.7023,-0.78,-0.9229,-0.7533,-0.691,0.0,0.0,0.0,0.0,0.0,0.0,0.0,0.0,0.0,0.0,0.0,0.0,0.0,0.0,0.0,0.0,0.0,0.0,0.0,0.0,0.0,0.0,0.0,0.0,0.0,0.0,0.0,0.0,0.0,0.0,0.0,0.0,0.0,0.0,0.0,0.0,0.0,0.0,0.0,0.0,0.0,0.0,0.0,0.0,0.0,0.0,0.0,0.0,0.0,0.0,0.0,0.0,0.0,0.0,0.0,0.0,0.0,0.0,0.0,0.0,0.0,0.0,0.0,0.0,0.0,0.0,0.0,0.0,0.0,0.0,0.0,0.0,0.0,0.0,0.0,0.0,0.0,0.0,0.0,0.0,0.0,0.0,0.0,0.0,0.0,0.0,0.0,0.0,0.0,0.0,0.0,0.0,0.0,0.0,0.0,0.0,0.0,0.0,0.0,0.0,0.0,0.0,0.0,0.0,0.0,0.0,0.0,0.0,0.0,-0.6641,0.0,-0.8042,0.0,-0.748,-0.6765,0.0,0.0,0.0,0.0,0.0,0.0,0.0,0.0,0.0,0.0,0.0,0.0,0.0,0.0,0.0,0.0,0.0,0.0,0.0,0.0,0.0,0.0,0.0,0.0,0.0,0.0,0.0,0.0,0.0,0.0,0.0,0.0,0.0,0.0,0.0,0.0,0.0,0.0,0.0,0.0,0.0,0.0,0.0,0.0,0.0,0.0,0.0,0.0,0.0,0.0,0.0,0.0,0.0,0.0,0.0,0.0,0.0,0.0,0.0,0.0,0.0,0.0,0.0,0.0,0.0,0.0,0.0,0.0,0.0,0.0,0.0,0.0,0.0,0.0,0.0,0.0,0.0,0.0,0.0,0.0,0.0,0.0,0.0,0.0,0.0,0.0,0.0,0.0,0.0,0.0,0.0,0.0,0.0,0.0,0.0,0.0,0.0,0.0,0.0,0.0,0.0,0.0,0.0,0.0,0.0,0.0,0.0,0.0,-0.7299,-0.8032,-0.8648,-0.8558,-0.7793,-0.7324,-0.6494,0.0,0.0,0.0,0.0,0.0,0.0,0.0,0.0,0.0,0.0,0.0,0.0,0.0,0.0,0.0,0.0,0.0,0.0,0.0,0.0,0.0,0.0,0.0,0.0,0.0,0.0,0.0,0.0,0.0,0.0,0.0,0.0,0.0,0.0,0.0,0.0,0.0,0.0,0.0,0.0,0.0,0.0,0.0,0.0,0.0,0.0,0.0,0.0,0.0,0.0,0.0,0.0,0.0,0.0,0.0,0.0,0.0,0.0,0.0,0.0,0.0,0.0,0.0,0.0,0.0,0.0,0.0,0.0,0.0,0.0,0.0,0.0,0.0,0.0,0.0,0.0,0.0,0.0,0.0,0.0,0.0,0.0,0.0,0.0,0.0,0.0,0.0,0.0,0.0,0.0,0.0,0.0,0.0,0.0,0.0,0.0,0.0,0.0,0.0,0.0,0.0,0.0,0.0,0.0,0.0,0.0,0.0,0.0,0.0,-0.7978,-0.8396,-0.8953,-0.9458,-0.7629,-0.6865,0.0,0.0,0.0,0.0,0.0,0.0,0.0,0.0,0.0,0.0,0.0,0.0,0.0,0.0,0.0,0.0,0.0,0.0,0.0,0.0,0.0,0.0,0.0,0.0,0.0,0.0,0.0,0.0,0.0,0.0,0.0,0.0,0.0,0.0,0.0,0.0,0.0,0.0,0.0,0.0,0.0,0.0,0.0,0.0,0.0,0.0,0.0,0.0,0.0,0.0,0.0,0.0,0.0,0.0,0.0,0.0,0.0,0.0,0.0,0.0,0.0,0.0,0.0,0.0,0.0,0.0,0.0,0.0,0.0,0.0,0.0,0.0,0.0,0.0,0.0,0.0,0.0,0.0,0.0,0.0,0.0,0.0,0.0,0.0,0.0,0.0,0.0,0.0,0.0,0.0,0.0,0.0,0.0,0.0,0.0,0.0,0.0,0.0,0.0,0.0,0.0,0.0,0.0,0.0,0.0,0.0,0.0,0.0,0.0,-0.9295,-0.9539,-0.9745,-0.978,-0.8093,-0.7196,-0.7309,0.0,0.0,0.0,0.0,0.0,0.0,0.0,0.0,0.0,0.0,0.0,0.0,0.0,0.0,0.0,0.0,0.0,0.0,0.0,0.0,0.0,0.0,0.0,0.0,0.0,0.0,0.0,0.0,0.0,0.0,0.0,0.0,0.0,0.0,0.0,0.0,0.0,0.0,0.0,0.0,0.0,0.0,0.0,0.0,0.0,0.0,0.0,0.0,0.0,0.0,0.0,0.0,0.0,0.0,0.0,0.0,0.0,0.0,0.0,0.0,0.0,0.0,0.0,0.0,0.0,0.0,0.0,0.0,0.0,0.0,0.0,0.0,0.0,0.0,0.0,0.0,0.0,0.0,0.0,0.0,0.0,0.0,0.0,0.0,0.0,0.0,0.0,0.0,0.0,0.0,0.0,0.0,0.0,0.0,0.0,0.0,0.0,0.0,0.0,0.0,0.0,0.0,0.0,0.0,0.0,0.0,0.0,0.0,-1.1569,-1.1725,-1.0924,-0.9093,-0.8621,-0.7562,0.0,0.0,0.0,0.0,0.0,0.0,0.0,0.0,0.0,0.0,0.0,0.0,0.0,0.0,0.0,0.0,0.0,0.0,0.0,0.0,0.0,0.0,0.0,0.0,0.0,0.0,0.0,0.0,0.0,0.0,0.0,0.0,0.0,0.0,0.0,0.0,0.0,0.0,0.0,0.0,0.0,0.0,0.0,0.0,0.0,0.0,0.0,0.0,0.0,0.0,0.0,0.0,0.0,0.0,0.0,0.0,0.0,0.0,0.0,0.0,0.0,0.0,0.0,0.0,0.0,0.0,0.0,0.0,0.0,0.0,0.0,0.0,0.0,0.0,0.0,0.0,0.0,0.0,0.0,0.0,0.0,0.0,0.0,0.0,0.0,0.0,0.0,0.0,0.0,0.0,0.0,0.0,0.0,0.0,0.0,0.0,0.0,0.0,0.0,0.0,0.0,0.0,0.0,0.0,0.0,0.0,0.0,0.0,0.0,-1.2514,-1.3051,-1.2625,-1.1122,-0.9337,-0.8208,0.0,0.0,0.0,0.0,0.0,0.0,0.0,0.0,0.0,0.0,0.0,0.0,0.0,0.0,0.0,0.0,0.0,0.0,0.0,0.0,0.0,0.0,0.0,0.0,0.0,0.0,0.0,0.0,0.0,0.0,0.0,0.0,0.0,0.0,0.0,0.0,0.0,0.0,0.0,0.0,0.0,0.0,0.0,0.0,0.0,0.0,0.0,0.0,0.0,0.0,0.0,0.0,0.0,0.0,0.0,0.0,0.0,0.0,0.0,0.0,0.0,0.0,0.0,0.0,0.0,0.0,0.0,0.0,0.0,0.0,0.0,0.0,0.0,0.0,0.0,0.0,0.0,0.0,0.0,0.0,0.0,0.0,0.0,0.0,0.0,0.0,0.0,0.0,0.0,0.0,0.0,0.0,0.0,0.0,0.0,0.0,0.0,0.0,0.0,0.0,0.0,0.0,0.0,0.0,0.0,0.0,0.0,0.0,-1.2758,-1.3323,-1.3912,-1.3475,-1.1921,-1.034,-0.9158,0.0,0.0,0.0,0.0,0.0,0.0,0.0,0.0,0.0,0.0,0.0,0.0,0.0,0.0,0.0,0.0,0.0,0.0,0.0,0.0,0.0,0.0,0.0,0.0,0.0,0.0,0.0,0.0,0.0,0.0,0.0,0.0,0.0,0.0,0.0,0.0,0.0,0.0,0.0,0.0,0.0,0.0,0.0,0.0,0.0,0.0,0.0,0.0,0.0,0.0,0.0,0.0,0.0,0.0,0.0,0.0,0.0,0.0,0.0,0.0,0.0,0.0,0.0,0.0,0.0,0.0,0.0,0.0,0.0,0.0,0.0,0.0,0.0,0.0,0.0,0.0,0.0,0.0,0.0,0.0,0.0,0.0,0.0,0.0,0.0,0.0,0.0,0.0,0.0,0.0,0.0,0.0,0.0,0.0,0.0,0.0,0.0,0.0,0.0,0.0,0.0,0.0,0.0,0.0,0.0,0.0,0.0,0.0,-1.3914,-1.413,-1.4485,-1.3841,-1.2083,-1.1343,-1.0164,0.0,0.0,0.0,0.0,0.0,0.0,0.0,0.0,0.0,0.0,0.0,0.0,0.0,0.0,0.0,0.0,0.0,0.0,0.0,0.0,0.0,0.0,0.0,0.0,0.0,0.0,0.0,0.0,0.0,0.0,0.0,0.0,0.0,0.0,0.0,0.0,0.0,0.0,0.0,0.0,0.0,0.0,0.0,0.0,0.0,0.0,0.0,0.0,0.0,0.0,0.0,0.0,0.0,0.0,0.0,0.0,0.0,0.0,0.0,0.0,0.0,0.0,0.0,0.0,0.0,0.0,0.0,0.0,0.0,0.0,0.0,0.0,0.0,0.0,0.0,0.0,0.0,0.0,0.0,0.0,0.0,0.0,0.0,0.0,0.0,0.0,0.0,0.0,0.0,0.0,0.0,0.0,0.0,0.0,0.0,0.0,0.0,0.0,0.0,0.0,0.0,0.0,0.0,0.0,0.0,0.0,0.0,0.0,-1.4904,-1.5693,-1.506,-1.4283,-1.3369,-1.1846,-1.038,0.0,0.0,0.0,0.0,0.0,0.0,0.0,0.0,0.0,0.0,0.0,0.0,0.0,0.0,0.0,0.0,0.0,0.0,0.0,0.0,0.0,0.0,0.0,0.0,0.0,0.0,0.0,0.0,0.0,0.0,0.0,0.0,0.0,0.0,0.0,0.0,0.0,0.0,0.0,0.0,0.0,0.0,0.0,0.0,0.0,0.0,0.0,0.0,0.1714,0.0,0.0,0.0,0.0,0.0,0.0,0.0,0.0,0.0,0.0,0.0,0.0,0.0,0.0,0.0,0.0,0.0,0.0,0.0,0.0,0.0,0.0,0.0,0.0,0.0,0.0,0.0,0.0,0.0,0.0,0.0,0.0,0.0,0.0,0.0,0.0,0.0,0.0,0.0,0.0,0.0,0.0,0.0,0.0,0.0,0.0,0.0,0.0,0.0,0.0,0.0,0.0,0.0,0.0,0.0,0.0,0.0,0.0,0.0,-1.5895,-1.6276,-1.5745,-1.4949,-1.3841,-1.2827,-1.1499,0.0,0.0,0.0,0.0,0.0,0.0,0.0,0.0,0.0,0.0,0.0,0.0,0.0,0.0,0.0,0.0,0.0,0.0,0.0,0.0,0.0,0.0,0.0,0.0,0.0,0.0,0.0,0.0,0.0,0.0,0.0,0.0,0.0,0.0,0.0,0.0,0.0,0.0,0.0,0.0,0.0,0.0,0.0,0.0,0.0,0.0,0.0,0.0,0.0,0.0,0.0,0.0,0.0,0.0,0.0,0.0,0.0,0.0,0.0,0.0,0.0,0.0,0.0,0.0,0.0,0.0,0.0,0.0,0.0,0.0,0.0,0.0,0.0,0.0,0.0,0.0,0.0,0.0,0.0,0.0,0.0,0.0,0.0,0.0,0.0,0.0,0.0,0.0,0.0,0.0,0.0,0.0,0.0,0.0,0.0,0.0,0.0,0.0,0.0,0.0,0.0,0.0,0.0,0.0,0.0,0.0,0.0,-1.6053,-1.6752,-1.6667,-1.6464,-1.5596,-1.4003,-1.3862,-1.2686,-1.0391,0.0,0.0,0.0,0.0,0.0,0.0,0.0,0.0,0.0,0.0,0.0,0.0,0.0,0.0,0.0,0.0,0.0,0.0,0.0,0.0,0.0,0.0,0.0,0.0,0.0,0.0,0.0,0.0,0.0,0.0,0.0,0.0,0.0,0.0,0.0,0.0,0.0,0.0,-0.2403,-0.102,0.0,0.0,0.0,0.0,0.0,0.0,0.0,0.0,0.1407,0.0,0.0,0.0,0.0,0.0,0.0,0.0,0.0,0.0,0.0,0.0,0.0,0.0,0.0,0.0,0.0,0.0,0.0,0.0,0.0,0.0,0.0,0.0,0.0,0.0,0.0,0.0,0.0,0.0,0.0,0.0,0.0,0.0,0.0,0.0,0.0,0.0,0.0,0.0,0.0,0.0,0.0,0.0,0.0,0.0,0.0,0.0,0.0,0.0,0.0,0.0,0.0,0.0,0.0,0.0,0.0,-1.7035,-1.6623,-1.6835,-1.7785,-1.6873,-1.5816,-1.4606,-1.405,-1.2696,-1.0449,0.0,0.0,0.0,0.0,0.0,0.0,0.0,0.0,0.0,0.0,0.0,0.0,0.0,0.0,0.0,0.0,0.0,0.0,0.0,0.0,0.0,0.0,0.0,0.0,0.0,0.0,0.0,0.0,0.0,0.0,0.0,0.0,0.0,0.0,0.0,0.0,0.0,0.0,0.0,-0.0628,0.0,0.0,0.0,0.0,0.0,0.0,0.0,0.0,0.0,0.0598,0.0,0.0,0.0,0.0,0.0,0.0,0.0,0.0,0.0,0.0,0.0,0.0,0.0,0.0,0.0,0.0,0.0,0.0,0.0,0.0,0.0,0.0,0.0,0.0,0.0,0.0,0.0,0.0,0.0,0.0,0.0,0.0,0.0,0.0,0.0,0.0,0.0,0.0,0.0,0.0,0.0,0.0,0.0,0.0,0.0,0.0,0.0,0.0,0.0,0.0,0.0,0.0,0.0,0.0,0.0,-1.7109,-1.799,-1.8544,-1.8829,-1.7853,-1.676,-1.5584,-1.4502,-1.2931,0.0,0.0,0.0,0.0,0.0,0.0,0.0,0.0,0.0,0.0,0.0,0.0,0.0,0.0,0.0,0.0,0.0,0.0,0.0,0.0,0.0,0.0,0.0,0.0,0.0,0.0,0.0,0.0,0.0,0.0,0.0,0.0,0.0,0.0,0.0,0.0,0.0,0.0,0.0,0.0,-0.0663,-0.0097,0.0369,0.0,0.0,0.0,0.0,0.0,0.0,0.0727,0.0258,0.0,0.0,0.0,0.0,0.0,0.0,0.0,0.0,0.0,0.0,0.0,0.0,0.0,0.0,0.0,0.0,0.0,0.0,0.0,0.0,0.0,0.0,0.0,0.0,0.0,0.0,0.0,0.0,0.0,0.0,0.0,0.0,0.0,0.0,0.0,0.0,0.0,0.0,0.0,0.0,0.0,0.0,0.0,0.0,0.0,0.0,0.0,0.0,0.0,0.0,0.0,0.0,0.0,0.0,0.0,-1.6805,-1.8994,-1.9953,-1.9591,-1.8797,-1.7786,-1.6451,-1.5154,-1.3453,0.0,0.0,0.0,0.0,0.0,0.0,0.0,0.0,0.0,0.0,0.0,0.0,0.0,0.0,0.0,0.0,0.0,0.0,0.0,0.0,0.0,0.0,0.0,0.0,0.0,0.0,0.0,0.0,0.0,0.0,0.0,0.0,0.0,0.0,0.0,0.0,0.0,0.0,0.0,0.0,0.0,-0.0284,-0.019,0.0,0.0,0.0,0.0,0.0,0.0979,0.0304,0.0,0.0,0.0,0.0,0.0,0.0,0.0,0.0,0.0,0.0,0.0,0.0,0.0,0.0,0.0,0.0,0.0,0.0,0.0,0.0,0.0,0.0,0.0,0.0,0.0,0.0,0.0,0.0,0.0,0.0,0.0,0.0,0.0,0.0,0.0,0.0,0.0,0.0,0.0,0.0,0.0,0.0,0.0,0.0,0.0,0.0,0.0,0.0,0.0,0.0,0.0,0.0,0.0,0.0,0.0,0.0,-1.6751,-1.8583,-1.9543,-1.9581,-1.9498,-1.8474,-1.6464,-1.6223,-1.4569,0.0,0.0,0.0,0.0,0.0,0.0,0.0,0.0,0.0,0.0,0.0,0.0,0.0,0.0,0.0,0.0,0.0,0.0,0.0,0.0,0.0,0.0,0.0,0.0,0.0,0.0,0.0,0.0,0.0,0.0,0.0,0.0,0.0,0.0,0.0,0.0,0.0,0.0,0.0,0.0,0.0,-0.0642,-0.011,-0.0108,-0.0365,0.0,0.0,-0.0772,0.004,-0.0931,0.0,0.0,0.0,0.0,0.0,0.0,0.0,0.0,0.0,0.0,0.0,0.0,0.0,0.0,0.0,0.0,0.0,0.0,0.0,0.0,0.0,0.0,0.0,0.0,0.0,0.0,0.0,0.0,0.0,0.0,0.0,0.0,0.0,0.0,0.0,0.0,0.0,0.0,0.0,0.0,0.0,0.0,0.0,0.0,0.0,0.0,0.0,0.0,0.0,0.0,0.0,0.0,0.0,0.0,0.0,-1.5462,-1.7361,-1.9536,-2.076,-2.0914,-2.0066,-1.9055,-1.7944,-1.669,-1.4764,0.0,0.0,0.0,0.0,0.0,0.0,0.0,0.0,0.0,0.0,0.0,0.0,0.0,0.0,0.0,0.0,0.0,0.0,0.0,0.0,0.0,0.0,0.0,0.0,0.0,0.0,0.0,0.0,0.0,0.0,0.0,0.0,0.0,0.0,0.0,0.0,0.0,0.0,0.0,0.0,0.0,0.0,-0.1309,-0.092,0.0,0.0,0.0,-0.2656,-0.3602,0.0,0.0,0.0,0.0,0.0,0.0,0.0,0.0,0.0,0.0,0.0,0.0,0.0,0.0,0.0,0.0,0.0,0.0,0.0,0.0,0.0,0.0,0.0,0.0,0.0,0.0,0.0,0.0,0.0,0.0,0.0,0.0,0.0,0.0,0.0,0.0,0.0,0.0,0.0,0.0,0.0,0.0,0.0,0.0,0.0,0.0,0.0,0.0,0.0,0.0,0.0,0.0,0.0,0.0,0.0,0.0,0.0,-1.8099,-2.0694,-2.2031,-2.1981,-2.0829,-1.9938,-1.929,-1.7347,0.0,0.0,0.0,0.0,0.0,0.0,0.0,0.0,0.0,0.0,0.0,0.0,0.0,0.0,0.0,0.0,0.0,0.0,0.0,0.0,0.0,0.0,0.0,0.0,0.0,0.0,0.0,-0.2138,0.0,0.0,0.0,0.0,0.0,0.0,0.0,0.0,0.0,0.0,0.0,0.0,0.0,0.0,-0.1773,-0.2315,-0.1998,-0.129,0.0,0.0,-0.4875,-0.6864,-0.5738,-0.4563,0.0,0.0,0.0,0.0,0.0,0.0,0.0,0.0,0.0,0.0,0.0,0.0,0.0,0.0,0.0,0.0,0.0,0.0,0.0,0.0,0.0,0.0,0.0,0.0,0.0,0.0,0.0,0.0,0.0,0.0,0.0,0.0,0.0,0.0,0.0,0.0,0.0,0.0,0.0,0.0,0.0,0.0,0.0,0.0,0.0,0.0,0.0,0.0,0.0,0.0,0.0,0.0,0.0,0.0,0.0,-1.8843,-2.1758,-2.287,-2.2063,-2.1983,-2.1259,-1.9897,-1.8593,-1.6542,0.0,0.0,0.0,0.0,0.0,0.0,0.0,0.0,0.0,0.0,0.0,0.0,0.0,0.0,0.0,0.0,0.0,0.0,0.0,0.0,0.0,0.0,0.0,0.0,0.0,0.0,0.0,0.0,0.0,0.0,0.0,0.0,0.0,0.0,0.0,0.0,0.0,0.0,0.0,0.0,0.0,-0.2692,-0.2426,-0.3281,-0.3068,0.0,0.0,-0.7505,-0.8521,-0.791,-0.695,-0.5772,0.0,0.0,0.0,0.0,0.0,0.0,0.0,0.0,0.0,0.0,0.0,0.0,0.0,0.0,0.0,0.0,0.0,0.0,0.0,0.0,0.0,0.0,0.0,0.0,0.0,0.0,0.0,0.0,0.0,0.0,0.0,0.0,0.0,0.0,0.0,0.0,0.0,0.0,0.0,0.0,0.0,0.0,0.0,0.0,0.0,0.0,0.0,0.0,0.0,0.0,0.0,0.0,0.0,-1.6915,-1.9545,-2.2107,-2.3493,-2.3697,-2.31,-2.216,-2.1045,-1.9839,-1.764,0.0,0.0,0.0,0.0,0.0,0.0,0.0,0.0,0.0,0.0,0.0,0.0,0.0,0.0,0.0,0.0,0.0,0.0,0.0,0.0,0.0,0.0,0.0,0.0,0.0,0.0,0.0,0.0,-0.2255,-0.2071,-0.1772,0.0,0.0,0.0,0.0,0.0,0.0,0.0,0.0,0.0,0.0,-0.417,-0.5112,-0.5799,0.0,0.0,-0.7703,-0.9849,-1.1129,-0.9947,-0.8598,-0.7681,-0.7134,0.0,0.0,0.0,0.0,0.0,0.0,0.0,0.0,0.0,0.0,0.0,0.0,0.0,0.0,0.0,0.0,0.0,0.0,0.0,0.0,0.0,0.0,0.0,0.0,0.0,0.0,0.0,0.0,0.0,0.0,0.0,0.0,0.0,0.0,0.0,0.0,0.0,0.0,0.0,0.0,0.0,0.0,0.0,0.0,0.0,0.0,0.0,0.0,0.0,0.0,0.0,0.0,-1.7436,-2.0491,-2.2621,-2.4118,-2.4945,-2.3967,-2.297,-2.1896,-2.0612,-1.8551,0.0,0.0,0.0,0.0,0.0,0.0,0.0,0.0,0.0,0.0,0.0,0.0,0.0,0.0,0.0,0.0,0.0,0.0,0.0,0.0,0.0,0.0,0.0,0.0,0.0,0.0,0.0,0.0,-0.2465,-0.2432,-0.2318,0.0,0.0,0.0,0.0,0.0,0.0,0.0,0.0,0.0,0.0,-0.5717,-0.694,-0.768,-0.8728,-1.0352,-1.0796,-1.1364,-1.2351,-1.1438,-1.0294,-0.9197,0.0,0.0,0.0,0.0,0.0,0.0,0.0,0.0,0.0,0.0,0.0,0.0,0.0,0.0,0.0,0.0,0.0,0.0,0.0,0.0,0.0,0.0,0.0,0.0,0.0,0.0,0.0,0.0,0.0,0.0,-0.8664,0.0,0.0,0.0,0.0,0.0,0.0,0.0,0.0,0.0,0.0,0.0,0.0,0.0,0.0,0.0,0.0,0.0,0.0,0.0,0.0,0.0,0.0,-1.8322,-2.1631,-2.3522,-2.4763,-2.5374,-2.4601,-2.3628,-2.2412,-2.0783,-1.9055,-1.7248,0.0,0.0,0.0,0.0,0.0,0.0,0.0,0.0,0.0,0.0,0.0,0.0,0.0,0.0,0.0,0.0,0.0,0.0,0.0,0.0,0.0,0.0,0.0,0.0,0.0,0.0,-0.2767,-0.2933,-0.3202,0.0,0.0,0.0,0.0,0.0,0.0,0.0,0.0,0.0,0.0,-0.7116,-0.7359,-0.7446,-0.8711,-1.0804,-1.3962,-1.2997,-1.1747,-1.1661,-1.2231,-1.2073,0.0,0.0,0.0,0.0,0.0,0.0,0.0,0.0,0.0,0.0,0.0,0.0,0.0,0.0,0.0,0.0,0.0,0.0,0.0,0.0,0.0,0.0,0.0,0.0,0.0,0.0,0.0,-1.2713,-1.2047,0.0,0.0,0.0,0.0,0.0,0.0,0.0,0.0,0.0,0.0,0.0,-1.5491,-1.5486,0.0,0.0,0.0,0.0,0.0,0.0,0.0,0.0,0.0,0.0,0.0,0.0,-1.9074,-2.3067,-2.4281,-2.5433,-2.6602,-2.5829,-2.46,-2.2976,-2.2037,-2.0038,-1.6811,0.0,0.0,0.0,0.0,0.0,0.0,0.0,0.0,0.0,0.0,0.0,0.0,0.0,0.0,0.0,0.0,0.0,0.0,0.0,0.0,0.0,0.0,0.0,0.0,0.0,-0.3493,0.0,0.0,0.0,0.0,0.0,0.0,0.0,0.0,0.0,0.0,0.0,-0.7423,-0.8692,-0.8827,-0.916,-1.0167,-1.1495,-1.284,0.0,0.0,0.0,0.0,0.0,0.0,0.0,0.0,0.0,0.0,0.0,0.0,0.0,0.0,-0.756,-0.5264,-0.4556,-0.3926,-0.261,0.0,0.0,0.0,0.0,0.0,0.0,0.0,0.0,0.0,0.0,0.0,0.0,0.0,0.0,-1.6433,0.0,-1.5175,0.0,0.0,0.0,0.0,0.0,0.0,0.0,0.0,-1.8172,-1.8667,-1.9307,-1.9375,-1.9177,0.0,-1.815,-1.6701,0.0,0.0,0.0,0.0,0.0,0.0,0.0,0.0,-2.0622,-2.4212,-2.5189,-2.6243,-2.74,-2.664,-2.5421,-2.3856,-2.269,-2.0501,-1.7209,-1.5595,-1.3796,0.0,0.0,0.0,0.0,0.0,0.0,0.0,0.0,0.0,0.0,0.0,0.0,0.0,0.0,0.0,0.0,0.0,0.0,0.0,0.0,0.0,0.0,0.0,-0.3738,0.0,0.0,0.0,0.0,0.0,0.0,0.0,0.0,0.0,-0.7646,-0.8403,-0.9572,-1.1176,-1.1127,-1.1472,-1.291,0.0,0.0,0.0,0.0,0.0,0.0,0.0,-1.5855,-1.5685,-1.5061,-1.4387,-1.3964,-1.3216,-1.2534,-1.1986,0.0,0.0,-0.6998,-0.5744,-0.4735,-0.3476,-0.2223,-0.1261,-0.108,-0.0088,0.0619,0.0,0.0,0.0,0.0,0.0,0.0,0.0,0.0,-2.0128,-2.0271,0.0,-1.9727,0.0,0.0,0.0,0.0,0.0,-1.8747,0.0,0.0,-2.2744,-2.3207,-2.3754,-2.3296,-2.2799,-2.2251,-2.2612,-2.245,-2.1519,-1.6923,0.0,0.0,0.0,0.0,0.0,0.0,-2.2829,-2.5037,-2.6218,-2.7173,-2.7862,-2.7009,-2.6051,-2.4961,-2.2729,-2.0571,-1.8594,-1.7955,-1.6242,-1.3136,-1.269,0.0,0.0,0.0,0.0,0.0,0.0,0.0,0.0,0.0,0.0,0.0,0.0,0.0,0.0,0.0,0.0,0.0,0.0,0.0,0.0,-0.3415,0.0,0.0,0.0,0.0,0.0,0.0,0.0,0.0,0.0,0.0,-0.8692,-0.9959,-1.1777,-1.3865,0.0,0.0,0.0,0.0,-1.5039,-1.5486,-1.6172,-1.7057,-1.8201,-1.885,-1.8773,-1.7612,0.0,0.0,-1.5348,-1.5223,-1.4983,-1.3488,-1.3452,-1.2812,-1.0489,-0.8085,-0.626,-0.553,-0.3615,-0.213,-0.2096,-0.115,-0.0351,-2.9395,0.0,0.0,0.0,0.0,-2.4879,-2.5156,-2.5935,-2.5935,-2.5227,-2.4062,-2.3379,0.0,0.0,0.0,0.0,0.0,0.0,-2.4163,-2.6249,-2.6352,-2.6695,-2.7238,-2.711,-2.6932,-2.6775,-2.6491,-2.6239,-2.5965,-2.436,-2.1595,-1.7804,0.0,0.0,0.0,0.0,-2.3552,-2.6465,-2.6921,-2.7456,-2.8246,-2.7759,-2.6545,-2.4599,-2.2867,-2.1402,-2.0273,-1.9083,-1.7809,-1.6488,-1.4515,0.0,0.0,0.0,0.0,0.0,0.0,0.0,0.0,0.0,0.0,0.0,0.0,0.0,0.0,0.0,0.0,0.0,0.0,0.0,-0.4483,-0.4905,-0.5689,0.0,0.0,0.0,0.0,0.0,0.0,0.0,0.0,0.0,-1.3011,-1.3464,-1.4236,0.0,0.0,-1.6374,-1.6753,-1.7428,-1.7689,-1.7152,-1.8208,0.0,-2.0321,-2.0081,-1.9846,-1.9852,-2.0337,-2.0168,-1.8556,-1.8325,-1.8066,-1.7072,-1.6255,-1.5438,-1.4654,-1.179,-0.8841,-0.6733,-0.5172,-0.4237,-0.3782,-0.2611,-0.1803,-3.553,-3.2676,-2.9863,-2.9122,-2.9786,-2.9489,-2.9728,-3.033,-3.0348,-2.9775,-2.8778,-2.7762,-2.6615,-2.5349,-2.4479,0.0,0.0,0.0,-2.7525,-2.9446,-2.9303,-2.9588,-3.0179,-3.0214,-3.0214,-3.0179,-2.9535,-2.9238,-2.9221,-2.8759,-2.6702,-2.3193,0.0,0.0,-2.296,-2.3803,-2.5293,-2.7391,-2.7785,-2.8076,-2.8376,-2.7936,-2.6631,-2.4516,-2.339,-2.2297,-2.1276,-2.0224,-1.9208,-1.826,-1.6546,-1.4616,0.0,0.0,0.0,0.0,0.0,0.0,0.0,0.0,0.0,0.0,0.0,-0.5876,0.0,0.0,0.0,0.0,-0.5158,-0.5739,-0.6688,-0.6858,0.0,0.0,0.0,0.0,0.0,0.0,0.0,-1.2023,-1.3651,-1.5062,-1.6079,-1.6606,-1.7205,-1.8015,-1.8285,-1.8552,-1.9034,0.0,-1.9708,-1.9216,-2.0231,-2.1465,-2.2476,-2.2167,-2.1877,-2.2154,-2.2217,-2.2062,-2.1303,-2.117,-2.0926,-2.0015,-1.9325,-1.8672,-1.7862,-1.5729,-1.3044,-0.9751,-0.8125,-0.7263,-0.7104,-0.5953,-0.5285,-4.0777,-3.9929,-3.5226,-3.3393,-3.3559,-3.3459,-3.3482,-3.3571,-3.3571,-3.3695,-3.3779,-3.2406,-3.1742,-3.1564,-2.9526,0.0,-3.0124,-2.9844,-3.0718,-3.2368,-3.202,-3.2224,-3.287,-3.2888,-3.2905,-3.287,-3.2103,-3.1729,-3.1693,-3.0962,-3.0196,-2.9423,-2.8004,-2.68,-2.5954,-2.6945,-2.7664,-2.7989,-2.8718,-2.8894,-2.8464,-2.7718,-2.6437,-2.4662,-2.4161,-2.3208,-2.1741,-2.126,-2.0367,-1.8976,-1.8607,-1.6863,-1.3402,0.0,0.0,0.0,0.0,0.0,0.0,0.0,0.0,0.0,0.0,0.0,0.0,0.0,0.0,0.0,-0.6508,0.0,-0.9581,-0.9238,0.0,0.0,0.0,-1.2035,-1.2433,-1.2641,-1.3149,-1.415,0.0,0.0,-1.8167,-1.9403,-2.0468,-2.1102,-2.0709,-2.0755,-2.1902,-2.1589,-2.1318,-2.1602,-2.2289,-2.3283,-2.4296,-2.4397,-2.4224,-2.4153,-2.3806,-2.349,-2.3395,-2.3753,-2.3455,-2.2361,-2.2368,-2.2062,-2.0226,-1.9814,-1.8553,-1.4648,-1.2258,-1.1001,-1.1445,-1.0597,-1.0208,-4.2485,-4.2288,-4.108,-3.939,-3.7471,-3.6587,-3.611,-3.5903,-3.5877,-3.5441,-3.467,-3.4306,-3.3842,-3.325,-3.2963,-3.3147,-3.3762,-3.4189,-3.4801,-3.5588,-3.5733,-3.5923,-3.6067,-3.6085,-3.6067,-3.6011,-3.5039,-3.4522,-3.446,-3.3469,-3.2566,-3.18,-3.1399,-3.0384,-2.8781,-2.8977,-2.93,-2.9622,-2.9824,-2.9575,-2.8858,-2.8129,-2.6996,-2.5376,-2.4697,-2.3678,-2.2219,-2.1705,-2.1147,-2.0479,-1.9624,-1.8359,-1.6616,-1.4439,0.0,0.0,0.0,0.0,0.0,0.0,0.0,0.0,0.0,-0.8783,-0.7063,0.0,-0.9444,0.0,-1.0302,-1.1243,-1.2156,-1.2317,0.0,0.0,-1.4689,-1.5155,-1.5902,-1.5842,-1.613,-1.7066,-1.8324,-1.9614,-2.0806,-2.1626,-2.2435,-2.3405,-2.3074,-2.2795,-2.3046,-2.3756,-2.4178,-2.4217,-2.439,-2.4712,-2.5016,-2.5019,-2.5026,-2.4958,-2.5363,-2.5548,-2.4962,-2.5541,-2.5754,-2.4871,-2.4286,-2.4095,-2.429,-2.3612,-2.2519,-2.1094,-1.8238,-1.5645,-1.5364,-1.4927,-1.489,-4.422,-4.4182,-4.3778,-4.2727,-4.1224,-4.008,-3.9316,-3.8864,-3.8492,-3.7995,-3.7332,-3.676,-3.6075,-3.5336,-3.5506,-3.5708,-3.6012,-3.6362,-3.6691,-3.6925,-3.7106,-3.7192,-3.7192,-3.7192,-3.7147,-3.6953,-3.6334,-3.5975,-3.5803,-3.4833,-3.41,-3.3652,-3.333,-3.259,-3.1563,-3.0815,-3.0538,-3.0723,-3.0375,-2.9716,-2.8761,-2.8334,-2.7245,-2.5438,-2.4988,-2.3989,-2.2378,-2.2032,-2.1628,-2.1023,-2.0448,-1.937,-1.7792,-1.6039,-1.4406,0.0,0.0,0.0,0.0,0.0,0.0,0.0,0.0,0.0,0.0,0.0,-1.1591,-1.1874,-1.2615,-1.3537,-1.4572,-1.4963,-1.5688,-1.6883,-1.747,-1.795,-1.8438,-1.8349,-1.8539,-1.9318,-2.0382,-2.1463,-2.2469,-2.2878,-2.3533,-2.4831,-2.4939,-2.4741,-2.4585,-2.5253,-2.5661,-2.5285,-2.5673,-2.5955,-2.5809,-2.6164,-2.6336,-2.6215,-2.6672,-2.7009,-2.672,-2.721,-2.7452,-2.6791,-2.6426,-2.6316,-2.6522,-2.6004,-2.5281,-2.4516,-2.2904,-2.0793,-1.9046,-1.8699,-1.8729,-4.5586,-4.5509,-4.4797,-4.4451,-4.4376,-4.3427,-4.2473,-4.1605,-4.0923,-4.0551,-4.0402,-3.9231,-3.8323,-3.7683,-3.7593,-3.7553,-3.7513,-3.7578,-3.7597,-3.7577,-3.7597,-3.7618,-3.7618,-3.7618,-3.7448,-3.7125,-3.6982,-3.6779,-3.6481,-3.5615,-3.5128,-3.4972,-3.4321,-3.3899,-3.3752,-3.2394,-3.1659,-3.1549,-3.076,-2.9789,-2.8677,-2.859,-2.7495,-2.5372,-2.5147,-2.4229,-2.2462,-2.2338,-2.1915,-2.1134,-2.1023,-2.0097,-1.8145,-1.7266,-1.6233,0.0,-1.408,0.0,0.0,0.0,0.0,0.0,0.0,0.0,0.0,-1.3798,-1.3758,-1.4515,-1.4856,-1.567,-1.7322,-1.776,-1.8394,-1.9484,-2.0244,-2.0585,-2.0514,-2.0564,-2.0826,-2.1318,-2.2312,-2.3199,-2.377,-2.3956,-2.457,-2.5986,-2.6657,-2.6793,-2.6455,-2.6589,-2.643,-2.5665,-2.6515,-2.704,-2.6817,-2.7339,-2.766,-2.7439,-2.7701,-2.8076,-2.816,-2.856,-2.8695,-2.8258,-2.8331,-2.8369,-2.7736,-2.7562,-2.718,-2.6374,-2.5884,-2.4797,-2.2494,-2.1713,-2.1885,-4.5586,-4.5586,-4.5432,-4.5355,-4.5316,-4.5127,-4.388,-4.1989,-4.1839,-4.1635,-4.1297,-4.0685,-4.0344,-4.0159,-3.973,-3.9387,-3.9173,-3.9661,-3.9752,-3.9565,-3.9769,-3.9874,-3.9893,-3.9874,-3.9716,-3.9409,-3.8534,-3.7914,-3.7586,-3.6537,-3.5697,-3.5009,-3.4825,-3.4468,-3.3807,0.0,0.0,0.0,-3.1568,-3.0754,-2.9893,-2.9533,-2.8268,-2.6002,-2.5358,0.0,-2.2729,-2.2426,-2.2049,-2.1521,-2.1181,0.0,0.0,0.0,0.0,0.0,0.0,0.0,0.0,0.0,0.0,0.0,-1.6968,-1.6246,-1.5372,-1.6652,-1.8037,-1.9127,-2.0014,-2.0942,-2.1882,-2.1994,-2.2165,-2.242,-2.3017,-2.3219,-2.279,-2.3346,-2.3892,-2.4037,-2.5053,-2.5706,-2.5782,-2.6343,-2.708,-2.7989,-2.8621,-2.9013,-2.9214,-2.8304,-2.7654,-2.7659,-2.7823,-2.79,-2.7678,-2.7794,-2.7954,-2.7851,-2.827,-2.8603,-2.8686,-2.9055,-2.9399,-2.9286,-2.9423,-2.9494,-2.944,-2.8918,-2.8248,-2.7658,-2.6976,-2.6015,-2.4482,-2.4007,-2.3859,-4.5586,0.0,-4.5586,-4.5586,0.0,-4.5586,-4.4844,-4.354,-4.2937,-4.2288,-4.1614,-4.1642,-4.1702,-4.1684,-4.1609,-4.1246,-4.0711,-4.1006,-4.0844,-4.0321,-4.0422,-4.0489,-4.0489,-4.0356,-4.0139,-3.984,-3.9096,-3.8607,-3.8247,-3.7356,-3.6468,-3.5661,-3.5192,-3.4587,-3.3825,-3.3807,-3.3403,-3.2614,-3.2192,-3.1403,-3.0265,-3.0008,-2.8876,-2.6772,-2.5968,0.0,0.0,0.0,0.0,0.0,0.0,0.0,0.0,0.0,0.0,-1.8843,-1.8221,-1.7862,-1.7862,-1.8066,-1.8956,-2.0678,-2.1021,-2.0345,-1.8435,-1.9878,-2.1163,-2.1768,-2.2506,-2.3012,-2.3178,-2.3659,-2.3992,-2.4009,-2.4593,-2.4932,-2.485,-2.5327,-2.5688,-2.583,-2.6708,-2.7457,-2.7659,-2.8358,-2.9216,-2.9999,-3.0392,-3.0672,-3.0775,-2.9682,-2.8739,-2.8629,-2.8582,-2.8476,-2.8228,-2.8334,-2.8378,-2.8264,-2.8554,-2.8911,-2.9071,-2.9318,-2.957,-2.9796,-2.9946,-3.0092,-3.0138,-2.9812,-2.9302,-2.8659,-2.814,-2.7338,-2.6015,-2.5144,-2.4524,-4.5586,-4.5586,-4.5586,-4.5586,-4.5586,-4.5586,-4.5419,-4.5017,0.0,0.0,0.0,-4.2655,-4.2831,-4.2851,-4.3019,-4.2701,-4.2047,-4.2027,-4.1566,-4.0739,-4.0719,-4.0642,-4.0489,-4.0233,-3.9922,-3.9599,-3.9264,-3.8961,-3.867,-3.801,-3.7294,-3.6505,-3.5789,-3.4981,-3.4064,-3.3862,-3.3476,-3.2871,-3.2816,-3.21,-3.0687,-3.0485,-2.9527,-2.7647,-2.676,-2.5805,-2.4728,-2.3734,-2.3023,-2.2643,-2.2153,-2.1798,-2.1521,-2.1327,-2.1231,-2.1391,-2.1247,-2.1263,-2.1391,-2.1392,-2.2071,-2.3602,-2.4413,-2.3938,-2.1871,-2.2719,-2.344,-2.3716,-2.405,-2.4148,-2.4049,-2.483,-2.541,-2.5427,-2.5916,-2.6418,-2.6688,-2.7043,-2.7297,-2.743,-2.8316,-2.9078,-2.9625,-3.0357,-3.1107,-3.1888,-3.2189,-3.2131,-3.1871,-3.0705,-2.9686,-2.9558,-2.9472,-2.9168,-2.8894,-2.9004,-2.9028,-2.8601,-2.8821,-2.9138,-2.9332,-2.9474,-2.9642,-2.9939,-3.0209,-3.0355,-3.0398,-3.034,-3.0102,-2.9286,-2.9105,-2.8673,-2.7187,-2.5906,-2.4936,-4.5586,-4.5586,-4.5586,-4.5586,-4.5586,-4.5586,-4.5419,-4.5077,-4.49,-4.4741,-4.4585,-4.4212,-4.4053,-4.4014,-4.3376,-4.3028,-4.2912,-4.2912,-4.245,-4.1643,-4.1623,-4.1219,-4.0508,-4.0213,-3.9941,-3.9599,-3.9264,-3.8943,-3.8701,-3.8579,-3.812,-3.7386,-3.7202,-3.6358,-3.4908,-3.4156,-3.3752,-3.3623,-3.3642,-3.3183,-3.2302,-3.1586,-3.0442,-2.8837,-2.7694,-2.6754,-2.5888,-2.5401,-2.5033,-2.467,-2.363,-2.3197,-2.3457,-2.2524,-2.2226,-2.2806,-2.2274,-2.221,-2.2857,-2.2924,-2.3648,-2.5147,-2.6018,-2.5756,-2.4194,-2.3884,-2.4363,-2.5569,-2.5837,-2.6246,-2.7105,-2.7447,-2.762,-2.7701,-2.8016,-2.8233,-2.833,-2.8919,-2.9452,-2.9769,-3.0683,-3.1318,-3.1692,-3.2408,-3.3033,-3.3464,-3.3715,-3.3874,-3.2847,-3.1476,-3.0741,-3.0901,-3.0656,-3.0283,-2.9984,-2.9978,-2.9722,-2.9038,-2.9152,-2.9363,-2.9332,-2.9475,-2.9677,-2.9954,-3.0196,-3.0367,-3.0398,-3.0398,-3.0063,-2.9382,-2.9245,-2.8868,-2.7883,-2.6847,-2.5779,-4.5586,-4.5586,-4.5586,-4.5586,-4.5586,-4.5586,-4.5513,-4.5362,-4.5381,-4.5161,-4.4834,-4.4741,-4.4729,-4.471,-4.4552,-4.4182,-4.3758,-4.3758,-4.3297,-4.2527,-4.2508,-4.1923,-4.0976,-4.0668,-4.0121,-3.9352,-3.9045,-3.8833,-3.8689,-3.8707,-3.8303,-3.7489,-3.6615,-3.5752,-3.499,-3.4211,-3.3807,-3.3807,-3.3807,-3.3403,-3.2632,-3.2247,-3.1292,-2.9696,-2.8717,-2.7825,-2.7041,-2.6291,-2.5797,-2.5646,-2.4774,-2.4362,-2.4513,-2.4039,-2.379,-2.3868,-2.3792,-2.3849,-2.4202,-2.4993,-2.5694,-2.6242,-2.7254,-2.7468,-2.6429,-2.6189,-2.6358,-2.7058,-2.7405,-2.7709,-2.8049,-2.8427,-2.8879,-2.9343,-2.9496,-2.985,-3.0445,-3.0639,-3.0979,-3.1559,-3.2326,-3.2939,-3.3245,-3.4009,-3.456,-3.4695,-3.4791,-3.4465,-3.3961,-3.3208,-3.2293,-3.1618,-3.1421,-3.1274,-3.0925,-3.0852,-3.0503,-2.9787,-2.9734,-2.9621,-2.9329,-2.9272,-2.9416,-2.9661,-3.0037,-3.0299,-3.0241,-3.0311,-3.0155,-3.0017,-2.9854,-2.9535,-2.8702,-2.7654,-2.6285,-4.5586,-4.5586,-4.5586,-4.5586,-4.5586,-4.5586,-4.5586,-4.5586,-4.5586,-4.5322,-4.49,-4.5096,-4.5203,-4.5243,-4.5475,-4.522,-4.4643,-4.4586,-4.4143,-4.3412,-4.3374,-4.2789,-4.1724,-4.1165,-4.0408,-3.9504,-3.8966,-3.8707,-3.8707,-3.8707,-3.8395,-3.7661,-3.6285,-3.5569,-3.555,-3.4578,-3.4082,-3.4064,-3.3899,-3.3495,-3.2889,-3.2706,-3.2008,-3.0815,-2.9764,-2.8998,-2.8356,-2.731,-2.6693,-2.6603,-2.5949,-2.5627,-2.5701,-2.5579,-2.542,-2.5313,-2.5409,-2.552,-2.5674,-2.6864,-2.758,-2.7443,-2.8384,-2.8899,-2.8637,-2.8594,-2.8435,-2.8246,-2.8676,-2.8983,-2.903,-2.9535,-3.017,-3.0809,-3.096,-3.1316,-3.2138,-3.2191,-3.2306,-3.2943,-3.3676,-3.4263,-3.4545,-3.5064,-3.5416,-3.534,-3.5088,-3.4793,-3.4713,-3.4517,-3.3621,-3.2619,-3.2348,-3.2354,-3.1838,-3.1659,-3.1311,-3.0613,-3.0485,-3.027,-2.9774,-2.9384,-2.9259,-2.96,-2.9834,-3.0018,-2.999,-3.0209,-3.0348,-3.0325,-3.0347,-3.0186,-2.9264,-2.8375,-2.6983,-4.5586,-4.5586,-4.5586,-4.5586,-4.5586,-4.5586,-4.5586,-4.5586,-4.5586,-4.5586,-4.5495,-4.5531,-4.555,-4.5549,-4.5586,-4.5528,-4.5432,-4.547,-4.5009,-4.4259,-4.4182,-4.3742,-4.2827,-4.1556,-4.0849,-4.0521,-3.9359,-3.8744,-3.8707,-3.8707,-3.867,-3.8505,-3.7698,-3.7202,-3.7055,-3.5661,-3.4862,-3.4862,-3.4174,-3.377,-3.366,-3.2981,-3.2522,-3.2394,-3.0889,-3.0063,-2.9898,-2.9153,-2.8554,-2.8175,-2.7457,-2.7269,-2.75,-2.6985,-2.6932,-2.7448,-2.7002,-2.6774,-2.7132,-2.8057,-2.8772,-2.914,-2.9401,-2.9924,-3.0546,-3.0678,-3.0127,-2.9296,-2.9554,-3.0197,-3.0735,-3.1571,-3.2121,-3.2292,-3.2507,-3.2743,-3.2922,-3.3313,-3.3711,-3.4013,-3.4724,-3.5339,-3.5295,-3.5411,-3.5488,-3.5493,-3.5223,-3.4926,-3.4714,-3.4464,-3.4123,-3.3696,-3.3882,-3.3599,-3.2783,-3.2504,-3.2137,-3.1476,-3.1292,-3.1146,-3.0797,-2.9971,-2.9292,-2.9975,-2.9758,-2.9585,-2.9889,-3.0209,-3.0379,-3.0414,-3.0433,-3.0348,-2.9577,-2.9052,-2.8007,-4.5586,-4.5586,-4.5586,-4.5586,-4.5586,-4.5586,-4.5586,-4.5586,-4.5586,-4.5586,-4.5586,-4.5586,-4.5586,-4.5586,-4.5586,-4.5586,-4.5586,-4.5586,-4.5413,-4.5086,-4.5066,-4.4552,-4.3541,-4.2724,-4.1776,-4.0626,-3.9753,-3.9166,-3.8781,-3.8707,-3.8707,-3.8615,-3.7881,-3.7496,-3.7367,-3.5844,-3.499,-3.4972,-3.4211,-3.3807,-3.377,-3.3476,-3.3091,-3.2596,-3.1928,-3.1384,-3.0889,-3.0136,-2.9624,-2.9411,-2.8511,-2.8026,-2.8192,-2.7906,-2.7763,-2.7901,-2.7967,-2.8088,-2.8353,-2.8959,-2.94,-2.957,-3.0236,-3.0755,-3.1012,-3.1571,-3.1665,-3.1242,-3.1393,-3.1711,-3.196,-3.2454,-3.2957,-3.3412,-3.3602,-3.3853,-3.441,-3.4641,-3.4872,-3.5007,-3.5276,-3.5507,-3.5507,-3.5507,-3.5507,-3.546,-3.5273,-3.5016,-3.4734,-3.4572,-3.4307,-3.3954,-3.4099,-3.3994,-3.3427,-3.3311,-3.2944,-3.2375,-3.2118,-3.2045,-3.1421,-3.1017,-3.0496,-3.0471,-3.0262,-2.9959,-2.9777,-3.0142,-3.041,-3.0417,-3.0472,-3.0438,-3.0204,-2.9812,-2.8913,-4.5586,-4.5586,-4.5586,-4.5586,-4.5586,-4.5586,-4.5586,-4.5586,-4.5586,-4.5586,-4.5586,-4.5586,-4.5586,-4.5586,-4.5586,-4.5586,-4.5586,-4.5586,-4.5586,-4.5586,-4.5586,-4.5112,-4.4241,-4.3587,-4.2521,-4.1176,-4.0505,-3.9808,-3.9093,-3.8762,-3.8707,-3.8597,-3.8102,-3.7826,-3.7661,-3.6376,-3.5697,-3.5605,-3.4688,-3.4137,-3.4119,-3.3917,-3.3513,-3.2981,-3.2706,-3.232,-3.1751,-3.0962,-3.043,-3.0167,-2.9344,-2.8782,-2.8583,-2.8764,-2.8913,-2.8997,-2.9375,-2.9709,-2.9943,-3.0281,-3.0497,-3.057,-3.1295,-3.1798,-3.1987,-3.2584,-3.3119,-3.3368,-3.3402,-3.3349,-3.3072,-3.3382,-3.3891,-3.4468,-3.4545,-3.4853,-3.5359,-3.5507,-3.5468,-3.5507,-3.5468,-3.5507,-3.5507,-3.5507,-3.5507,-3.546,-3.5339,-3.5105,-3.4851,-3.4734,-3.4467,-3.3931,-3.3981,-3.3968,-3.3842,-3.3752,-3.3476,-3.322,-3.2926,-3.2742,-3.2155,-3.2082,-3.1788,-3.1605,-3.1499,-3.1127,-3.0517,-3.0509,-3.0678,-3.053,-3.049,-3.0567,-3.0526,-3.0202,-2.9717,-4.5586,-4.5586,-4.5586,-4.5586,-4.5586,-4.5586,-4.5586,-4.5586,-4.5586,-4.5586,-4.5586,-4.5586,-4.5586,-4.5586,-4.5586,-4.5586,-4.5586,-4.5586,-4.5586,-4.5586,-4.5586,-4.54,-4.4982,-4.3867,-4.3066,-4.2472,-4.1501,-4.0616,-3.9772,-3.9074,-3.8707,-3.8689,-3.8615,-3.8615,-3.8469,-3.7679,-3.7349,-3.7055,-3.5716,-3.4917,-3.4825,-3.4192,-3.3825,-3.3642,-3.3018,-3.2632,-3.2485,-3.177,-3.1017,-3.0265,-3.0167,-2.9777,-2.9172,-2.9703,-3.0507,-3.1355,-3.1592,-3.1722,-3.1958,-3.2167,-3.2336,-3.2409,-3.2598,-3.3134,-3.3684,-3.3967,-3.4389,-3.5229,-3.51,-3.4864,-3.4307,-3.4686,-3.5161,-3.5315,-3.5391,-3.5416,-3.5488,-3.5507,-3.5507,-3.5507,-3.5507,-3.5507,-3.5507,-3.5507,-3.5507,-3.5507,-3.5498,-3.5392,-3.5072,-3.4832,-3.4529,-3.4022,-3.3832,-3.3834,-3.3807,-3.3807,-3.3788,-3.3605,-3.3476,-3.3623,-3.3715,-3.3623,-3.3091,-3.2957,-3.3456,-3.3071,-3.1689,-3.11,-3.1221,-3.1069,-3.0661,-3.0619,-3.0633,-3.0431,-3.0015,-4.5586,-4.5586,-4.5586,-4.5586,-4.5586,-4.5586,-4.5586,-4.5586,-4.5586,-4.5586,-4.5586,-4.5586,-4.5586,-4.5586,-4.5586,-4.5586,-4.5586,-4.5586,-4.5586,-4.5586,-4.5586,-4.555,-4.5362,-4.4512,-4.3762,-4.3061,-4.2273,-4.1185,-3.9974,-3.9588,-3.9203,-3.8762,-3.8707,-3.8707,-3.856,-3.79,-3.7496,-3.7367,-3.6358,-3.5569,-3.5064,-3.4697,-3.4339,-3.3825,-3.3532,-3.3385,-3.3385,-3.2596,-3.2027,-3.1751,-3.1256,-3.0834,-3.0595,-3.0815,-3.1275,-3.1953,-3.2069,-3.2222,-3.2611,-3.2732,-3.2779,-3.2831,-3.339,-3.3833,-3.4218,-3.4699,-3.5199,-3.543,-3.5507,-3.5315,-3.5199,-3.5353,-3.5507,-3.5507,-3.5507,-3.5507,-3.5507,-3.5507,-3.5507,-3.5507,-3.5507,-3.5507,-3.5545,-3.5507,-3.5507,-3.5532,-3.5916,-3.5802,-3.5172,-3.5151,-3.5114,-3.4124,-3.3813,-3.3807,-3.3807,-3.3807,-3.3807,-3.3807,-3.377,-3.3752,-3.3788,-3.3807,-3.3366,-3.2919,-3.392,-3.3903,-3.2138,-3.166,-3.1763,-3.1662,-3.1236,-3.0938,-3.0637,-3.0524,-3.0175,-4.5586,-4.5586,-4.5586,-4.5586,-4.5586,-4.5586,-4.5586,-4.5586,-4.5586,-4.5586,-4.5586,-4.5586,-4.5586,-4.5586,-4.5586,-4.5586,-4.5586,-4.5586,-4.5586,-4.5586,-4.5586,-4.555,-4.5362,-4.4872,-4.4226,-4.3473,-4.268,-4.1589,-4.0377,-4.001,-3.9478,-3.8762,-3.8707,-3.8707,-3.8597,-3.8138,-3.7863,-3.7734,-3.7092,-3.6376,-3.5844,-3.5522,-3.5183,-3.4651,-3.4339,-3.4045,-3.3807,-3.3275,-3.2852,-3.2551,-3.2082,-3.1788,-3.177,-3.1851,-3.2251,-3.29,-3.3015,-3.3235,-3.3637,-3.3665,-3.367,-3.3743,-3.4237,-3.4622,-3.4661,-3.5161,-3.5449,-3.5507,-3.5507,-3.5507,-3.5507,-3.5507,-3.5507,-3.5507,-3.5507,-3.5507,-3.5507,-3.5507,-3.5507,-3.5532,-3.5776,-3.5892,-3.5949,-3.618,-3.6334,-3.6315,-3.6834,-3.6642,-3.608,-3.5947,-3.576,-3.4488,-3.4529,-3.4697,-3.4724,-3.4669,-3.41,-3.3972,-3.3825,-3.3807,-3.3807,-3.3807,-3.3695,-3.3271,-3.3142,-3.3223,-3.2975,-3.245,-3.2232,-3.2225,-3.2019,-3.1759,-3.1261,-3.0674,-3.0355,-4.5605,-4.5586,-4.5586,-4.5586,-4.5586,-4.5586,-4.5586,-4.5586,-4.5586,-4.5586,-4.5586,-4.5586,-4.5586,-4.5586,-4.5586,-4.5586,-4.5586,-4.5586,-4.5586,-4.5586,-4.5586,-4.5457,-4.5161,-4.4781,-4.4346,-4.3867,-4.2834,-4.1937,-4.113,-4.0469,-3.9717,-3.8909,-3.8817,-3.8768,-3.8676,-3.8585,-3.8634,-3.8401,-3.7796,-3.7441,-3.7386,-3.6652,-3.6211,-3.6064,-3.5422,-3.4669,-3.3917,-3.377,-3.3385,-3.2797,-3.2651,-3.2632,-3.264,-3.281,-3.3455,-3.4293,-3.4581,-3.485,-3.5234,-3.5047,-3.4971,-3.5129,-3.5397,-3.5353,-3.5353,-3.543,-3.5507,-3.5507,-3.5507,-3.5526,-3.5584,-3.5622,-3.5584,-3.5507,-3.5507,-3.5507,-3.5507,-3.5526,-3.5545,-3.5718,-3.6257,-3.668,-3.6873,-3.7238,-3.7603,-3.768,-3.7892,-3.7805,-3.7338,-3.7148,-3.643,-3.5254,-3.5221,-3.5725,-3.5716,-3.5605,-3.4798,-3.4156,-3.3935,-3.3807,-3.3807,-3.3807,-3.3807,-3.3534,-3.3945,-3.4036,-3.4052,-3.3538,-3.3094,-3.2977,-3.2764,-3.2493,-3.199,-3.1399,-3.0744,-4.6144,-4.5605,-4.5586,-4.5586,-4.5586,-4.5586,-4.5586,-4.5586,-4.5586,-4.5586,-4.5586,-4.5586,-4.5586,-4.5586,-4.5586,-4.5586,-4.5586,-4.5586,-4.5586,-4.5586,-4.5586,-4.5531,-4.5342,-4.4853,-4.4252,-4.3689,-4.3309,-4.269,-4.1992,-4.1625,-4.0891,-3.9772,-3.9515,-3.9026,-3.8289,-3.8515,-3.8546,-3.818,-3.829,-3.8083,-3.7562,-3.7257,-3.6872,-3.6321,-3.6028,-3.5514,-3.466,-3.4119,-3.3697,-3.3421,-3.344,-3.344,-3.343,-3.3508,-3.3924,-3.4555,-3.4467,-3.4615,-3.5122,-3.5138,-3.5105,-3.5239,-3.5403,-3.5493,-3.5507,-3.5507,-3.5507,-3.5507,-3.5507,-3.5666,-3.618,-3.6334,-3.6142,-3.5551,-3.5507,-3.5603,-3.5699,-3.6031,-3.6397,-3.6685,-3.7204,-3.7546,-3.7623,-3.7969,-3.8123,-3.82,-3.8546,-3.8612,-3.7521,-3.7793,-3.6822,-3.4858,-3.5716,-3.6791,-3.6985,-3.6681,-3.5826,-3.5128,-3.4706,-3.4174,-3.4064,-3.399,-3.3954,-3.4055,-3.4489,-3.4736,-3.4764,-3.4552,-3.4044,-3.3655,-3.3396,-3.307,-3.2705,-3.2179,-3.1569,-4.6586,-4.6067,-4.574,-4.5586,-4.5586,-4.5586,-4.5586,-4.5586,-4.5586,-4.5586,-4.5586,-4.5586,-4.5586,-4.5586,-4.5586,-4.5586,-4.5586,-4.5586,-4.5586,-4.5586,-4.5586,-4.5586,-4.5531,-4.5074,-4.4401,-4.3823,-4.3712,-4.3207,-4.2341,-4.2249,-4.1625,-4.0524,-3.9863,-3.9331,-3.8619,-3.8445,-3.8267,-3.8267,-3.851,-3.8432,-3.8046,-3.7936,-3.7698,-3.7239,-3.689,-3.6468,-3.5917,-3.5147,-3.4431,-3.3954,-3.3807,-3.3807,-3.3834,-3.3986,-3.426,-3.442,-3.4467,-3.4574,-3.4889,-3.4813,-3.4889,-3.5069,-3.5254,-3.5398,-3.546,-3.5507,-3.557,-3.5892,-3.5968,-3.6295,-3.6988,-3.718,-3.693,-3.6526,-3.6488,-3.643,-3.6526,-3.6873,-3.7219,-3.7531,-3.8065,-3.8392,-3.8488,-3.8815,-3.8892,-3.9027,-3.9373,-3.9569,-3.8438,-3.8552,-3.7248,-3.6426,-3.7006,-3.7845,-3.8361,-3.7787,-3.6883,-3.6229,-3.5679,-3.5037,-3.4596,-3.4486,-3.444,-3.4428,-3.4695,-3.5016,-3.5072,-3.5012,-3.4687,-3.4385,-3.4089,-3.3966,-3.3704,-3.313,-3.2406,-4.6951,-4.6797,-4.5951,-4.5568,-4.5531,-4.555,-4.5531,-4.5549,-4.555,-4.5549,-4.5586,-4.5586,-4.5586,-4.5586,-4.5531,-4.5531,-4.5586,-4.5531,-4.5568,-4.5586,-4.5586,-4.5586,-4.5457,-4.518,-4.4638,-4.4046,-4.3955,-4.3415,-4.2558,-4.2488,-4.1974,-4.1152,-4.0172,-3.9384,-3.9337,-3.8515,-3.8241,-3.8368,-3.8546,-3.8572,-3.8566,-3.8554,-3.8585,-3.8493,-3.7839,-3.7381,-3.7165,-3.645,-3.5404,-3.4137,-3.3899,-3.3807,-3.3895,-3.4348,-3.442,-3.4265,-3.4489,-3.4569,-3.4591,-3.4445,-3.451,-3.4981,-3.5088,-3.5264,-3.56,-3.5743,-3.6031,-3.668,-3.6796,-3.7123,-3.7834,-3.8084,-3.8065,-3.8123,-3.7873,-3.7757,-3.793,-3.7969,-3.8161,-3.8354,-3.8873,-3.9373,-3.9373,-3.9931,-4.02,-4.0296,-4.0281,-4.0082,-3.9923,-3.9523,-3.9509,-3.9006,-3.8253,-3.8313,-3.8633,-3.8382,-3.7569,-3.7367,-3.6798,-3.6138,-3.522,-3.4972,-3.4639,-3.4652,-3.4754,-3.5105,-3.5281,-3.5158,-3.5196,-3.5078,-3.4943,-3.4949,-3.4602,-3.3996,-3.3221,-4.7432,-4.6836,-4.5951,-4.5457,-4.5243,-4.5222,-4.5243,-4.5222,-4.5243,-4.54,-4.5531,-4.5586,-4.5586,-4.5568,-4.5342,-4.5362,-4.5495,-4.5342,-4.54,-4.5568,-4.5586,-4.5438,-4.5263,-4.514,-4.4732,-4.4087,-4.4016,-4.3725,-4.3201,-4.3112,-4.2727,-4.2011,-4.151,-4.0436,-3.9031,-3.8815,-3.8294,-3.7739,-3.7998,-3.835,-3.8596,-3.83,-3.8318,-3.8609,-3.8113,-3.7713,-3.7466,-3.6725,-3.5826,-3.4752,-3.4082,-3.3807,-3.3889,-3.4023,-3.4117,-3.4171,-3.4099,-3.4141,-3.4288,-3.4246,-3.4401,-3.4754,-3.5059,-3.5482,-3.6306,-3.6378,-3.6801,-3.743,-3.768,-3.8007,-3.8738,-3.8969,-3.92,-3.9585,-3.8834,-3.8142,-3.8204,-3.8569,-3.9142,-3.9738,-3.9988,-4.0085,-4.0162,-4.0296,-4.0489,-4.0457,-4.0339,-4.0176,-4.0024,-3.9694,-3.9308,-3.9036,-3.8536,-3.8628,-3.8652,-3.8542,-3.8395,-3.8377,-3.7955,-3.7404,-3.635,-3.5441,-3.4884,-3.4465,-3.4588,-3.487,-3.5069,-3.5114,-3.5285,-3.5369,-3.5369,-3.5163,-3.5192,-3.4821,-3.4033,-4.8144,-4.7336,-4.6509,-4.5821,-4.5341,-4.5302,-4.5262,-4.5159,-4.5243,-4.5322,-4.5419,-4.555,-4.5586,-4.5568,-4.5262,-4.5302,-4.5513,-4.5243,-4.5302,-4.5532,-4.5457,-4.5282,-4.5137,-4.5096,-4.4713,-4.4058,-4.4016,-4.3804,-4.3511,-4.3479,-4.3204,-4.2748,-4.2244,-4.1126,-3.9926,-3.9175,-3.8762,-3.8151,-3.8162,-3.8415,-3.8627,-3.8183,-3.8216,-3.8483,-3.8216,-3.7878,-3.7857,-3.7221,-3.6413,-3.5587,-3.4798,-3.4302,-3.4266,-3.4094,-3.4005,-3.4043,-3.3986,-3.4018,-3.3993,-3.4043,-3.4409,-3.5026,-3.5379,-3.6062,-3.6938,-3.7262,-3.7608,-3.8392,-3.8527,-3.8969,-3.9585,-3.9796,-4.0027,-4.0219,-3.9604,-3.9065,-3.905,-3.9527,-3.995,-4.0354,-4.0489,-4.0489,-4.0489,-4.0489,-4.0441,-4.0339,-4.0214,-4.0003,-3.9778,-3.9364,-3.9082,-3.8902,-3.8719,-3.8707,-3.8707,-3.8615,-3.8579,-3.8634,-3.856,-3.812,-3.7279,-3.6085,-3.5472,-3.4983,-3.4749,-3.4653,-3.4946,-3.5076,-3.4981,-3.507,-3.5242,-3.5273,-3.519,-3.5083,-3.4358,-4.8875,-4.8029,-4.724,-4.6376,-4.559,-4.5531,-4.5342,-4.5201,-4.5362,-4.54,-4.5302,-4.5495,-4.5586,-4.5549,-4.5263,-4.5282,-4.5568,-4.5243,-4.5302,-4.5362,-4.5263,-4.5055,-4.4896,-4.4943,-4.4594,-4.4087,-4.4016,-4.3804,-4.3563,-4.3479,-4.3479,-4.3206,-4.2304,-4.165,-4.0941,-4.0004,-3.9247,-3.878,-3.854,-3.8482,-3.8469,-3.815,-3.8183,-3.8546,-3.835,-3.8249,-3.8321,-3.7876,-3.7216,-3.6597,-3.5679,-3.5174,-3.5083,-3.4648,-3.4407,-3.4344,-3.4522,-3.4474,-3.4199,-3.4383,-3.4698,-3.5776,-3.6026,-3.6631,-3.775,-3.8146,-3.8493,-3.9335,-3.9431,-3.9738,-4.0181,-4.0431,-4.0431,-4.0469,-4.0392,-4.045,-4.0489,-4.0489,-4.0489,-4.0489,-4.0489,-4.0489,-4.0489,-4.0473,-4.0406,-4.0213,-4.0061,-3.9797,-3.9529,-3.9171,-3.9036,-3.9026,-3.887,-3.8707,-3.8707,-3.8689,-3.867,-3.8689,-3.8689,-3.8377,-3.7879,-3.6953,-3.6317,-3.5777,-3.5203,-3.5004,-3.5113,-3.5096,-3.4827,-3.4851,-3.5053,-3.4963,-3.4813,-3.4679,-3.4193,-4.8875,-4.8048,-4.724,-4.6244,-4.5298,-4.5201,-4.5161,-4.5118,-4.518,-4.5342,-4.5457,-4.5568,-4.5586,-4.5587,-4.5243,-4.5283,-4.5513,-4.5263,-4.5159,-4.518,-4.5159,-4.4738,-4.4455,-4.4527,-4.4428,-4.4076,-4.4016,-4.3836,-4.3563,-4.3479,-4.3479,-4.3389,-4.3118,-4.2504,-4.1467,-4.0807,-3.9711,-3.8765,-3.8469,-3.8348,-3.8192,-3.7964,-3.8065,-3.8546,-3.8496,-3.8546,-3.8528,-3.8136,-3.7954,-3.7772,-3.6861,-3.6025,-3.5954,-3.5837,-3.5653,-3.5607,-3.568,-3.5745,-3.5744,-3.5634,-3.6062,-3.6682,-3.6925,-3.747,-3.8831,-3.9012,-3.9396,-4.0046,-4.0239,-4.0258,-4.045,-4.0489,-4.0489,-4.0489,-4.0489,-4.0489,-4.0489,-4.0489,-4.0489,-4.0489,-4.0489,-4.0489,-4.0489,-4.0473,-4.0356,-4.0139,-3.9859,-3.9576,-3.9275,-3.8961,-3.896,-3.8958,-3.887,-3.8707,-3.8707,-3.8707,-3.8707,-3.8707,-3.8707,-3.867,-3.8173,-3.779,-3.7106,-3.63,-3.5467,-3.538,-3.5399,-3.4858,-3.4539,-3.4708,-3.4813,-3.4734,-3.4574,-3.437,-3.4111,-4.8894,-4.8029,-4.7259,-4.6301,-4.5438,-4.5342,-4.5243,-4.5159,-4.5263,-4.5342,-4.54,-4.5513,-4.5532,-4.5342,-4.5052,-4.5052,-4.5322,-4.5381,-4.514,-4.4943,-4.4849,-4.4455,-4.3912,-4.3962,-4.3943,-4.3791,-4.3758,-4.3646,-4.3548,-4.3479,-4.3479,-4.3479,-4.3479,-4.2941,-4.2177,-4.1627,-4.0921,-3.9924,-3.8988,-3.8582,-3.8454,-3.7576,-3.747,-3.7964,-3.8201,-3.8415,-3.8627,-3.8183,-3.8267,-3.8295,-3.7643,-3.6967,-3.6751,-3.6505,-3.6321,-3.6285,-3.6285,-3.6285,-3.6285,-3.636,-3.6673,-3.763,-3.7707,-3.8537,-3.9432,-3.9873,-4.0027,-4.0373,-4.0469,-4.0489,-4.0489,-4.0489,-4.0489,-4.0489,-4.0489,-4.0489,-4.0489,-4.0489,-4.0489,-4.0489,-4.0489,-4.0489,-4.0489,-4.0457,-4.0176,-3.9901,-3.9576,-3.9289,-3.9064,-3.8803,-3.8792,-3.875,-3.8768,-3.8707,-3.8707,-3.8707,-3.8707,-3.8707,-3.8707,-3.8707,-3.8499,-3.818,-3.7853,-3.7061,-3.6288,-3.5692,-3.5539,-3.4946,-3.442,-3.4301,-3.4348,-3.442,-3.4338,-3.4006,-3.3799,-4.8817,-4.7875,-4.7182,-4.6394,-4.5663,-4.5586,-4.54,-4.5161,-4.5457,-4.54,-4.5222,-4.5438,-4.5438,-4.5096,-4.4853,-4.4872,-4.5137,-4.54,-4.5283,-4.4849,-4.4781,-4.4346,-4.3836,-4.3693,-4.3679,-4.3513,-4.3548,-4.3513,-4.3513,-4.3479,-4.3479,-4.3479,-4.3479,-4.3231,-4.285,-4.2486,-4.1869,-4.105,-3.9896,-3.9157,-3.8833,-3.762,-3.719,-3.747,-3.7808,-3.8234,-3.8465,-3.815,-3.7998,-3.8496,-3.8065,-3.7769,-3.7478,-3.711,-3.667,-3.6725,-3.6872,-3.6927,-3.6964,-3.6901,-3.7313,-3.8432,-3.8567,-3.9128,-4.0051,-4.0377,-4.0412,-4.045,-4.0489,-4.0489,-4.0489,-4.0489,-4.0489,-4.0489,-4.0473,-4.0457,-4.0489,-4.0473,-4.0422,-4.0489,-4.0489,-4.0489,-4.0438,-4.0389,-4.0004,-3.9668,-3.9339,-3.9063,-3.8815,-3.8707,-3.8707,-3.8707,-3.8707,-3.8707,-3.8707,-3.8707,-3.8707,-3.8707,-3.8707,-3.8707,-3.8707,-3.8487,-3.8198,-3.7931,-3.7303,-3.6634,-3.5922,-3.5354,-3.4787,-3.4218,-3.3979,-3.4171,-3.3988,-3.3615,-3.3413,-4.849,-4.7086,-4.6951,-4.6394,-4.5663,-4.5586,-4.5419,-4.5182,-4.5457,-4.54,-4.5161,-4.5457,-4.5419,-4.5159,-4.5074,-4.5052,-4.518,-4.54,-4.54,-4.503,-4.4943,-4.4587,-4.3986,-4.3849,-4.374,-4.3529,-4.3479,-4.3479,-4.3479,-4.3479,-4.3479,-4.3479,-4.3479,-4.3375,-4.3232,-4.2869,-4.2304,-4.1705,-4.0601,-3.9842,-3.9067,-3.8025,-3.7433,-3.7614,-3.7755,-3.8099,-3.8318,-3.7861,-3.7542,-3.7911,-3.756,-3.7578,-3.7827,-3.8021,-3.8108,-3.8083,-3.8065,-3.7991,-3.8028,-3.8175,-3.8467,-3.8943,-3.915,-3.9467,-4.0062,-4.0372,-4.0473,-4.0489,-4.0489,-4.0489,-4.0489,-4.0489,-4.0489,-4.0457,-4.0319,-4.025,-4.0353,-4.0339,-4.0267,-4.0406,-4.0457,-4.0489,-4.0457,-4.0319,-4.0024,-3.9712,-3.9414,-3.9082,-3.8773,-3.8707,-3.8707,-3.8707,-3.8707,-3.8707,-3.8707,-3.8707,-3.8707,-3.8707,-3.8707,-3.8707,-3.8707,-3.8707,-3.8493,-3.8243,-3.794,-3.7395,-3.6628,-3.5909,-3.5302,-3.4806,-3.4447,-3.4037,-3.378,-3.3506,-3.3015,-4.7644,-4.6874,-4.6432,-4.599,-4.5624,-4.5586,-4.5419,-4.518,-4.5438,-4.5419,-4.5282,-4.5419,-4.5419,-4.518,-4.5115,-4.5115,-4.518,-4.5438,-4.54,-4.5159,-4.5074,-4.4732,-4.4106,-4.4046,-4.3786,-4.3579,-4.3479,-4.3479,-4.3479,-4.3479,-4.3479,-4.3479,-4.3479,-4.3479,-4.3444,-4.3249,-4.2905,-4.2304,-4.1434,-4.0456,-3.9572,-3.8167,-3.7356,-3.7542,-3.7614,-3.7808,-3.805,-3.7632,-3.7433,-3.772,-3.747,-3.7667,-3.8117,-3.8496,-3.8707,-3.8707,-3.8707,-3.8707,-3.8707,-3.8689,-3.8807,-3.908,-3.9416,-3.9745,-4.0062,-4.0339,-4.0489,-4.0489,-4.0489,-4.0489,-4.0489,-4.0489,-4.0422,-4.0285,-4.0158,-4.0081,-4.0062,-4.0062,-4.0177,-4.0285,-4.0389,-4.0457,-4.0473,-4.0302,-4.0043,-3.9778,-3.9486,-3.9136,-3.8762,-3.8689,-3.8707,-3.8707,-3.8707,-3.8707,-3.8707,-3.8707,-3.8707,-3.8707,-3.8707,-3.8707,-3.8707,-3.8707,-3.8707,-3.8573,-3.823,-3.79,-3.7422,-3.6754,-3.6076,-3.541,-3.4934,-3.4403,-3.3839,-3.336,-3.2891,-4.6817,-4.6586,-4.5874,-4.5586,-4.5586,-4.5586,-4.5419,-4.5201,-4.5381,-4.5342,-4.5161,-4.5342,-4.5342,-4.5159,-4.5115,-4.5115,-4.5137,-4.5438,-4.5438,-4.5283,-4.5222,-4.4853,-4.4401,-4.4106,-4.3974,-4.3712,-4.3513,-4.3479,-4.3479,-4.3479,-4.3479,-4.3479,-4.3479,-4.3479,-4.3479,-4.3444,-4.3479,-4.3118,-4.2339,-4.1216,-3.9837,-3.8323,-3.7299,-3.7651,-3.7747,-3.8061,-3.8238,-3.799,-3.7667,-3.7685,-3.7578,-3.7703,-3.8382,-3.8627,-3.8707,-3.8707,-3.8707,-3.8707,-3.8707,-3.8707,-3.8833,-3.9099,-3.9432,-3.9754,-4.0062,-4.0321,-4.0489,-4.0489,-4.0425,-4.0389,-4.0372,-4.0336,-4.0194,-4.0043,-3.9922,-3.984,-3.9797,-3.9797,-3.9922,-4.0062,-4.0285,-4.0377,-4.0436,-4.0372,-4.0119,-3.9649,-3.9364,-3.9163,-3.8833,-3.8719,-3.8707,-3.8707,-3.8707,-3.8707,-3.8707,-3.8707,-3.8707,-3.8707,-3.8707,-3.8707,-3.8707,-3.8707,-3.8676,-3.8658,-3.8652,-3.8303,-3.7918,-3.7424,-3.6607,-3.5895,-3.5339,-3.4787,-3.4261,-3.3573,-3.2913,-4.6451,-4.574,-4.5643,-4.5586,-4.5586,-4.5586,-4.54,-4.5137,-4.5118,-4.514,-4.5052,-4.5159,-4.5161,-4.514,-4.5118,-4.5118,-4.5222,-4.5419,-4.5549,-4.5457,-4.5457,-4.5243,-4.4919,-4.4657,-4.4223,-4.3836,-4.3597,-4.3513,-4.3479,-4.3479,-4.3479,-4.3479,-4.3479,-4.3479,-4.3479,-4.3479,-4.3479,-4.3351,-4.2622,-4.1397,-4.0027,-3.9672,-3.9435,-3.9358,-3.9457,-3.9409,-3.8977,-3.8726,-3.8456,-3.741,-3.7703,-3.7843,-3.8065,-3.8465,-3.8658,-3.8707,-3.8707,-3.8707,-3.8707,-3.8732,-3.8815,-3.9117,-3.9432,-3.9754,-4.0043,-4.0283,-4.045,-4.0489,-4.0321,-4.0253,-4.0234,-3.9979,-3.9772,-3.9675,-3.965,-3.9575,-3.9519,-3.9868,-3.9924,-4.0132,-4.0437,-4.0404,-4.0366,-4.031,-4.0193,-3.9675,-3.9301,-3.9184,-3.9069,-3.9093,-3.8964,-3.9019,-3.8762,-3.8707,-3.8707,-3.8707,-3.8762,-3.8744,-3.8596,-3.8596,-3.8515,-3.8465,-3.8578,-3.8578,-3.8627,-3.8578,-3.8186,-3.764,-3.6946,-3.6312,-3.5657,-3.5184,-3.4764,-3.3952,-3.3084,-4.5932,-4.5586,-4.5586,-4.5586,-4.5568,-4.5381,-4.5118,-4.4853,-4.4806,-4.4825,-4.4872,-4.5011,-4.5201,-4.5322,-4.54,-4.5381,-4.5419,-4.5531,-4.5586,-4.5586,-4.5549,-4.5323,-4.4853,-4.4631,-4.4337,-4.3868,-4.3597,-4.3513,-4.3479,-4.3479,-4.3479,-4.3479,-4.3479,-4.3479,-4.3479,-4.3479,-4.3479,-4.3259,-4.2693,-4.1775,-4.087,-4.0417,-4.0202,-3.9978,-4.0238,-3.993,-3.9586,-3.9662,-3.8935,-3.7909,-3.8075,-3.8326,-3.814,-3.8364,-3.8707,-3.8707,-3.8707,-3.8707,-3.8719,-3.8844,-3.8943,-3.9125,-3.9432,-3.9735,-4.0024,-4.017,-4.0274,-4.0267,-4.0177,-4.0193,-4.0407,-4.0386,-4.0177,-4.0026,-3.9842,-3.95,-3.9554,-3.9892,-4.0139,-4.0359,-4.0589,-4.0637,-4.0684,-4.0696,-4.0624,-4.0221,-4.0188,-4.0354,-4.0148,-3.9963,-3.9735,-3.9478,-3.9093,-3.8707,-3.8707,-3.8707,-3.8836,-3.8755,-3.8322,-3.8271,-3.8201,-3.8183,-3.8267,-3.8382,-3.8496,-3.8415,-3.8263,-3.783,-3.7162,-3.6542,-3.5948,-3.55,-3.5127,-3.4434,-3.3592,-4.5457,-4.5476,-4.5457,-4.5476,-4.5438,-4.5137,-4.483,-4.4606,-4.4501,-4.4501,-4.4701,-4.4943,-4.5243,-4.5438,-4.5532,-4.5568,-4.5586,-4.5586,-4.5586,-4.5586,-4.5531,-4.5342,-4.5011,-4.4732,-4.4355,-4.3744,-4.3597,-4.3513,-4.3479,-4.3479,-4.3479,-4.3479,-4.3479,-4.3479,-4.3479,-4.3479,-4.3479,-4.3424,-4.2965,-4.2356,-4.1777,-4.1232,-4.107,-4.0888,-4.0741,-4.0405,-3.9971,-4.0092,-3.9425,-3.8403,-3.8821,-3.9013,-3.8504,-3.8802,-3.8896,-3.8817,-3.8707,-3.8707,-3.8732,-3.8844,-3.9036,-3.9257,-3.9408,-3.969,-3.9863,-3.9966,-3.9964,-3.9963,-4.0119,-4.0325,-4.0597,-4.0708,-4.0719,-4.0578,-4.0463,-3.9933,-3.9651,-4.0232,-4.0588,-4.07,-4.0952,-4.125,-4.1287,-4.1249,-4.1082,-4.0727,-4.0908,-4.1378,-4.1119,-4.0694,-4.0253,-3.9887,-3.9671,-3.9282,-3.9184,-3.9129,-3.9129,-3.8935,-3.8495,-3.8271,-3.8345,-3.8023,-3.7843,-3.8032,-3.8219,-3.7859,-3.7434,-3.7417,-3.7345,-3.6632,-3.6016,-3.5832,-3.5399,-3.4765,-3.4002,-4.5137,-4.5137,-4.5118,-4.5118,-4.5096,-4.4776,-4.4606,-4.4501,-4.4175,-4.4233,-4.4553,-4.4943,-4.5137,-4.5222,-4.5476,-4.5586,-4.5586,-4.5586,-4.5586,-4.5586,-4.5586,-4.5495,-4.5161,-4.4806,-4.4519,-4.4252,-4.3791,-4.3513,-4.3479,-4.3479,-4.3479,-4.3479,-4.3479,-4.3479,-4.3479,-4.3479,-4.3479,-4.3479,-4.3259,-4.2995,-4.2629,-4.235,-4.2314,-4.2178,-4.1899,-4.1357,-4.0648,-4.0654,-4.001,-3.8651,-3.9526,-3.9643,-3.9103,-3.9513,-3.9538,-3.9258,-3.9111,-3.9142,-3.9197,-3.9121,-3.911,-3.9414,-3.9656,-3.9788,-4.0056,-3.9811,-3.9698,-3.9939,-4.034,-4.0491,-4.0644,-4.0755,-4.1145,-4.1138,-4.1064,-4.078,-4.0633,-4.0966,-4.123,-4.1156,-4.1427,-4.1884,-4.2032,-4.2075,-4.1705,-4.1366,-4.1632,-4.2068,-4.1515,-4.1074,-4.0559,-4.0211,-4.0229,-4.0061,-3.9974,-3.9974,-4.0056,-3.9735,-3.9263,-3.8995,-3.887,-3.833,-3.719,-3.7539,-3.7666,-3.7132,-3.6794,-3.7002,-3.696,-3.6522,-3.6104,-3.5838,-3.558,-3.5098,-3.4298,-4.4966,-4.4757,-4.4516,-4.4561,-4.4757,-4.4373,-4.4233,-4.4165,-4.3849,-4.3881,-4.4261,-4.4806,-4.5115,-4.5201,-4.5438,-4.5586,-4.5586,-4.5586,-4.5586,-4.5586,-4.5586,-4.5362,-4.5033,-4.4732,-4.4364,-4.4004,-4.3631,-4.3479,-4.3479,-4.3479,-4.3479,-4.3479,-4.3479,-4.3479,-4.3479,-4.3479,-4.3479,-4.3479,-4.3444,-4.3214,-4.2826,-4.2655,-4.2519,-4.2121,-4.2021,-4.1472,-4.0981,-4.118,-4.0306,-3.9676,-4.0281,-4.006,-3.9693,-4.0231,-4.0349,-4.0102,-4.0029,-4.0105,-4.017,-3.9997,-4.0021,-4.0512,-4.0434,-4.0207,-4.0607,-4.0766,-4.0831,-4.0915,-4.0924,-4.1089,-4.1557,-4.1724,-4.186,-4.1791,-4.168,-4.1515,-4.1544,-4.1828,-4.1939,-4.1889,-4.2349,-4.2842,-4.2901,-4.2923,-4.243,-4.2062,-4.2386,-4.2533,-4.1953,-4.1503,-4.1045,-4.0842,-4.0862,-4.0815,-4.073,-4.0844,-4.0998,-4.0544,-4.004,-3.9582,-3.9046,-3.7161,-3.6318,-3.6789,-3.7233,-3.6986,-3.6853,-3.68,-3.6585,-3.6114,-3.5898,-3.5732,-3.553,-3.5352,-3.4738,-4.4638,-4.4392,-4.4035,-4.4076,-4.4346,-4.4016,-4.3868,-4.3804,-4.3631,-4.3631,-4.3893,-4.4489,-4.4853,-4.5011,-4.5302,-4.5513,-4.5549,-4.5586,-4.5586,-4.5586,-4.5531,-4.5243,-4.4877,-4.458,-4.4327,-4.3758,-4.3513,-4.3479,-4.3479,-4.3479,-4.3479,-4.3479,-4.3479,-4.3479,-4.3479,-4.3479,-4.3479,-4.3479,-4.3286,-4.3124,-4.2693,-4.2279,-4.2203,-4.1682,-4.1464,-4.1178,-4.088,-4.092,-4.0521,-4.0176,-4.0421,-4.0758,-4.0623,-4.0673,-4.1214,-4.1222,-4.1162,-4.1285,-4.1349,-4.1315,-4.1045,-4.1278,-4.1203,-4.1196,-4.1455,-4.1619,-4.1366,-4.1322,-4.1556,-4.1983,-4.2359,-4.2433,-4.2616,-4.2616,-4.258,-4.2433,-4.2341,-4.2478,-4.2607,-4.2687,-4.3091,-4.3293,-4.3171,-4.3065,-4.2722,-4.2483,-4.2837,-4.272,-4.208,-4.1755,-4.1615,-4.1542,-4.1614,-4.1553,-4.1486,-4.1834,-4.2022,-4.1433,-4.0841,-3.9852,-3.8884,-3.7148,-3.6243,-3.685,-3.7111,-3.6938,-3.6654,-3.6319,-3.6036,-3.5739,-3.5667,-3.5605,-3.5582,-3.5443,-3.5416,-4.4028,-4.3986,-4.3679,-4.3726,-4.3986,-4.3679,-4.3513,-4.3563,-4.3513,-4.3513,-4.3579,-4.3955,-4.4346,-4.4657,-4.5052,-4.5342,-4.5549,-4.5586,-4.5586,-4.5586,-4.5586,-4.5362,-4.5033,-4.4701,-4.4308,-4.3986,-4.366,-4.3479,-4.3479,-4.3479,-4.3479,-4.3479,-4.3479,-4.3479,-4.3479,-4.3479,-4.3479,-4.341,-4.2976,-4.277,-4.2302,-4.1656,-4.1464,-4.1286,-4.0814,-4.0546,-4.0672,-4.0546,-4.0234,-4.018,-4.1041,-4.1226,-4.0872,-4.1706,-4.1925,-4.1479,-4.1368,-4.1414,-4.1622,-4.1879,-4.204,-4.195,-4.1946,-4.1938,-4.1762,-4.1693,-4.1754,-4.1899,-4.2036,-4.2279,-4.2598,-4.291,-4.3185,-4.3277,-4.3185,-4.313,-4.302,-4.2965,-4.3039,-4.3075,-4.3277,-4.3461,-4.3267,-4.3105,-4.281,-4.283,-4.3195,-4.2941,-4.2257,-4.2095,-4.2047,-4.2067,-4.214,-4.2285,-4.2368,-4.2931,-4.2993,-4.239,-4.1614,-4.0634,-3.971,-3.8567,-3.7891,-3.7505,-3.7308,-3.7319,-3.6508,-3.569,-3.5571,-3.5434,-3.5577,-3.5605,-3.5588,-3.5571,-3.552,-4.3881,-4.3679,-4.3548,-4.3582,-4.3646,-4.3548,-4.3479,-4.3479,-4.3479,-4.3479,-4.3563,-4.3868,-4.4204,-4.4587,-4.4943,-4.5263,-4.5531,-4.5586,-4.5586,-4.5586,-4.5568,-4.5222,-4.4896,-4.458,-4.4252,-4.3772,-4.3513,-4.3479,-4.3479,-4.3479,-4.3479,-4.3479,-4.3479,-4.3479,-4.3479,-4.3444,-4.3375,-4.3014,-4.2675,-4.2324,-4.1578,-4.115,-4.0844,-4.0767,-4.0303,-4.0254,-4.0417,-4.0154,-4.0121,-4.0303,-4.1241,-4.1591,-4.1594,-4.2431,-4.2858,-4.2653,-4.2653,-4.2739,-4.2945,-4.3144,-4.3295,-4.3081,-4.279,-4.2744,-4.2791,-4.2842,-4.2797,-4.2653,-4.2763,-4.2983,-4.324,-4.3277,-4.3424,-4.3424,-4.3387,-4.3387,-4.3332,-4.3351,-4.3387,-4.3369,-4.3479,-4.3391,-4.3232,-4.305,-4.2788,-4.2616,-4.2884,-4.2939,-4.2386,-4.2454,-4.2472,-4.2456,-4.2551,-4.285,-4.3158,-4.3266,-4.3105,-4.2474,-4.1925,-4.1339,-4.044,-3.9529,-3.9047,-3.8393,-3.8055,-3.7699,-3.7013,-3.6316,-3.5485,-3.5207,-3.5295,-3.5379,-3.5436,-3.5498,-3.5605,-4.3693,-4.3513,-4.3479,-4.3479,-4.3479,-4.3479,-4.3479,-4.3479,-4.3479,-4.3479,-4.3529,-4.3758,-4.4106,-4.4527,-4.483,-4.5222,-4.5568,-4.5586,-4.5457,-4.5457,-4.5419,-4.4969,-4.4587,-4.4364,-4.4035,-4.3612,-4.3479,-4.3479,-4.3479,-4.3479,-4.3479,-4.3479,-4.3479,-4.3479,-4.3444,-4.3286,-4.3069,-4.2637,-4.2284,-4.1664,-4.1087,-4.0703,-4.0466,-4.0254,-4.0087,-4.0121,-4.0121,-4.0121,-4.0204,-4.0594,-4.115,-4.1895,-4.2324,-4.2865,-4.3444,-4.3497,-4.3612,-4.359,-4.3712,-4.3983,-4.3998,-4.3823,-4.3536,-4.3521,-4.3643,-4.3575,-4.3458,-4.3424,-4.3497,-4.3479,-4.3461,-4.3479,-4.341,-4.341,-4.3444,-4.3444,-4.325,-4.325,-4.3321,-4.3321,-4.3141,-4.3105,-4.3014,-4.2958,-4.2693,-4.2616,-4.2537,-4.2498,-4.2519,-4.2729,-4.2763,-4.2688,-4.2675,-4.2812,-4.3014,-4.3142,-4.2884,-4.248,-4.1997,-4.149,-4.0758,-3.9812,-3.9561,-3.9343,-3.9037,-3.8548,-3.786,-3.7095,-3.586,-3.507,-3.4806,-3.4963,-3.5224,-3.5362,-3.5515,-4.3479,-4.3479,-4.3479,-4.3479,-4.3479,-4.3479,-4.3479,-4.3479,-4.3479,-4.3479,-4.3513,-4.3513,-4.3899,-4.4465,-4.4599,-4.4919,-4.5362,-4.5457,-4.5303,-4.514,-4.5077,-4.4587,-4.429,-4.4076,-4.3849,-4.3612,-4.3479,-4.3479,-4.3479,-4.3479,-4.3479,-4.3479,-4.3479,-4.3479,-4.3356,-4.2958,-4.2693,-4.2302,-4.1707,-4.1133,-4.0685,-4.0417,-4.0254,-4.0087,-4.0087,-4.0087,-4.0087,-4.0121,-4.0417,-4.0844,-4.1446,-4.208,-4.2637,-4.3214,-4.341,-4.3563,-4.3786,-4.3849,-4.3955,-4.428,-4.4252,-4.4046,-4.4186,-4.4214,-4.4023,-4.3778,-4.3676,-4.3534,-4.3479,-4.3479,-4.3479,-4.3375,-4.3286,-4.3286,-4.3339,-4.3178,-4.2921,-4.2921,-4.2995,-4.2922,-4.2605,-4.2433,-4.2248,-4.2203,-4.2342,-4.248,-4.2342,-4.218,-4.2346,-4.2905,-4.2868,-4.2598,-4.2641,-4.2701,-4.2794,-4.2701,-4.258,-4.2121,-4.181,-4.1313,-4.059,-4.0086,-3.9716,-3.9564,-3.9783,-3.9177,-3.7585,-3.6569,-3.5858,-3.5181,-3.4607,-3.4332,-3.4546,-3.5115,-3.5316,-4.3479,-4.3479,-4.3479,-4.3479,-4.3479,-4.3479,-4.3479,-4.3479,-4.3479,-4.3479,-4.3479,-4.3479,-4.3772,-4.4146,-4.4194,-4.4508,-4.4757,-4.4877,-4.4849,-4.4776,-4.4732,-4.4401,-4.4165,-4.3955,-4.3772,-4.3597,-4.3479,-4.3479,-4.3479,-4.3479,-4.3479,-4.3479,-4.3479,-4.3479,-4.316,-4.2541,-4.2244,-4.1853,-4.1223,-4.0797,-4.0449,-4.0204,-4.0087,-4.0087,-4.0087,-4.0087,-4.0087,-4.0087,-4.0417,-4.092,-4.149,-4.208,-4.2655,-4.3178,-4.3479,-4.3497,-4.3631,-4.3726,-4.3943,-4.3899,-4.3868,-4.3912,-4.3943,-4.3758,-4.3649,-4.3671,-4.3642,-4.3534,-4.3479,-4.3479,-4.3479,-4.341,-4.3124,-4.2921,-4.3014,-4.3014,-4.2752,-4.2544,-4.2621,-4.2426,-4.2114,-4.189,-4.1707,-4.1621,-4.181,-4.208,-4.2203,-4.2038,-4.2068,-4.2647,-4.2777,-4.249,-4.2311,-4.2297,-4.2063,-4.193,-4.1943,-4.1853,-4.149,-4.1178,-4.075,-4.0235,-3.9868,-3.9456,-3.911,-3.7953,-3.6432,-3.5873,-3.5873,-3.4947,-3.4287,-3.4026,-3.3928,-3.4448,-3.4864,-4.3479,-4.3479,-4.3479,-4.3479,-4.3479,-4.3479,-4.3479,-4.3479,-4.3479,-4.3479,-4.3479,-4.3479,-4.366,-4.3986,-4.4028,-4.4233,-4.4606,-4.4657,-4.4599,-4.4373,-4.4364,-4.4106,-4.3912,-4.3804,-4.3679,-4.3548,-4.3479,-4.3479,-4.3479,-4.3479,-4.3479,-4.3479,-4.3479,-4.3321,-4.2958,-4.2324,-4.1768,-4.1375,-4.0891,-4.0466,-4.0254,-4.0087,-4.0087,-4.0087,-4.0087,-4.0087,-4.0087,-4.0087,-4.0417,-4.092,-4.149,-4.208,-4.2637,-4.3178,-4.3479,-4.3497,-4.3513,-4.3631,-4.3726,-4.3612,-4.3679,-4.3712,-4.3612,-4.3563,-4.3513,-4.3532,-4.3516,-4.3479,-4.3479,-4.3479,-4.3479,-4.3391,-4.2903,-4.2422,-4.2637,-4.2884,-4.26,-4.2253,-4.2091,-4.1919,-4.1707,-4.1516,-4.1358,-4.1223,-4.1446,-4.2062,-4.2302,-4.2121,-4.2103,-4.2275,-4.2358,-4.2132,-4.1902,-4.1757,-4.151,-4.1308,-4.1341,-4.1358,-4.1223,-4.0903,-4.0655,-4.0169,-3.9542,-3.8761,-3.8076,-3.7198,-3.6557,-3.6301,-3.6063,-3.5189,-3.4415,-3.392,-3.3754,-3.3774,-3.4101,-4.3479,-4.3479,-4.3479,-4.3479,-4.3479,-4.3479,-4.3479,-4.3479,-4.3479,-4.3479,-4.3479,-4.3479,-4.3646,-4.3849,-4.3893,-4.4046,-4.4252,-4.4327,-4.4194,-4.3955,-4.3955,-4.3804,-4.3646,-4.3479,-4.3529,-4.3513,-4.3479,-4.3479,-4.3479,-4.3479,-4.3479,-4.3479,-4.3375,-4.3178,-4.277,-4.1979,-4.1402,-4.1041,-4.0577,-4.0171,-4.0171,-4.0087,-4.0087,-4.0087,-4.0087,-4.0087,-4.0087,-4.0204,-4.0368,-4.092,-4.1402,-4.1937,-4.2637,-4.3178,-4.341,-4.3479,-4.3479,-4.3579,-4.3612,-4.3563,-4.3563,-4.3563,-4.3513,-4.3479,-4.3479,-4.3479,-4.3479,-4.3646,-4.366,-4.3679,-4.3679,-4.3594,-4.323,-4.2792,-4.277,-4.277,-4.2541,-4.2109,-4.169,-4.142,-4.1013,-4.0891,-4.0891,-4.0767,-4.1013,-4.1895,-4.2103,-4.1895,-4.1919,-4.1967,-4.1878,-4.1729,-4.1525,-4.1305,-4.1121,-4.0971,-4.0828,-4.0827,-4.078,-4.0655,-4.0385,-3.98,-3.9102,-3.8019,-3.6995,-3.7557,-3.7313,-3.6668,-3.6119,-3.5896,-3.5034,-3.4109,-3.3743,-3.3654,-3.3419,-4.3479,-4.3479,-4.3479,-4.3479,-4.3479,-4.3479,-4.3479,-4.3479,-4.3479,-4.3479,-4.3479,-4.3479,-4.3548,-4.3646,-4.366,-4.3758,-4.3791,-4.3899,-4.3726,-4.366,-4.3646,-4.3646,-4.3513,-4.3479,-4.3479,-4.3479,-4.3479,-4.3479,-4.3479,-4.3479,-4.3479,-4.3444,-4.3214,-4.2826,-4.2559,-4.1725,-4.1087,-4.078,-4.0417,-4.0121,-4.0087,-4.0087,-4.0087,-4.0087,-4.0087,-4.0087,-4.0087,-4.0121,-4.04,-4.0856,-4.0995,-4.1664,-4.2616,-4.3214,-4.3444,-4.3479,-4.3479,-4.3579,-4.366,-4.3612,-4.3597,-4.3679,-4.3646,-4.3529,-4.3479,-4.3479,-4.3563,-4.374,-4.3849,-4.3849,-4.3836,-4.3721,-4.3539,-4.3177,-4.2846,-4.2637,-4.2422,-4.1913,-4.1331,-4.0861,-4.0417,-4.0385,-4.0385,-4.0563,-4.0814,-4.1013,-4.1178,-4.1178,-4.1313,-4.1394,-4.1286,-4.1174,-4.1101,-4.0937,-4.0758,-4.0607,-4.0525,-4.04,-4.0417,-4.0254,-4.0138,-3.9401,-3.8596,-3.6935,-3.6022,-3.6753,-3.6919,-3.6182,-3.5736,-3.5931,-3.5696,-3.4742,-3.409,-3.3937,-3.3398,-4.3479,-4.3479,-4.3479,-4.3479,-4.3479,-4.3479,-4.3479,-4.3479,-4.3479,-4.3356,-4.3214,-4.3375,-4.3479,-4.3479,-4.3479,-4.3479,-4.3479,-4.3513,-4.3529,-4.3513,-4.3479,-4.3513,-4.3479,-4.3479,-4.3479,-4.3479,-4.3479,-4.3479,-4.3479,-4.3479,-4.3479,-4.341,-4.2976,-4.2537,-4.2262,-4.1402,-4.0733,-4.0528,-4.0254,-4.0121,-4.0087,-4.0087,-4.0087,-4.0087,-4.0087,-4.0087,-4.0087,-4.007,-4.0237,-4.0703,-4.1013,-4.175,-4.2598,-4.3214,-4.3444,-4.3479,-4.3513,-4.3563,-4.3679,-4.3679,-4.3597,-4.3679,-4.3679,-4.3479,-4.3479,-4.3479,-4.3513,-4.3679,-4.3893,-4.3924,-4.3804,-4.3675,-4.3387,-4.3051,-4.2752,-4.2501,-4.2162,-4.1664,-4.1076,-4.0466,-4.0204,-4.0204,-4.0204,-4.0254,-4.0546,-4.1013,-4.0995,-4.1178,-4.1178,-4.1059,-4.0899,-4.0732,-4.0671,-4.0556,-4.0394,-4.0283,-4.022,-4.0121,-4.0087,-4.0138,-4.002,-3.9049,-3.7962,-3.6768,-3.607,-3.6228,-3.6165,-3.5782,-3.5913,-3.6259,-3.5891,-3.5339,-3.4805,-3.4227,-3.3803,-4.3444,-4.341,-4.3375,-4.3375,-4.341,-4.341,-4.3444,-4.3479,-4.3479,-4.3214,-4.2808,-4.3178,-4.3375,-4.341,-4.3479,-4.3479,-4.3479,-4.3479,-4.3479,-4.3479,-4.3479,-4.3479,-4.3479,-4.3479,-4.3479,-4.3479,-4.3479,-4.3479,-4.3479,-4.3479,-4.3444,-4.3356,-4.2884,-4.2302,-4.1768,-4.115,-4.0594,-4.0286,-4.0121,-4.0121,-4.0087,-4.0087,-4.0087,-4.0087,-4.0087,-4.0087,-4.0087,-4.007,-4.0121,-4.0497,-4.1122,-4.1955,-4.2598,-4.3178,-4.341,-4.3479,-4.3479,-4.3529,-4.3612,-4.3597,-4.3563,-4.3563,-4.3513,-4.3479,-4.3479,-4.3479,-4.3513,-4.3693,-4.3924,-4.4016,-4.3881,-4.3772,-4.3437,-4.2977,-4.2696,-4.2324,-4.1877,-4.1446,-4.0797,-4.0171,-4.007,-4.007,-4.0087,-4.0087,-4.0319,-4.0827,-4.1178,-4.1402,-4.149,-4.1213,-4.0954,-4.0689,-4.0463,-4.0303,-4.0137,-4.0087,-4.0087,-4.0087,-4.0087,-4.0087,-3.9901,-3.9102,-3.8246,-3.7219,-3.6692,-3.6384,-3.6212,-3.6006,-3.6229,-3.6292,-3.5966,-3.5437,-3.5208,-3.4658,-3.44,-4.325,-4.2846,-4.2864,-4.2864,-4.2864,-4.2864,-4.3105,-4.3444,-4.3444,-4.3214,-4.277,-4.2732,-4.2864,-4.2864,-4.3339,-4.3444,-4.3375,-4.3444,-4.3479,-4.3479,-4.3479,-4.3479,-4.3479,-4.3479,-4.3479,-4.3479,-4.3479,-4.3479,-4.3479,-4.3479,-4.3479,-4.3444,-4.2386,-4.1937,-4.1707,-4.1013,-4.0254,-4.0087,-4.0087,-4.0087,-4.0087,-4.0087,-4.0087,-4.0087,-4.0087,-4.0087,-4.0087,-4.0087,-4.007,-4.0417,-4.1168,-4.1997,-4.2637,-4.3178,-4.341,-4.3479,-4.3479,-4.3597,-4.3612,-4.3563,-4.3563,-4.3726,-4.3646,-4.3479,-4.3479,-4.3479,-4.3612,-4.3881,-4.4117,-4.429,-4.4252,-4.4252,-4.4009,-4.3353,-4.2921,-4.2324,-4.1793,-4.1313,-4.0767,-4.0269,-4.0003,-4.002,-4.0087,-4.007,-4.0003,-4.048,-4.0827,-4.1059,-4.0797,-4.0861,-4.0972,-4.0645,-4.0289,-4.0222,-4.0121,-4.0104,-4.0087,-4.0087,-4.007,-3.9952,-3.9782,-3.9332,-3.8469,-3.7515,-3.6814,-3.6337,-3.6228,-3.5943,-3.5816,-3.5849,-3.5703,-3.5449,-3.528,-3.516,-3.4906]},{"header":{"parameterUnit":"m.s-1","parameterCategory":1,"la1":31.0,"la2":29.5877,"lo1":-88.7671,"lo2":-86.6584,"dy":0.0162,"dx":0.0185,"nx":115,"ny":88,"refTime":"2024-05-22T00:00:00:Z","depth":0,"parameterNumber":3,"parameterNumberName":"V-component_of_WINDS"},"data":[0.0,0.0,0.0,0.0,0.0,0.0,0.0,0.0,0.0,0.0,0.0,0.0,0.0,0.0,0.0,0.0,0.0,0.0,0.0,0.0,0.0,0.0,0.0,0.0,0.0,0.0,0.0,0.0,0.0,0.0,0.0,0.0,0.0,0.0,0.0,0.0,0.0,0.0,0.0,0.0,0.0,0.0,0.0,0.0,0.0,0.0,0.0,0.0,0.0,0.0,0.0,0.0,0.0,0.0,0.0,0.0,0.0,0.0,0.0,0.0,0.0,0.0,0.0,0.0,0.0,0.0,0.0,0.0,0.0,0.0,0.0,0.0,0.0,0.0,0.0,0.0,0.0,0.0,0.0,0.0,0.0,0.0,0.0,0.0,0.0,0.0,0.0,0.0,0.0,0.0,0.0,0.0,0.0,0.0,0.0,0.0,0.0,0.0,0.0,0.0,0.0,0.0,0.0,0.0,0.0,0.0,0.0,0.0,0.0,0.0,0.0,0.0,0.0,0.0,0.0,0.0,0.0,0.0,0.0,0.0,0.0,0.0,0.0,0.0,0.0,0.0,0.0,0.0,0.0,0.0,0.0,0.0,0.0,0.0,0.0,0.0,0.0,0.0,0.0,0.0,0.0,0.0,0.0,0.0,0.0,0.0,0.0,0.0,0.0,0.0,0.0,0.0,0.0,0.0,0.0,0.0,0.0,0.0,0.0,0.0,0.0,0.0,0.0,0.0,0.0,0.0,0.0,0.0,0.0,0.0,0.0,0.0,0.0,0.0,0.0,0.0,0.0,0.0,0.0,0.0,0.0,0.0,0.0,0.0,0.0,0.0,0.0,0.0,0.0,0.0,0.0,0.0,0.0,0.0,0.0,0.0,0.0,0.0,0.0,0.0,0.0,0.0,0.0,0.0,0.0,0.0,0.0,0.0,0.0,0.0,0.0,0.0,0.0,0.0,0.0,0.0,0.0,0.0,0.0,0.0,0.0,0.0,0.0,0.0,0.0,0.0,0.0,0.0,0.0,0.0,0.0,0.0,0.0,0.0,0.0,0.0,0.0,0.0,0.0,0.0,0.0,0.0,0.0,0.0,0.0,0.0,0.0,0.0,0.0,0.0,0.0,0.0,0.0,0.0,0.0,0.0,0.0,0.0,0.0,0.0,0.0,0.0,0.0,0.0,0.0,0.0,0.0,0.0,0.0,0.0,0.0,0.0,0.0,0.0,0.0,0.0,0.0,0.0,0.0,0.0,0.0,0.0,0.0,0.0,0.0,0.0,0.0,0.0,0.0,0.0,0.0,0.0,0.0,0.0,0.0,0.0,0.0,0.0,0.0,0.0,0.0,0.0,0.0,0.0,0.0,0.0,0.0,0.0,0.0,0.0,0.0,0.0,0.0,0.0,0.0,0.0,0.0,0.0,0.0,0.0,0.0,0.0,0.0,0.0,0.0,0.0,0.0,0.0,0.0,0.0,0.0,0.0,0.0,0.0,0.0,0.0,0.0,0.0,0.0,0.0,0.0,0.0,0.0,0.0,0.0,0.0,0.0,0.0,0.0,0.0,0.0,0.0,0.0,0.0,0.0,0.0,0.0,0.0,0.0,0.0,0.0,0.0,0.0,0.0,0.0,0.0,0.0,0.0,0.0,0.0,0.0,0.0,0.0,0.0,0.0,0.0,0.0,0.0,0.0,0.0,0.0,0.0,0.0,0.0,0.0,0.0,0.0,0.0,0.0,0.0,0.0,0.0,0.0,0.0,0.0,0.0,0.0,0.0,0.0,0.0,0.0,0.0,0.0,0.0,0.0,0.0,0.0,0.0,0.0,0.0,0.0,0.0,0.0,0.0,0.0,0.0,0.0,0.0,0.0,0.0,0.0,0.0,0.0,0.0,0.0,0.0,0.0,0.0,0.0,0.0,0.0,0.0,0.0,0.0,0.0,0.0,0.0,0.0,0.0,0.0,0.0,0.0,0.0,0.0,0.0,0.0,0.0,0.0,0.0,0.0,0.0,0.0,0.0,0.0,0.0,0.0,0.0,0.0,0.0,0.0,0.0,0.0,0.0,0.0,0.0,0.0,0.0,0.0,0.0,0.0,0.0,0.0,0.0,0.0,0.0,0.0,0.0,0.0,0.0,0.0,0.0,0.0,0.0,0.0,0.0,0.0,0.0,0.0,0.0,0.0,0.0,0.0,0.0,0.0,0.0,0.0,0.0,0.0,0.0,0.0,0.0,0.0,0.0,0.0,0.0,0.0,0.0,0.0,0.0,0.0,0.0,0.0,0.0,0.0,0.0,0.0,0.0,0.0,0.0,0.0,0.0,0.0,0.0,0.0,0.0,0.0,0.0,0.0,0.0,0.0,0.0,0.0,0.0,0.0,0.0,0.0,0.0,0.0,0.0,0.0,0.0,0.0,0.0,0.0,0.0,0.0,0.0,0.0,0.0,0.0,0.0,0.0,0.0,0.0,0.0,0.0,0.0,0.0,0.0,0.0,0.0,0.0,0.0,0.0,0.0,0.0,0.0,0.0,0.0,0.0,0.0,0.0,0.0,0.0,0.0,0.0,0.0,0.0,0.0,0.0,0.0,0.0,0.0,0.0,0.0,0.0,0.0,0.0,0.0,0.0,0.0,0.0,0.0,0.0,0.0,0.0,0.0,0.0,0.0,0.0,0.0,0.0,0.0,0.0,0.0,0.0,0.0,0.0,0.0,0.0,0.0,0.0,0.0,0.0,0.0,0.0,0.0,0.0,0.0,0.0,0.0,0.0,0.0,0.0,0.0,0.0,0.0,0.0,0.0,0.0,0.0,0.0,0.0,0.0,0.0,0.0,0.0,0.0,0.0,0.0,0.0,0.0,0.0,0.0,0.0,0.0,0.0,0.0,0.0,0.0,0.0,0.0,0.0,0.0,0.0,0.0,0.0,0.0,0.0,0.0,0.0,0.0,0.0,0.0,0.0,0.0,0.0,0.0,0.0,0.0,0.0,0.0,0.0,0.0,0.0,0.0,0.0,0.0,0.0,0.0,0.0,0.0,0.0,0.0,0.0,0.0,0.0,0.0,0.0,0.0,0.0,0.0,0.0,0.0,0.0,0.0,0.0,0.0,0.0,0.0,0.0,0.0,0.0,0.0,0.0,0.0,0.0,0.0,0.0,0.0,0.0,0.0,0.0,0.0,0.0,0.0,0.0,0.0,0.0,0.0,0.0,0.0,0.0,0.0,0.0,0.0,0.0,0.0,0.0,0.0,0.0,0.0,0.0,0.0,0.0,0.0,0.0,0.0,0.0,0.0,0.0,0.0,0.0,0.0,0.0,0.0,0.0,0.0,0.0,0.0,0.0,0.0,0.0,0.0,0.0,0.0,0.0,0.0,0.0,0.0,0.0,0.0,0.0,0.0,0.0,0.0,0.0,0.0,0.0,0.0,0.0,0.0,0.0,0.0,0.0,0.0,0.0,0.0,0.0,0.0,0.0,0.0,0.0,0.0,0.0,0.0,0.0,0.0,0.0,0.0,0.0,0.0,0.0,0.0,0.0,0.0,0.0,0.0,0.0,0.0,0.0,0.0,0.0,0.0,0.0,0.0,0.0,0.0,0.0,0.0,0.0,0.0,0.0,0.0,0.0,0.0,0.0,0.0,0.0,0.0,0.0,0.0,0.0,0.0,0.0,0.0,0.0,0.0,0.0,0.0,0.0,0.0,0.0,0.0,0.0,0.0,0.0,0.0,0.0,0.0,0.0,0.0,0.0,0.0,0.0,0.0,0.0,0.0,0.0,0.0,0.0,0.0,0.0,0.0,0.0,0.0,0.0,0.0,0.0,0.0,0.0,0.0,0.0,0.0,0.0,0.0,0.0,0.0,0.0,0.0,0.0,0.0,0.0,0.0,0.0,0.0,0.0,0.0,0.0,0.0,0.0,0.0,0.0,0.0,0.0,0.0,0.0,0.0,0.0,0.0,0.0,0.0,0.0,0.0,0.0,0.0,0.0,0.0,0.0,0.0,0.0,0.0,0.0,0.0,0.0,0.0,0.0,0.0,0.0,0.0,0.0,0.0,0.0,0.0,0.0,0.0,0.0,0.0,0.0,0.0,0.0,0.0,0.0,0.0,0.0,0.0,0.0,0.0,0.0,0.0,0.0,0.0,0.0,0.0,0.0,0.0,0.0,0.0,0.0,0.0,0.0,0.0,0.0,0.0,0.0,0.0,0.0,0.0,0.0,0.0,0.0,0.0,0.0,0.0,0.0,0.0,0.0,0.0,0.0,0.0,0.0,0.0,0.0,0.0,0.0,0.0,0.7724,0.0,0.0,0.0,0.0,0.0,0.0,0.0,0.0,0.0,0.0,0.0,0.0,0.0,0.0,0.0,0.0,0.0,0.0,0.0,0.0,0.0,0.0,0.0,0.0,0.0,0.0,0.0,0.0,0.0,0.0,0.0,0.0,0.0,0.0,0.0,0.0,0.0,0.0,0.0,0.0,0.0,0.0,0.0,0.0,0.0,0.0,0.0,0.0,0.0,0.0,0.0,0.0,0.0,0.0,0.0,0.0,0.0,0.0,0.0,0.0,0.0,0.0,0.0,0.0,0.0,0.0,0.0,0.0,0.0,0.0,0.0,0.0,0.0,0.0,0.0,0.0,0.0,0.0,0.0,0.0,0.0,0.0,0.0,0.0,0.0,0.0,0.0,0.0,0.0,0.0,0.0,0.0,0.0,0.0,0.0,0.0,0.0,0.0,0.0,0.0,0.0,0.0,0.0,0.0,0.0,0.0,0.0,0.0,0.0,0.0,0.7695,0.768,0.7782,0.7883,0.7966,0.0,0.0,0.0,0.0,0.0,0.0,0.0,0.0,0.0,0.0,0.0,0.0,0.0,0.0,0.0,0.0,0.0,0.0,0.0,0.0,0.0,0.0,0.0,0.0,0.0,0.0,0.0,0.0,0.0,0.0,0.0,0.0,0.0,0.0,0.0,0.0,0.0,0.0,0.0,0.0,0.0,0.0,0.0,0.0,0.0,0.0,0.0,0.0,0.0,0.0,0.0,0.0,0.0,0.0,0.0,0.0,0.0,0.0,0.0,0.0,0.0,0.0,0.0,0.0,0.0,0.0,0.0,0.0,0.0,0.0,0.0,0.0,0.0,0.0,0.0,0.0,0.0,0.0,0.0,0.0,0.0,0.0,0.0,0.0,0.0,0.0,0.0,0.0,0.0,0.0,0.0,0.0,0.0,0.0,0.0,0.0,0.0,0.0,0.0,0.0,0.0,0.0,0.0,0.0,0.0,0.0,0.0,0.0,0.0,0.0,0.0,0.0,0.8364,0.8469,0.8612,0.0,0.0,0.0,0.0,0.0,0.0,0.0,0.0,0.0,0.0,0.0,0.0,0.0,0.0,0.0,0.0,0.0,0.0,0.0,0.0,0.0,0.0,0.0,0.0,0.0,0.0,0.0,0.0,0.0,0.0,0.0,0.0,0.0,0.0,0.0,0.0,0.0,0.0,0.0,0.0,0.0,0.0,0.0,0.0,0.0,0.0,0.0,0.0,0.0,0.0,0.0,0.0,0.0,0.0,0.0,0.0,0.0,0.0,0.0,0.0,0.0,0.0,0.0,0.0,0.0,0.0,0.0,0.0,0.0,0.0,0.0,0.0,0.0,0.0,0.0,0.0,0.0,0.0,0.0,0.0,0.0,0.0,0.0,0.0,0.0,0.0,0.0,0.0,0.0,0.0,0.0,0.0,0.0,0.0,0.0,0.0,0.0,0.0,0.0,0.0,0.0,0.0,0.0,0.0,0.0,0.0,0.0,0.0,0.0,0.0,0.865,0.9849,0.9895,0.0,1.016,0.0,0.0,0.0,0.0,0.0,0.0,0.0,0.0,0.0,0.0,0.0,0.0,0.0,0.0,0.0,0.0,0.0,0.0,0.0,0.0,0.0,0.0,0.0,0.0,0.0,0.0,0.0,0.0,0.0,0.0,0.0,0.0,0.0,0.0,0.0,0.0,0.0,0.0,0.0,0.0,0.0,0.0,0.0,0.0,0.0,0.0,0.0,0.0,0.0,0.0,0.0,0.0,0.0,0.0,0.0,0.0,0.0,0.0,0.0,0.0,0.0,0.0,0.0,0.0,0.0,0.0,0.0,0.0,0.0,0.0,0.0,0.0,0.0,0.0,0.0,0.0,0.0,0.0,0.0,0.0,0.0,0.0,0.0,0.0,0.0,0.0,0.0,0.0,0.0,0.0,0.0,0.0,0.0,0.0,0.0,0.0,0.0,0.0,0.0,0.0,0.0,0.0,0.0,0.0,0.0,0.0,0.0,0.0,0.0,0.0,0.0,1.0382,1.0511,1.0559,0.0,0.0,0.0,0.0,0.0,0.0,0.0,0.0,0.0,0.0,0.0,0.0,0.0,0.0,0.0,0.0,0.0,0.0,0.0,0.0,0.0,0.0,0.0,0.0,0.0,0.0,0.0,0.0,0.0,0.0,0.0,0.0,0.0,0.0,0.0,0.0,0.0,0.0,0.0,0.0,0.0,0.0,0.0,0.0,0.0,0.0,0.0,0.0,0.0,0.0,0.0,0.0,0.0,0.0,0.0,0.0,0.0,0.0,0.0,0.0,0.0,0.0,0.0,0.0,0.0,0.0,0.0,0.0,0.0,0.0,0.0,0.0,0.0,0.0,0.0,0.0,0.0,0.0,0.0,0.0,0.0,0.0,0.0,0.0,0.0,0.0,0.0,0.0,0.0,0.0,0.0,0.0,0.0,0.0,0.0,0.0,0.0,0.0,0.0,0.0,0.0,0.0,0.0,0.0,0.0,0.0,0.0,0.0,0.0,0.0,1.0191,0.0,1.1123,1.099,1.0791,1.0589,0.0,0.0,0.0,0.0,0.0,0.0,0.0,0.0,0.0,0.0,0.0,0.0,0.0,0.0,0.0,0.0,0.0,0.0,0.0,0.0,0.0,0.0,0.0,0.0,0.0,0.0,0.0,0.0,0.0,0.0,0.0,0.0,0.0,0.0,0.0,0.0,0.0,0.0,0.0,0.0,0.0,0.0,0.0,0.0,0.0,0.0,0.0,0.0,0.0,0.0,0.0,0.0,0.0,0.0,0.0,0.0,0.0,0.0,0.0,0.0,0.0,0.0,0.0,0.0,0.0,0.0,0.0,0.0,0.0,0.0,0.0,0.0,0.0,0.0,0.0,0.0,0.0,0.0,0.0,0.0,0.0,0.0,0.0,0.0,0.0,0.0,0.0,0.0,0.0,0.0,0.0,0.0,0.0,0.0,0.0,0.0,0.0,0.0,0.0,0.0,0.0,0.0,0.0,0.0,0.0,0.0,0.0,0.0,0.0,1.1067,1.1083,1.2453,1.1466,1.0807,0.0,0.0,0.0,0.0,0.0,0.0,0.0,0.0,0.0,0.0,0.0,0.0,0.0,0.0,0.0,0.0,0.0,0.0,0.0,0.0,0.0,0.0,0.0,0.0,0.0,0.0,0.0,0.0,0.0,0.0,0.0,0.0,0.0,0.0,0.0,0.0,0.0,0.0,0.0,0.0,0.0,0.0,0.0,0.0,0.0,0.0,0.0,0.0,0.0,0.0,0.0,0.0,0.0,0.0,0.0,0.0,0.0,0.0,0.0,0.0,0.0,0.0,0.0,0.0,0.0,0.0,0.0,0.0,0.0,0.0,0.0,0.0,0.0,0.0,0.0,0.0,0.0,0.0,0.0,0.0,0.0,0.0,0.0,0.0,0.0,0.0,0.0,0.0,0.0,0.0,0.0,0.0,0.0,0.0,0.0,0.0,0.0,0.0,0.0,0.0,0.0,0.0,0.0,0.0,0.0,0.0,0.0,0.0,0.0,0.9841,1.0412,1.1841,1.4011,1.2174,1.1388,0.0,0.0,0.0,0.0,0.0,0.0,0.0,0.0,0.0,0.0,0.0,0.0,0.0,0.0,0.0,0.0,0.0,0.0,0.0,0.0,0.0,0.0,0.0,0.0,0.0,0.0,0.0,0.0,0.0,0.0,0.0,0.0,0.0,0.0,0.0,0.0,0.0,0.0,0.0,0.0,0.0,0.0,0.0,0.0,0.0,0.0,0.0,0.0,0.0,0.0,0.0,0.0,0.0,0.0,0.0,0.0,0.0,0.0,0.0,0.0,0.0,0.0,0.0,0.0,0.0,0.0,0.0,0.0,0.0,0.0,0.0,0.0,0.0,0.0,0.0,0.0,0.0,0.0,0.0,0.0,0.0,0.0,0.0,0.0,0.0,0.0,0.0,0.0,0.0,0.0,0.0,0.0,0.0,0.0,0.0,0.0,0.0,0.0,0.0,0.0,0.0,0.0,0.0,0.0,0.0,0.0,0.0,0.0,0.0,0.9892,0.0,1.3123,0.0,1.2572,1.1542,0.0,0.0,0.0,0.0,0.0,0.0,0.0,0.0,0.0,0.0,0.0,0.0,0.0,0.0,0.0,0.0,0.0,0.0,0.0,0.0,0.0,0.0,0.0,0.0,0.0,0.0,0.0,0.0,0.0,0.0,0.0,0.0,0.0,0.0,0.0,0.0,0.0,0.0,0.0,0.0,0.0,0.0,0.0,0.0,0.0,0.0,0.0,0.0,0.0,0.0,0.0,0.0,0.0,0.0,0.0,0.0,0.0,0.0,0.0,0.0,0.0,0.0,0.0,0.0,0.0,0.0,0.0,0.0,0.0,0.0,0.0,0.0,0.0,0.0,0.0,0.0,0.0,0.0,0.0,0.0,0.0,0.0,0.0,0.0,0.0,0.0,0.0,0.0,0.0,0.0,0.0,0.0,0.0,0.0,0.0,0.0,0.0,0.0,0.0,0.0,0.0,0.0,0.0,0.0,0.0,0.0,0.0,0.0,0.9342,1.2853,1.4536,1.4748,1.3498,1.2686,1.1248,0.0,0.0,0.0,0.0,0.0,0.0,0.0,0.0,0.0,0.0,0.0,0.0,0.0,0.0,0.0,0.0,0.0,0.0,0.0,0.0,0.0,0.0,0.0,0.0,0.0,0.0,0.0,0.0,0.0,0.0,0.0,0.0,0.0,0.0,0.0,0.0,0.0,0.0,0.0,0.0,0.0,0.0,0.0,0.0,0.0,0.0,0.0,0.0,0.0,0.0,0.0,0.0,0.0,0.0,0.0,0.0,0.0,0.0,0.0,0.0,0.0,0.0,0.0,0.0,0.0,0.0,0.0,0.0,0.0,0.0,0.0,0.0,0.0,0.0,0.0,0.0,0.0,0.0,0.0,0.0,0.0,0.0,0.0,0.0,0.0,0.0,0.0,0.0,0.0,0.0,0.0,0.0,0.0,0.0,0.0,0.0,0.0,0.0,0.0,0.0,0.0,0.0,0.0,0.0,0.0,0.0,0.0,0.0,0.0,1.1031,1.2806,1.4258,1.5209,1.2824,1.1891,0.0,0.0,0.0,0.0,0.0,0.0,0.0,0.0,0.0,0.0,0.0,0.0,0.0,0.0,0.0,0.0,0.0,0.0,0.0,0.0,0.0,0.0,0.0,0.0,0.0,0.0,0.0,0.0,0.0,0.0,0.0,0.0,0.0,0.0,0.0,0.0,0.0,0.0,0.0,0.0,0.0,0.0,0.0,0.0,0.0,0.0,0.0,0.0,0.0,0.0,0.0,0.0,0.0,0.0,0.0,0.0,0.0,0.0,0.0,0.0,0.0,0.0,0.0,0.0,0.0,0.0,0.0,0.0,0.0,0.0,0.0,0.0,0.0,0.0,0.0,0.0,0.0,0.0,0.0,0.0,0.0,0.0,0.0,0.0,0.0,0.0,0.0,0.0,0.0,0.0,0.0,0.0,0.0,0.0,0.0,0.0,0.0,0.0,0.0,0.0,0.0,0.0,0.0,0.0,0.0,0.0,0.0,0.0,0.0,1.2169,1.3944,1.5444,1.6521,1.4159,1.305,1.3322,0.0,0.0,0.0,0.0,0.0,0.0,0.0,0.0,0.0,0.0,0.0,0.0,0.0,0.0,0.0,0.0,0.0,0.0,0.0,0.0,0.0,0.0,0.0,0.0,0.0,0.0,0.0,0.0,0.0,0.0,0.0,0.0,0.0,0.0,0.0,0.0,0.0,0.0,0.0,0.0,0.0,0.0,0.0,0.0,0.0,0.0,0.0,0.0,0.0,0.0,0.0,0.0,0.0,0.0,0.0,0.0,0.0,0.0,0.0,0.0,0.0,0.0,0.0,0.0,0.0,0.0,0.0,0.0,0.0,0.0,0.0,0.0,0.0,0.0,0.0,0.0,0.0,0.0,0.0,0.0,0.0,0.0,0.0,0.0,0.0,0.0,0.0,0.0,0.0,0.0,0.0,0.0,0.0,0.0,0.0,0.0,0.0,0.0,0.0,0.0,0.0,0.0,0.0,0.0,0.0,0.0,0.0,0.0,1.5493,1.7465,1.8091,1.7374,1.6386,1.4604,0.0,0.0,0.0,0.0,0.0,0.0,0.0,0.0,0.0,0.0,0.0,0.0,0.0,0.0,0.0,0.0,0.0,0.0,0.0,0.0,0.0,0.0,0.0,0.0,0.0,0.0,0.0,0.0,0.0,0.0,0.0,0.0,0.0,0.0,0.0,0.0,0.0,0.0,0.0,0.0,0.0,0.0,0.0,0.0,0.0,0.0,0.0,0.0,0.0,0.0,0.0,0.0,0.0,0.0,0.0,0.0,0.0,0.0,0.0,0.0,0.0,0.0,0.0,0.0,0.0,0.0,0.0,0.0,0.0,0.0,0.0,0.0,0.0,0.0,0.0,0.0,0.0,0.0,0.0,0.0,0.0,0.0,0.0,0.0,0.0,0.0,0.0,0.0,0.0,0.0,0.0,0.0,0.0,0.0,0.0,0.0,0.0,0.0,0.0,0.0,0.0,0.0,0.0,0.0,0.0,0.0,0.0,0.0,0.0,1.6835,1.8639,1.9723,1.9962,1.7377,1.5852,0.0,0.0,0.0,0.0,0.0,0.0,0.0,0.0,0.0,0.0,0.0,0.0,0.0,0.0,0.0,0.0,0.0,0.0,0.0,0.0,0.0,0.0,0.0,0.0,0.0,0.0,0.0,0.0,0.0,0.0,0.0,0.0,0.0,0.0,0.0,0.0,0.0,0.0,0.0,0.0,0.0,0.0,0.0,0.0,0.0,0.0,0.0,0.0,0.0,0.0,0.0,0.0,0.0,0.0,0.0,0.0,0.0,0.0,0.0,0.0,0.0,0.0,0.0,0.0,0.0,0.0,0.0,0.0,0.0,0.0,0.0,0.0,0.0,0.0,0.0,0.0,0.0,0.0,0.0,0.0,0.0,0.0,0.0,0.0,0.0,0.0,0.0,0.0,0.0,0.0,0.0,0.0,0.0,0.0,0.0,0.0,0.0,0.0,0.0,0.0,0.0,0.0,0.0,0.0,0.0,0.0,0.0,0.0,1.5755,1.8422,1.9776,2.0849,2.173,1.9144,1.7406,0.0,0.0,0.0,0.0,0.0,0.0,0.0,0.0,0.0,0.0,0.0,0.0,0.0,0.0,0.0,0.0,0.0,0.0,0.0,0.0,0.0,0.0,0.0,0.0,0.0,0.0,0.0,0.0,0.0,0.0,0.0,0.0,0.0,0.0,0.0,0.0,0.0,0.0,0.0,0.0,0.0,0.0,0.0,0.0,0.0,0.0,0.0,0.0,0.0,0.0,0.0,0.0,0.0,0.0,0.0,0.0,0.0,0.0,0.0,0.0,0.0,0.0,0.0,0.0,0.0,0.0,0.0,0.0,0.0,0.0,0.0,0.0,0.0,0.0,0.0,0.0,0.0,0.0,0.0,0.0,0.0,0.0,0.0,0.0,0.0,0.0,0.0,0.0,0.0,0.0,0.0,0.0,0.0,0.0,0.0,0.0,0.0,0.0,0.0,0.0,0.0,0.0,0.0,0.0,0.0,0.0,0.0,0.0,1.6804,1.9718,2.0591,2.1519,2.2487,2.111,1.9016,0.0,0.0,0.0,0.0,0.0,0.0,0.0,0.0,0.0,0.0,0.0,0.0,0.0,0.0,0.0,0.0,0.0,0.0,0.0,0.0,0.0,0.0,0.0,0.0,0.0,0.0,0.0,0.0,0.0,0.0,0.0,0.0,0.0,0.0,0.0,0.0,0.0,0.0,0.0,0.0,0.0,0.0,0.0,0.0,0.0,0.0,0.0,0.0,0.0,0.0,0.0,0.0,0.0,0.0,0.0,0.0,0.0,0.0,0.0,0.0,0.0,0.0,0.0,0.0,0.0,0.0,0.0,0.0,0.0,0.0,0.0,0.0,0.0,0.0,0.0,0.0,0.0,0.0,0.0,0.0,0.0,0.0,0.0,0.0,0.0,0.0,0.0,0.0,0.0,0.0,0.0,0.0,0.0,0.0,0.0,0.0,0.0,0.0,0.0,0.0,0.0,0.0,0.0,0.0,0.0,0.0,0.0,0.0,1.6699,1.8293,2.0077,2.1275,2.1816,2.0832,1.9521,0.0,0.0,0.0,0.0,0.0,0.0,0.0,0.0,0.0,0.0,0.0,0.0,0.0,0.0,0.0,0.0,0.0,0.0,0.0,0.0,0.0,0.0,0.0,0.0,0.0,0.0,0.0,0.0,0.0,0.0,0.0,0.0,0.0,0.0,0.0,0.0,0.0,0.0,0.0,0.0,0.0,0.0,0.0,0.0,0.0,0.0,0.0,0.0,1.1138,0.0,0.0,0.0,0.0,0.0,0.0,0.0,0.0,0.0,0.0,0.0,0.0,0.0,0.0,0.0,0.0,0.0,0.0,0.0,0.0,0.0,0.0,0.0,0.0,0.0,0.0,0.0,0.0,0.0,0.0,0.0,0.0,0.0,0.0,0.0,0.0,0.0,0.0,0.0,0.0,0.0,0.0,0.0,0.0,0.0,0.0,0.0,0.0,0.0,0.0,0.0,0.0,0.0,0.0,0.0,0.0,0.0,0.0,0.0,1.6823,1.8641,1.9794,2.0765,2.1519,2.1139,2.0018,0.0,0.0,0.0,0.0,0.0,0.0,0.0,0.0,0.0,0.0,0.0,0.0,0.0,0.0,0.0,0.0,0.0,0.0,0.0,0.0,0.0,0.0,0.0,0.0,0.0,0.0,0.0,0.0,0.0,0.0,0.0,0.0,0.0,0.0,0.0,0.0,0.0,0.0,0.0,0.0,0.0,0.0,0.0,0.0,0.0,0.0,0.0,0.0,0.0,0.0,0.0,0.0,0.0,0.0,0.0,0.0,0.0,0.0,0.0,0.0,0.0,0.0,0.0,0.0,0.0,0.0,0.0,0.0,0.0,0.0,0.0,0.0,0.0,0.0,0.0,0.0,0.0,0.0,0.0,0.0,0.0,0.0,0.0,0.0,0.0,0.0,0.0,0.0,0.0,0.0,0.0,0.0,0.0,0.0,0.0,0.0,0.0,0.0,0.0,0.0,0.0,0.0,0.0,0.0,0.0,0.0,0.0,1.4774,1.6752,1.9258,1.9534,2.0234,2.146,2.1552,2.0401,1.7907,0.0,0.0,0.0,0.0,0.0,0.0,0.0,0.0,0.0,0.0,0.0,0.0,0.0,0.0,0.0,0.0,0.0,0.0,0.0,0.0,0.0,0.0,0.0,0.0,0.0,0.0,0.0,0.0,0.0,0.0,0.0,0.0,0.0,0.0,0.0,0.0,0.0,0.0,1.0009,1.1106,0.0,0.0,0.0,0.0,0.0,0.0,0.0,0.0,1.1673,0.0,0.0,0.0,0.0,0.0,0.0,0.0,0.0,0.0,0.0,0.0,0.0,0.0,0.0,0.0,0.0,0.0,0.0,0.0,0.0,0.0,0.0,0.0,0.0,0.0,0.0,0.0,0.0,0.0,0.0,0.0,0.0,0.0,0.0,0.0,0.0,0.0,0.0,0.0,0.0,0.0,0.0,0.0,0.0,0.0,0.0,0.0,0.0,0.0,0.0,0.0,0.0,0.0,0.0,0.0,0.0,1.4549,1.4578,1.5768,1.8257,1.9156,2.0062,2.1055,2.143,2.0417,1.7918,0.0,0.0,0.0,0.0,0.0,0.0,0.0,0.0,0.0,0.0,0.0,0.0,0.0,0.0,0.0,0.0,0.0,0.0,0.0,0.0,0.0,0.0,0.0,0.0,0.0,0.0,0.0,0.0,0.0,0.0,0.0,0.0,0.0,0.0,0.0,0.0,0.0,0.0,0.0,1.2504,1.3398,0.0,0.0,0.0,0.0,0.0,0.0,0.0,0.0,1.1899,0.0,0.0,0.0,0.0,0.0,0.0,0.0,0.0,0.0,0.0,0.0,0.0,0.0,0.0,0.0,0.0,0.0,0.0,0.0,0.0,0.0,0.0,0.0,0.0,0.0,0.0,0.0,0.0,0.0,0.0,0.0,0.0,0.0,0.0,0.0,0.0,0.0,0.0,0.0,0.0,0.0,0.0,0.0,0.0,0.0,0.0,0.0,0.0,0.0,0.0,0.0,0.0,0.0,0.0,0.0,1.3188,1.4374,1.5699,1.7179,1.8246,1.928,2.0218,2.0052,1.9171,0.0,0.0,0.0,0.0,0.0,0.0,0.0,0.0,0.0,0.0,0.0,0.0,0.0,0.0,0.0,0.0,0.0,0.0,0.0,0.0,0.0,0.0,0.0,0.0,0.0,0.0,0.0,0.0,0.0,0.0,0.0,0.0,0.0,0.0,0.0,0.0,0.0,0.0,0.0,0.0,1.3793,1.4863,1.5367,0.0,0.0,0.0,0.0,0.0,0.0,1.3868,1.3142,0.0,0.0,0.0,0.0,0.0,0.0,0.0,0.0,0.0,0.0,0.0,0.0,0.0,0.0,0.0,0.0,0.0,0.0,0.0,0.0,0.0,0.0,0.0,0.0,0.0,0.0,0.0,0.0,0.0,0.0,0.0,0.0,0.0,0.0,0.0,0.0,0.0,0.0,0.0,0.0,0.0,0.0,0.0,0.0,0.0,0.0,0.0,0.0,0.0,0.0,0.0,0.0,0.0,0.0,0.0,1.1822,1.3864,1.5449,1.6366,1.73,1.8338,1.9519,1.8967,1.8181,0.0,0.0,0.0,0.0,0.0,0.0,0.0,0.0,0.0,0.0,0.0,0.0,0.0,0.0,0.0,0.0,0.0,0.0,0.0,0.0,0.0,0.0,0.0,0.0,0.0,0.0,0.0,0.0,0.0,0.0,0.0,0.0,0.0,0.0,0.0,0.0,0.0,0.0,0.0,0.0,0.0,1.6247,1.746,1.6445,0.0,0.0,0.0,0.0,1.6005,1.5466,0.0,0.0,0.0,0.0,0.0,0.0,0.0,0.0,0.0,0.0,0.0,0.0,0.0,0.0,0.0,0.0,0.0,0.0,0.0,0.0,0.0,0.0,0.0,0.0,0.0,0.0,0.0,0.0,0.0,0.0,0.0,0.0,0.0,0.0,0.0,0.0,0.0,0.0,0.0,0.0,0.0,0.0,0.0,0.0,0.0,0.0,0.0,0.0,0.0,0.0,0.0,0.0,0.0,0.0,0.0,0.0,1.1729,1.2476,1.4004,1.6286,1.6506,1.7531,1.9534,1.9506,1.8732,0.0,0.0,0.0,0.0,0.0,0.0,0.0,0.0,0.0,0.0,0.0,0.0,0.0,0.0,0.0,0.0,0.0,0.0,0.0,0.0,0.0,0.0,0.0,0.0,0.0,0.0,0.0,0.0,0.0,0.0,0.0,0.0,0.0,0.0,0.0,0.0,0.0,0.0,0.0,0.0,0.0,1.7312,1.6836,1.6562,1.6715,0.0,0.0,1.7678,1.8535,1.8531,0.0,0.0,0.0,0.0,0.0,0.0,0.0,0.0,0.0,0.0,0.0,0.0,0.0,0.0,0.0,0.0,0.0,0.0,0.0,0.0,0.0,0.0,0.0,0.0,0.0,0.0,0.0,0.0,0.0,0.0,0.0,0.0,0.0,0.0,0.0,0.0,0.0,0.0,0.0,0.0,0.0,0.0,0.0,0.0,0.0,0.0,0.0,0.0,0.0,0.0,0.0,0.0,0.0,0.0,0.0,0.9382,1.0954,1.2446,1.4069,1.5832,1.6249,1.7308,1.9159,1.8455,1.7595,0.0,0.0,0.0,0.0,0.0,0.0,0.0,0.0,0.0,0.0,0.0,0.0,0.0,0.0,0.0,0.0,0.0,0.0,0.0,0.0,0.0,0.0,0.0,0.0,0.0,0.0,0.0,0.0,0.0,0.0,0.0,0.0,0.0,0.0,0.0,0.0,0.0,0.0,0.0,0.0,0.0,0.0,1.8724,1.9158,0.0,0.0,0.0,1.9842,2.0169,0.0,0.0,0.0,0.0,0.0,0.0,0.0,0.0,0.0,0.0,0.0,0.0,0.0,0.0,0.0,0.0,0.0,0.0,0.0,0.0,0.0,0.0,0.0,0.0,0.0,0.0,0.0,0.0,0.0,0.0,0.0,0.0,0.0,0.0,0.0,0.0,0.0,0.0,0.0,0.0,0.0,0.0,0.0,0.0,0.0,0.0,0.0,0.0,0.0,0.0,0.0,0.0,0.0,0.0,0.0,0.0,0.0,1.0449,1.2619,1.4307,1.5463,1.5911,1.6954,1.8628,1.773,0.0,0.0,0.0,0.0,0.0,0.0,0.0,0.0,0.0,0.0,0.0,0.0,0.0,0.0,0.0,0.0,0.0,0.0,0.0,0.0,0.0,0.0,0.0,0.0,0.0,0.0,0.0,0.5873,0.0,0.0,0.0,0.0,0.0,0.0,0.0,0.0,0.0,0.0,0.0,0.0,0.0,0.0,1.9764,2.0318,2.1234,2.1876,0.0,0.0,2.1545,2.1284,2.1048,2.0374,0.0,0.0,0.0,0.0,0.0,0.0,0.0,0.0,0.0,0.0,0.0,0.0,0.0,0.0,0.0,0.0,0.0,0.0,0.0,0.0,0.0,0.0,0.0,0.0,0.0,0.0,0.0,0.0,0.0,0.0,0.0,0.0,0.0,0.0,0.0,0.0,0.0,0.0,0.0,0.0,0.0,0.0,0.0,0.0,0.0,0.0,0.0,0.0,0.0,0.0,0.0,0.0,0.0,0.0,0.0,1.0879,1.2626,1.4152,1.5448,1.5392,1.6313,1.8153,1.8113,1.7205,0.0,0.0,0.0,0.0,0.0,0.0,0.0,0.0,0.0,0.0,0.0,0.0,0.0,0.0,0.0,0.0,0.0,0.0,0.0,0.0,0.0,0.0,0.0,0.0,0.0,0.0,0.0,0.0,0.0,0.0,0.0,0.0,0.0,0.0,0.0,0.0,0.0,0.0,0.0,0.0,0.0,2.1158,2.0501,2.1628,2.2546,0.0,0.0,2.2595,2.1771,2.2973,2.2731,1.9027,0.0,0.0,0.0,0.0,0.0,0.0,0.0,0.0,0.0,0.0,0.0,0.0,0.0,0.0,0.0,0.0,0.0,0.0,0.0,0.0,0.0,0.0,0.0,0.0,0.0,0.0,0.0,0.0,0.0,0.0,0.0,0.0,0.0,0.0,0.0,0.0,0.0,0.0,0.0,0.0,0.0,0.0,0.0,0.0,0.0,0.0,0.0,0.0,0.0,0.0,0.0,0.0,0.0,0.9766,1.1341,1.2764,1.4256,1.5685,1.5802,1.6547,1.7974,1.81,1.7411,0.0,0.0,0.0,0.0,0.0,0.0,0.0,0.0,0.0,0.0,0.0,0.0,0.0,0.0,0.0,0.0,0.0,0.0,0.0,0.0,0.0,0.0,0.0,0.0,0.0,0.0,0.0,0.0,0.8414,0.8883,0.9445,0.0,0.0,0.0,0.0,0.0,0.0,0.0,0.0,0.0,0.0,2.1454,2.1711,2.2628,0.0,0.0,2.2693,2.2787,2.2321,2.221,2.1551,1.9625,1.8831,0.0,0.0,0.0,0.0,0.0,0.0,0.0,0.0,0.0,0.0,0.0,0.0,0.0,0.0,0.0,0.0,0.0,0.0,0.0,0.0,0.0,0.0,0.0,0.0,0.0,0.0,0.0,0.0,0.0,0.0,0.0,0.0,0.0,0.0,0.0,0.0,0.0,0.0,0.0,0.0,0.0,0.0,0.0,0.0,0.0,0.0,0.0,0.0,0.0,0.0,0.0,0.0,0.9915,1.1417,1.2929,1.4278,1.5512,1.609,1.6765,1.7652,1.7997,1.7451,0.0,0.0,0.0,0.0,0.0,0.0,0.0,0.0,0.0,0.0,0.0,0.0,0.0,0.0,0.0,0.0,0.0,0.0,0.0,0.0,0.0,0.0,0.0,0.0,0.0,0.0,0.0,0.0,0.8964,0.9155,0.9748,0.0,0.0,0.0,0.0,0.0,0.0,0.0,0.0,0.0,0.0,2.2105,2.306,2.3462,2.3344,2.2455,2.2635,2.2793,2.263,2.1856,2.099,2.0299,0.0,0.0,0.0,0.0,0.0,0.0,0.0,0.0,0.0,0.0,0.0,0.0,0.0,0.0,0.0,0.0,0.0,0.0,0.0,0.0,0.0,0.0,0.0,0.0,0.0,0.0,0.0,0.0,0.0,0.0,0.9332,0.0,0.0,0.0,0.0,0.0,0.0,0.0,0.0,0.0,0.0,0.0,0.0,0.0,0.0,0.0,0.0,0.0,0.0,0.0,0.0,0.0,0.0,1.0052,1.1022,1.3039,1.4297,1.4723,1.6052,1.6854,1.712,1.7829,1.7308,1.5462,0.0,0.0,0.0,0.0,0.0,0.0,0.0,0.0,0.0,0.0,0.0,0.0,0.0,0.0,0.0,0.0,0.0,0.0,0.0,0.0,0.0,0.0,0.0,0.0,0.0,0.0,0.9813,0.9744,0.9638,0.0,0.0,0.0,0.0,0.0,0.0,0.0,0.0,0.0,0.0,2.19,2.334,2.4356,2.3933,2.3301,2.2895,2.2739,2.2686,2.2642,2.2295,2.178,0.0,0.0,0.0,0.0,0.0,0.0,0.0,0.0,0.0,0.0,0.0,0.0,0.0,0.0,0.0,0.0,0.0,0.0,0.0,0.0,0.0,0.0,0.0,0.0,0.0,0.0,0.0,1.0858,1.0847,0.0,0.0,0.0,0.0,0.0,0.0,0.0,0.0,0.0,0.0,0.0,1.7899,1.862,0.0,0.0,0.0,0.0,0.0,0.0,0.0,0.0,0.0,0.0,0.0,0.0,0.9929,1.1817,1.291,1.3737,1.4369,1.5828,1.6515,1.6389,1.7063,1.6592,1.4808,0.0,0.0,0.0,0.0,0.0,0.0,0.0,0.0,0.0,0.0,0.0,0.0,0.0,0.0,0.0,0.0,0.0,0.0,0.0,0.0,0.0,0.0,0.0,0.0,0.0,0.9661,0.0,0.0,0.0,0.0,0.0,0.0,0.0,0.0,0.0,0.0,0.0,1.8845,2.0478,2.1712,2.2672,2.3245,2.2683,2.2018,0.0,0.0,0.0,0.0,0.0,0.0,0.0,0.0,0.0,0.0,0.0,0.0,0.0,0.0,2.0631,1.7772,1.6856,1.6673,1.7206,0.0,0.0,0.0,0.0,0.0,0.0,0.0,0.0,0.0,0.0,0.0,0.0,0.0,0.0,1.1939,0.0,1.1856,0.0,0.0,0.0,0.0,0.0,0.0,0.0,0.0,1.7396,1.8344,1.8808,1.946,1.9601,0.0,1.8309,1.6995,0.0,0.0,0.0,0.0,0.0,0.0,0.0,0.0,1.0114,1.1484,1.2422,1.3156,1.3811,1.5303,1.604,1.594,1.6486,1.6017,1.4312,1.429,1.3381,0.0,0.0,0.0,0.0,0.0,0.0,0.0,0.0,0.0,0.0,0.0,0.0,0.0,0.0,0.0,0.0,0.0,0.0,0.0,0.0,0.0,0.0,0.0,0.9674,0.0,0.0,0.0,0.0,0.0,0.0,0.0,0.0,0.0,1.6304,1.802,1.9626,2.069,2.1489,2.2037,2.2248,0.0,0.0,0.0,0.0,0.0,0.0,0.0,1.9932,1.9543,1.9364,1.9092,1.8531,1.978,2.086,2.0865,0.0,0.0,1.9899,1.9239,1.917,1.9715,1.9896,1.9901,1.9775,2.0117,2.0264,0.0,0.0,0.0,0.0,0.0,0.0,0.0,0.0,1.1621,1.2301,0.0,1.2872,0.0,0.0,0.0,0.0,0.0,1.3936,0.0,0.0,1.6907,1.8295,1.8642,1.9118,1.9559,1.9947,1.9656,1.8671,1.6965,1.4137,0.0,0.0,0.0,0.0,0.0,0.0,1.0706,1.0243,1.1605,1.2527,1.2992,1.4436,1.5345,1.5597,1.6063,1.5572,1.4139,1.4604,1.4182,1.263,1.1679,0.0,0.0,0.0,0.0,0.0,0.0,0.0,0.0,0.0,0.0,0.0,0.0,0.0,0.0,0.0,0.0,0.0,0.0,0.0,0.0,0.971,0.0,0.0,0.0,0.0,0.0,0.0,0.0,0.0,0.0,0.0,1.8747,1.9652,2.0399,2.0849,0.0,0.0,0.0,0.0,2.1084,2.1413,2.1171,2.097,2.103,2.0662,2.0309,2.0171,0.0,0.0,1.8785,1.9311,1.9793,1.9809,2.042,2.1535,2.3016,2.2518,2.2383,2.3258,2.2504,2.2124,2.2814,2.2901,2.2986,0.9198,0.0,0.0,0.0,0.0,1.0818,1.2134,1.3501,1.3501,1.3626,1.3753,1.3295,0.0,0.0,0.0,0.0,0.0,0.0,1.4162,1.5003,1.5756,1.6359,1.6855,1.7023,1.7158,1.7222,1.6796,1.6316,1.5756,1.4135,1.3168,1.2876,0.0,0.0,0.0,0.0,1.0486,1.0827,1.1358,1.1796,1.2135,1.3166,1.3892,1.4346,1.5135,1.5266,1.4528,1.4976,1.4812,1.3896,1.3127,0.0,0.0,0.0,0.0,0.0,0.0,0.0,0.0,0.0,0.0,0.0,0.0,0.0,0.0,0.0,0.0,0.0,0.0,0.0,1.1165,1.0341,1.0424,0.0,0.0,0.0,0.0,0.0,0.0,0.0,0.0,0.0,1.9845,2.0342,2.0811,0.0,0.0,2.1532,2.0688,2.0586,2.062,2.0715,2.04,0.0,2.0144,2.0081,1.9846,1.9423,1.88,1.8319,1.8235,1.8245,1.8145,1.7833,1.8373,1.9064,1.9624,2.1379,2.2883,2.3873,2.382,2.3726,2.4218,2.4333,2.4269,0.9189,0.8679,0.9273,0.9603,0.9894,1.0806,1.2238,1.3983,1.3991,1.4202,1.4505,1.3917,1.3197,1.2363,1.1873,0.0,0.0,0.0,1.3648,1.4521,1.485,1.5239,1.571,1.5728,1.5728,1.571,1.5212,1.4978,1.4969,1.4104,1.3459,1.2989,0.0,0.0,1.151,1.0785,1.0542,1.0721,1.0945,1.1272,1.1826,1.2879,1.3642,1.3941,1.4758,1.4969,1.4351,1.4829,1.5007,1.4787,1.4069,1.3102,0.0,0.0,0.0,0.0,0.0,0.0,0.0,0.0,0.0,0.0,0.0,1.0878,0.0,0.0,0.0,0.0,1.145,1.2237,1.3055,1.25,0.0,0.0,0.0,0.0,0.0,0.0,0.0,1.9525,2.0429,2.102,2.1241,2.1255,2.1152,2.0907,2.1035,2.0878,2.0145,0.0,1.9708,1.9726,1.9537,1.9243,1.8943,1.9185,1.9102,1.8262,1.7593,1.7159,1.7174,1.6839,1.6423,1.6281,1.6288,1.6447,1.6729,1.8416,2.0475,2.2425,2.3105,2.339,2.3603,2.3657,2.3595,0.9696,0.8578,0.8132,0.8714,0.9941,1.007,1.1284,1.3309,1.3309,1.4043,1.5128,1.4513,1.4132,1.4053,1.2915,0.0,1.2094,1.2668,1.296,1.316,1.384,1.4347,1.4721,1.4729,1.4737,1.4721,1.4377,1.421,1.4194,1.3866,1.3523,1.31,1.2395,1.1932,1.1623,1.1299,1.0827,1.0187,1.0524,1.0947,1.1717,1.3295,1.4057,1.3882,1.4661,1.4643,1.3784,1.434,1.4865,1.5298,1.4538,1.3656,1.2718,0.0,0.0,0.0,0.0,0.0,0.0,0.0,0.0,0.0,0.0,0.0,0.0,0.0,0.0,0.0,1.3493,0.0,1.5039,1.5298,0.0,0.0,0.0,1.5827,1.6725,1.8566,2.0152,2.1176,0.0,0.0,2.2534,2.2028,2.1288,2.0378,1.9999,1.9782,1.9634,1.9016,1.8613,1.8614,1.862,1.8355,1.7896,1.8218,1.8254,1.7228,1.6362,1.5994,1.5855,1.5133,1.4727,1.4731,1.4181,1.3786,1.4427,1.4595,1.5567,1.8918,2.0502,2.1246,2.1189,2.1255,2.1163,0.8162,0.7838,0.7706,0.8103,0.8823,0.9547,1.0611,1.1926,1.2004,1.255,1.3395,1.3255,1.2991,1.268,1.1592,1.1657,1.2539,1.0944,1.0889,1.1821,1.1181,1.0897,1.1027,1.1032,1.1027,1.101,1.1554,1.1803,1.1865,1.243,1.2501,1.2207,1.2053,1.1969,1.1921,1.1855,1.1468,1.0782,1.0855,1.0911,1.0933,1.2451,1.2949,1.2308,1.3619,1.3947,1.3153,1.3695,1.4264,1.4811,1.472,1.4538,1.4317,1.2386,0.0,0.0,0.0,0.0,0.0,0.0,0.0,0.0,0.0,1.2899,1.0876,0.0,1.3487,0.0,1.2894,1.3639,1.5012,1.4421,0.0,0.0,1.6314,1.7129,1.9291,1.9917,2.0461,2.1264,2.1645,2.1499,2.0625,2.0793,2.0558,1.9294,1.9447,1.9383,1.8496,1.8064,1.7891,1.7838,1.7802,1.779,1.7598,1.7763,1.7686,1.7476,1.6314,1.5351,1.5073,1.3867,1.2911,1.2536,1.178,1.1364,1.1456,1.1199,1.1474,1.2863,1.5304,1.7452,1.7674,1.779,1.7745,0.7797,0.779,0.7719,0.7823,0.82,0.9161,1.0535,1.2161,1.2044,1.2254,1.2763,1.1944,1.1461,1.1141,1.0517,1.0662,1.1268,1.0084,0.9917,1.0675,1.0029,0.9705,0.9705,0.9705,0.9953,1.0509,1.1022,1.1516,1.1979,1.2335,1.2412,1.2331,1.2131,1.2104,1.2116,1.1829,1.157,1.1182,1.1056,1.1036,1.1185,1.2027,1.2416,1.227,1.3077,1.3366,1.292,1.3238,1.3779,1.4652,1.472,1.4796,1.4863,1.3518,1.2304,0.0,0.0,0.0,0.0,0.0,0.0,0.0,0.0,0.0,0.0,0.0,1.4187,1.372,1.4448,1.5301,1.6184,1.633,1.675,1.7636,1.7855,1.8588,2.0033,2.0378,2.068,2.1081,2.1478,2.1184,1.9966,2.0064,1.9659,1.7958,1.7707,1.7648,1.7295,1.6873,1.6427,1.6108,1.6042,1.6218,1.6522,1.5955,1.5668,1.5908,1.509,1.406,1.3468,1.24,1.1301,1.0486,0.9684,0.9061,0.8939,0.8764,0.8705,0.9105,1.0498,1.2494,1.4287,1.4675,1.4699,0.8038,0.8024,0.7899,0.7838,0.7925,0.8737,1.0491,1.2819,1.2511,1.2591,1.2739,1.1064,1.009,0.9833,0.9635,0.9712,0.9789,0.9456,0.9461,0.9543,0.9461,0.9379,0.9379,0.9379,1.0034,1.1173,1.1307,1.195,1.3008,1.2875,1.2786,1.2815,1.2492,1.2338,1.2285,1.179,1.1523,1.1483,1.1196,1.1286,1.1659,1.1769,1.2098,1.2581,1.2813,1.2883,1.2773,1.2832,1.343,1.4525,1.4652,1.4803,1.4958,1.4488,1.3803,0.0,1.2293,0.0,0.0,0.0,0.0,0.0,0.0,0.0,0.0,1.4288,1.4435,1.49,1.6427,1.7403,1.7398,1.8715,1.9298,1.8652,1.9043,1.945,1.9553,2.012,2.0466,2.0408,2.0806,2.0615,1.9248,1.9141,1.8347,1.6317,1.5702,1.5469,1.5505,1.5197,1.4802,1.4007,1.395,1.4378,1.4789,1.393,1.3416,1.3906,1.3287,1.2427,1.1736,1.0892,0.995,0.891,0.8124,0.7469,0.7109,0.7,0.684,0.6759,0.6936,0.7997,1.0729,1.1667,1.1882,0.8038,0.8038,0.8011,0.7997,0.7991,0.816,0.9527,1.1645,1.1603,1.2037,1.2823,1.1379,1.0622,1.0479,0.9538,0.9547,1.0313,0.843,0.8088,0.9044,0.8001,0.757,0.7574,0.757,0.8261,0.937,1.0055,1.1051,1.2122,1.2849,1.2993,1.2829,1.2761,1.2545,1.2305,0.0,0.0,0.0,1.149,1.127,1.1177,1.1783,1.1781,1.1172,1.23,0.0,1.2085,1.2559,1.3248,1.3909,1.4422,0.0,0.0,0.0,0.0,0.0,0.0,0.0,0.0,0.0,0.0,0.0,1.2728,1.2354,1.2672,1.4035,1.4935,1.5078,1.5497,1.5924,1.6266,1.6573,1.6703,1.659,1.7031,1.7576,1.8128,1.8653,1.875,1.8113,1.8118,1.7667,1.6346,1.6222,1.5713,1.4031,1.4426,1.4072,1.2101,1.2825,1.3339,1.3193,1.3122,1.3233,1.3425,1.3183,1.2887,1.3061,1.1927,1.1051,1.0725,0.9863,0.8988,0.8191,0.7609,0.7081,0.6797,0.6081,0.5555,0.5314,0.5244,0.5648,0.7368,0.8208,0.8743,0.8038,0.0,0.8038,0.8038,0.0,0.8038,0.9022,1.0654,1.1204,1.2026,1.2922,1.1061,1.0108,1.0104,0.8844,0.8579,0.8932,0.7785,0.7478,0.7929,0.7401,0.7139,0.7139,0.7753,0.8623,0.9749,1.075,1.1803,1.2983,1.3228,1.3273,1.2979,1.2896,1.2674,1.2311,1.2305,1.2158,1.187,1.1717,1.143,1.1015,1.1369,1.1374,1.0953,1.1494,0.0,0.0,0.0,0.0,0.0,0.0,0.0,0.0,0.0,0.0,1.4393,1.3856,1.3521,1.3521,1.3247,1.3211,1.3557,1.2945,1.2775,1.3271,1.4376,1.5165,1.5527,1.5252,1.5304,1.593,1.5883,1.5805,1.5816,1.6278,1.658,1.6526,1.6369,1.613,1.5751,1.5342,1.4676,1.364,1.3678,1.3084,1.1666,1.1895,1.1928,1.0747,1.1617,1.2422,1.1932,1.1839,1.1941,1.2274,1.2027,1.1973,1.2143,1.1392,1.0451,0.9939,0.9314,0.8479,0.7567,0.6776,0.6191,0.6063,0.5593,0.5233,0.5053,0.4962,0.5005,0.5648,0.6444,0.7498,0.8038,0.8038,0.8038,0.8038,0.8038,0.8038,0.8726,1.0083,0.0,0.0,0.0,1.0241,0.9202,0.9108,0.807,0.7529,0.7414,0.7411,0.7329,0.7183,0.718,0.7166,0.7139,0.8368,0.9492,1.0611,1.1724,1.2942,1.4075,1.3834,1.3574,1.3287,1.3026,1.2732,1.2398,1.2325,1.2184,1.1964,1.1944,1.1683,1.1169,1.1096,1.104,1.103,1.088,1.0887,1.1204,1.1576,1.2113,1.2811,1.3377,1.4021,1.4722,1.4795,1.4866,1.4909,1.4877,1.482,1.4909,1.4633,1.3993,1.3016,1.2912,1.3337,1.4339,1.4754,1.515,1.5549,1.4955,1.487,1.5395,1.5141,1.4893,1.4903,1.5189,1.5023,1.4415,1.3779,1.3314,1.3083,1.2607,1.197,1.1224,1.1274,1.0863,0.9597,0.9611,0.967,1.0049,1.1176,1.1768,1.1125,1.1019,1.1051,1.1382,1.1206,1.0925,1.1483,1.0919,1.0104,0.946,0.8941,0.8151,0.6981,0.6009,0.5557,0.5428,0.5418,0.5308,0.5098,0.5001,0.4862,0.4855,0.5506,0.6623,0.8038,0.8038,0.8038,0.8038,0.8038,0.8038,0.8726,0.9993,1.016,1.0329,1.0396,0.8794,0.8065,0.8058,0.7746,0.7587,0.7567,0.7567,0.7485,0.7343,0.7339,0.7268,0.7143,0.8364,0.9497,1.0611,1.1724,1.2936,1.399,1.4041,1.3874,1.3607,1.354,1.3233,1.2705,1.2432,1.2285,1.2238,1.2245,1.2078,1.1757,1.1496,1.1155,1.071,1.0909,1.0945,1.079,1.1376,1.2074,1.2842,1.3166,1.3801,1.4944,1.5121,1.5419,1.5748,1.5452,1.5408,1.5709,1.4324,1.2974,1.2062,1.255,1.3336,1.411,1.4852,1.493,1.41,1.381,1.3663,1.344,1.2726,1.2297,1.2261,1.1676,1.1193,1.116,1.1101,1.0792,1.025,1.0044,0.9724,0.9087,0.914,0.8929,0.8111,0.8719,0.9553,1.0199,1.0992,1.1417,1.1323,1.131,1.1247,1.1211,1.1059,1.0965,1.0785,1.018,0.9682,0.946,0.8871,0.8021,0.6915,0.6075,0.5491,0.5428,0.5428,0.5301,0.5115,0.4632,0.425,0.4729,0.4976,0.5538,0.8038,0.8038,0.8038,0.8038,0.8038,0.8038,0.8333,0.892,0.8924,0.9702,1.0867,0.9612,0.8999,0.8893,0.8157,0.779,0.7716,0.7716,0.7634,0.7499,0.7495,0.777,0.8244,0.9389,1.0469,1.1563,1.2687,1.3561,1.4082,1.4088,1.3941,1.3552,1.3327,1.3013,1.2822,1.2452,1.2305,1.2305,1.2305,1.2158,1.1877,1.1737,1.139,1.0808,1.0808,1.0681,1.038,1.089,1.1351,1.1688,1.2555,1.3296,1.3869,1.3949,1.4294,1.4914,1.4366,1.4118,1.4327,1.2941,1.2049,1.2028,1.1219,1.1518,1.3394,1.3561,1.3575,1.327,1.2489,1.2048,1.2196,1.1126,1.0368,1.0463,1.0084,0.9699,0.9308,0.893,0.8591,0.8162,0.7835,0.7529,0.7142,0.7306,0.7346,0.698,0.8192,0.9396,0.9818,1.055,1.1198,1.1352,1.1436,1.1383,1.1256,1.1229,1.1102,1.0842,1.0529,1.0199,1.0027,0.9582,0.9064,0.8156,0.6728,0.5752,0.5947,0.5686,0.5453,0.5225,0.4528,0.4282,0.4803,0.5438,0.6554,0.8038,0.8038,0.8038,0.8038,0.8038,0.8038,0.8038,0.8038,0.8038,0.9118,1.0676,0.9998,0.9505,0.941,0.8428,0.7974,0.7872,0.7862,0.7784,0.7655,0.7648,0.8027,0.8869,1.0168,1.1206,1.2077,1.3417,1.4088,1.4088,1.4088,1.3975,1.3707,1.3206,1.2946,1.2939,1.2585,1.2405,1.2398,1.2338,1.2191,1.1971,1.1904,1.165,1.1216,1.0907,1.0555,1.0321,1.0552,1.0785,1.0952,1.1963,1.2638,1.2884,1.2823,1.3092,1.3672,1.3157,1.2724,1.2453,1.1542,1.1143,1.1578,0.9773,0.9529,1.1498,1.1553,1.1633,1.2135,1.1296,1.0764,1.0638,0.9596,0.8794,0.8834,0.8659,0.8318,0.7864,0.721,0.6867,0.6777,0.6394,0.6119,0.6091,0.6183,0.6325,0.663,0.7859,0.8917,0.9301,1.0143,1.0924,1.1391,1.1455,1.1378,1.1431,1.1523,1.1396,1.1142,1.1096,1.0943,1.0763,1.0695,1.0289,0.9262,0.7577,0.6449,0.658,0.6009,0.5488,0.5279,0.44,0.384,0.4243,0.5516,0.6978,0.8038,0.8038,0.8038,0.8038,0.8038,0.8038,0.8038,0.8038,0.8038,0.8038,0.8432,0.8233,0.8237,0.8134,0.8038,0.8028,0.8011,0.8018,0.7936,0.7804,0.779,0.7811,0.8034,0.9881,1.085,1.1238,1.3169,1.4102,1.4088,1.4088,1.4075,1.4015,1.3721,1.354,1.3487,1.2979,1.2775,1.2775,1.2438,1.2291,1.2251,1.2004,1.1837,1.179,1.1243,1.0942,1.0882,1.0755,1.0961,1.1598,1.1443,1.1786,1.2751,1.2655,1.263,1.3092,1.2663,1.2131,1.1308,1.084,1.026,0.9609,0.8709,0.8229,0.8759,0.8652,0.9211,1.0302,1.0684,0.9958,0.8668,0.7798,0.7342,0.7381,0.6762,0.6069,0.6176,0.6099,0.6096,0.6074,0.6201,0.6311,0.6224,0.6244,0.6257,0.6338,0.7326,0.8466,0.9221,1.0045,1.1087,1.1685,1.1501,1.1242,1.169,1.183,1.1697,1.1456,1.139,1.1336,1.1209,1.0909,1.0373,0.9884,0.8603,0.7445,0.6763,0.6009,0.5425,0.5226,0.4209,0.2922,0.2978,0.4212,0.5762,0.8038,0.8038,0.8038,0.8038,0.8038,0.8038,0.8038,0.8038,0.8038,0.8038,0.8038,0.8038,0.8038,0.8038,0.8038,0.8038,0.8038,0.8038,0.8007,0.795,0.7946,0.8157,0.8859,1.0454,1.1389,1.1938,1.3591,1.4255,1.4115,1.4088,1.4088,1.4055,1.3788,1.3647,1.3601,1.3046,1.2822,1.2815,1.2452,1.2305,1.2291,1.2184,1.2044,1.1864,1.17,1.1423,1.1243,1.0969,1.1002,1.129,1.1447,1.1752,1.2258,1.2134,1.2361,1.2862,1.1943,1.0923,1.004,0.9409,0.8849,0.8549,0.7819,0.7597,0.8093,0.7798,0.7822,0.8371,0.8559,0.8201,0.7599,0.6824,0.6406,0.6419,0.6152,0.5969,0.6067,0.6108,0.6149,0.6173,0.622,0.6261,0.6261,0.6261,0.6261,0.6412,0.7176,0.8084,0.9145,0.9669,1.0571,1.1774,1.1409,1.1292,1.1919,1.2124,1.1991,1.1784,1.169,1.1663,1.1436,1.1289,1.0949,1.0492,0.9036,0.8027,0.7562,0.6338,0.5362,0.509,0.4486,0.3199,0.2046,0.3991,0.5817,0.8038,0.8038,0.8038,0.8038,0.8038,0.8038,0.8038,0.8038,0.8038,0.8038,0.8038,0.8038,0.8038,0.8038,0.8038,0.8038,0.8038,0.8038,0.8038,0.8038,0.8038,0.8565,0.9707,1.0868,1.1992,1.2884,1.4046,1.4489,1.4229,1.4108,1.4088,1.4048,1.3868,1.3768,1.3707,1.324,1.2993,1.2959,1.2625,1.2425,1.2418,1.2345,1.2198,1.2004,1.1904,1.1764,1.1557,1.1269,1.1076,1.1055,1.1411,1.1556,1.1476,1.1549,1.1755,1.2011,1.1056,0.9941,0.9012,0.8184,0.7745,0.7693,0.701,0.6904,0.7311,0.7149,0.6889,0.6941,0.6872,0.6937,0.6729,0.6262,0.5976,0.6078,0.6091,0.6146,0.6314,0.6261,0.6254,0.6261,0.6254,0.6261,0.6261,0.6261,0.6261,0.6412,0.6949,0.7783,0.8689,0.9145,0.9965,1.1601,1.1452,1.1613,1.215,1.2285,1.2184,1.2091,1.1984,1.1917,1.1703,1.1677,1.157,1.1037,0.933,0.8195,0.7821,0.6764,0.5065,0.4631,0.4082,0.328,0.2202,0.4312,0.5776,0.8038,0.8038,0.8038,0.8038,0.8038,0.8038,0.8038,0.8038,0.8038,0.8038,0.8038,0.8038,0.8038,0.8038,0.8038,0.8038,0.8038,0.8038,0.8038,0.8038,0.8038,0.8722,0.9972,1.1039,1.2146,1.3188,1.4391,1.4783,1.4476,1.4222,1.4088,1.4082,1.4055,1.4055,1.4001,1.3714,1.3594,1.3487,1.2999,1.2795,1.2761,1.2445,1.2311,1.2245,1.2017,1.1877,1.1824,1.1563,1.1289,1.1015,1.1055,1.0985,1.0762,1.0958,1.0803,1.0188,0.9961,0.9472,0.8414,0.7574,0.7095,0.7037,0.641,0.5992,0.6243,0.6219,0.6296,0.6371,0.6426,0.6304,0.6204,0.6194,0.62,0.6227,0.624,0.6325,0.6257,0.6261,0.6261,0.6261,0.6261,0.6261,0.6261,0.6261,0.6261,0.6261,0.6419,0.688,0.8016,0.8846,0.982,1.0891,1.1649,1.2231,1.2305,1.2305,1.2298,1.2231,1.2184,1.2238,1.2271,1.2238,1.2044,1.1429,0.9593,0.8399,0.8048,0.6895,0.5015,0.4021,0.3493,0.2746,0.2075,0.3266,0.4888,0.8038,0.8038,0.8038,0.8038,0.8038,0.8038,0.8038,0.8038,0.8038,0.8038,0.8038,0.8038,0.8038,0.8038,0.8038,0.8038,0.8038,0.8038,0.8038,0.8038,0.8038,0.8237,0.8817,1.0789,1.1828,1.2449,1.4247,1.499,1.4549,1.4409,1.4269,1.4108,1.4088,1.4088,1.4035,1.3794,1.3647,1.3601,1.3233,1.2946,1.2849,1.2714,1.2498,1.2311,1.2204,1.2151,1.2151,1.1864,1.1657,1.1557,1.1376,1.1223,1.1136,1.1216,1.0616,0.9238,0.9044,0.8408,0.6932,0.6437,0.6297,0.6233,0.6113,0.5966,0.6034,0.6118,0.6207,0.6247,0.6261,0.6227,0.6207,0.6234,0.6261,0.6261,0.6261,0.6261,0.6261,0.6261,0.6261,0.6261,0.6261,0.6261,0.6268,0.6261,0.6261,0.6345,0.6414,0.7122,0.8363,0.9173,0.9903,1.1335,1.2057,1.2305,1.2305,1.2305,1.2305,1.2305,1.2291,1.2285,1.2298,1.2305,1.2144,1.1657,0.9887,0.8374,0.7864,0.6802,0.496,0.3677,0.3076,0.2911,0.2008,0.3816,0.5456,0.8038,0.8038,0.8038,0.8038,0.8038,0.8038,0.8038,0.8038,0.8038,0.8038,0.8038,0.8038,0.8038,0.8038,0.8038,0.8038,0.8038,0.8038,0.8038,0.8038,0.8038,0.8237,0.892,1.0877,1.2057,1.2569,1.4384,1.5137,1.4696,1.4563,1.4369,1.4108,1.4088,1.4088,1.4048,1.3881,1.3781,1.3734,1.35,1.324,1.3046,1.3017,1.2806,1.2612,1.2498,1.2392,1.2305,1.2111,1.1957,1.1928,1.1677,1.157,1.1563,1.1279,1.0401,0.9047,0.8846,0.7979,0.6386,0.6239,0.6316,0.6026,0.6037,0.6105,0.6112,0.62,0.6251,0.6261,0.6261,0.6261,0.6261,0.6261,0.6261,0.6261,0.6261,0.6261,0.6261,0.6261,0.6261,0.6345,0.6308,0.6329,0.6339,0.638,0.6407,0.6403,0.6495,0.7205,0.8164,0.9213,0.9917,1.1289,1.2143,1.2543,1.2639,1.2619,1.2412,1.2365,1.2311,1.2305,1.2305,1.2305,1.2098,1.1537,1.037,0.8747,0.7461,0.6455,0.5249,0.3743,0.3648,0.3689,0.3908,0.4721,0.6176,0.8041,0.8038,0.8038,0.8038,0.8038,0.8038,0.8038,0.8038,0.8038,0.8038,0.8038,0.8038,0.8038,0.8038,0.8038,0.8038,0.8038,0.8038,0.8038,0.8038,0.8038,0.863,0.9702,1.1165,1.2716,1.3831,1.4958,1.5264,1.497,1.473,1.4456,1.4162,1.4128,1.4206,1.4173,1.4139,1.4062,1.4072,1.385,1.3627,1.3607,1.334,1.318,1.3126,1.2893,1.2619,1.2345,1.2291,1.2151,1.1937,1.1884,1.1877,1.1799,1.1137,1.0149,0.943,0.9266,0.8367,0.6769,0.721,0.7194,0.659,0.6321,0.6234,0.6234,0.6247,0.6261,0.6261,0.6261,0.6264,0.6274,0.6281,0.6274,0.6261,0.6261,0.6261,0.6261,0.6264,0.6268,0.6298,0.6393,0.6468,0.6502,0.6566,0.663,0.6644,0.6681,0.6836,0.7512,0.8833,0.9761,1.061,1.187,1.2915,1.2999,1.2959,1.2665,1.2432,1.2351,1.2305,1.2305,1.2305,1.2305,1.1793,1.0216,0.8565,0.7005,0.6065,0.5538,0.4488,0.4605,0.4422,0.4638,0.5254,0.6605,0.8136,0.8041,0.8038,0.8038,0.8038,0.8038,0.8038,0.8038,0.8038,0.8038,0.8038,0.8038,0.8038,0.8038,0.8038,0.8038,0.8038,0.8038,0.8038,0.8038,0.8038,0.8233,0.9019,1.0872,1.3108,1.4937,1.5549,1.5538,1.5284,1.515,1.4883,1.4476,1.4382,1.4689,1.5082,1.4496,1.4412,1.5039,1.4316,1.3861,1.3579,1.3561,1.342,1.322,1.3113,1.2926,1.2701,1.2418,1.2265,1.2164,1.2171,1.2171,1.2085,1.1866,1.0941,0.9583,0.9965,0.9437,0.7706,0.7629,0.7783,0.7249,0.6721,0.6338,0.6261,0.6261,0.6261,0.6261,0.6261,0.6369,0.638,0.6407,0.6373,0.6349,0.6261,0.6278,0.6295,0.6434,0.65,0.6551,0.6644,0.662,0.6634,0.6695,0.6722,0.6736,0.6797,0.6982,0.7975,0.9073,1.082,1.2088,1.2999,1.33,1.3279,1.326,1.3039,1.2786,1.2632,1.2438,1.2398,1.2371,1.2358,1.1477,0.989,0.842,0.6836,0.5937,0.5544,0.5255,0.514,0.4942,0.4742,0.5674,0.7216,0.8214,0.8123,0.8065,0.8038,0.8038,0.8038,0.8038,0.8038,0.8038,0.8038,0.8038,0.8038,0.8038,0.8038,0.8038,0.8038,0.8038,0.8038,0.8038,0.8038,0.8038,0.8038,0.8233,1.0096,1.2522,1.4663,1.5051,1.5194,1.5411,1.5378,1.515,1.475,1.4904,1.5098,1.531,1.4951,1.4977,1.4977,1.4398,1.3988,1.3848,1.3808,1.3721,1.3554,1.3427,1.3273,1.3073,1.2792,1.2532,1.2358,1.2305,1.2305,1.2231,1.162,1.072,1.0196,0.9965,0.9588,0.8537,0.8761,0.8537,0.7855,0.7173,0.6641,0.6412,0.6261,0.6352,0.6329,0.6342,0.64,0.6522,0.6556,0.6512,0.6441,0.6434,0.6424,0.6441,0.6502,0.6563,0.6702,0.6712,0.677,0.6787,0.6844,0.6858,0.6881,0.6943,0.7066,0.817,0.9344,1.1033,1.2454,1.3104,1.3309,1.349,1.3474,1.3333,1.3186,1.2986,1.2752,1.2592,1.2552,1.245,1.0773,0.9216,0.8084,0.6579,0.6252,0.596,0.5754,0.5628,0.5532,0.5565,0.674,0.808,0.8279,0.8252,0.8102,0.8137,0.8233,0.8237,0.8233,0.8134,0.8237,0.8134,0.8038,0.8038,0.8038,0.8038,0.8233,0.8233,0.8038,0.8233,0.8137,0.8038,0.8038,0.8038,0.8528,0.9706,1.1648,1.3782,1.407,1.4527,1.5385,1.5464,1.5277,1.508,1.5521,1.5712,1.5297,1.5464,1.5257,1.4824,1.4412,1.423,1.4132,1.4223,1.4139,1.4105,1.396,1.3791,1.3527,1.3267,1.2886,1.2425,1.2338,1.2305,1.2003,1.0501,1.0196,1.064,0.989,0.975,0.9674,1.004,0.9814,0.8237,0.7859,0.7415,0.6518,0.6383,0.6434,0.6468,0.6488,0.6546,0.6671,0.6715,0.6712,0.6722,0.6678,0.6658,0.6688,0.6695,0.6729,0.6763,0.6854,0.6943,0.6943,0.7041,0.7088,0.7105,0.7193,0.7519,0.8032,0.9397,1.0494,1.1832,1.3265,1.3567,1.3776,1.3781,1.3674,1.3601,1.3394,1.3153,1.2819,1.2643,1.2181,1.0511,0.9069,0.7783,0.6938,0.6754,0.6444,0.6106,0.6083,0.6162,0.6648,0.7459,0.8283,0.8364,0.8258,0.8102,0.8528,0.941,0.9509,0.941,0.9509,0.941,0.8825,0.8233,0.8038,0.8038,0.8137,0.9019,0.892,0.8432,0.9019,0.8825,0.8137,0.8038,0.8627,0.9312,0.9801,1.1361,1.3584,1.3878,1.4524,1.5617,1.5691,1.5551,1.5291,1.552,1.6132,1.6769,1.6277,1.6255,1.6312,1.5545,1.4817,1.4334,1.4894,1.4901,1.4243,1.4726,1.4571,1.3729,1.3367,1.3039,1.2735,1.2405,1.2305,1.2251,1.1632,1.1168,1.0938,1.1162,1.1093,1.0565,1.0634,1.019,0.9069,0.8498,0.7704,0.6565,0.6496,0.6572,0.66,0.6644,0.6702,0.6831,0.6871,0.6912,0.698,0.6848,0.6725,0.6822,0.6888,0.6902,0.7007,0.7051,0.7068,0.7082,0.7105,0.7139,0.7316,0.7841,0.8448,0.8965,1.0173,1.1643,1.2778,1.3931,1.3964,1.4068,1.4028,1.3975,1.3968,1.3814,1.3614,1.3141,1.2725,1.2012,1.0784,0.9755,0.8533,0.7855,0.7464,0.7019,0.6795,0.6475,0.6517,0.6681,0.7243,0.8171,0.8489,0.8347,0.8201,0.8492,0.9122,0.9217,0.9414,0.9805,0.941,0.9118,0.8726,0.8237,0.8038,0.8137,0.9414,0.9217,0.8333,0.941,0.9217,0.8336,0.863,0.9316,0.9903,0.9998,1.1356,1.368,1.3878,1.4657,1.5622,1.5825,1.5725,1.5665,1.5899,1.6616,1.7257,1.6629,1.6354,1.649,1.571,1.465,1.425,1.5137,1.5054,1.458,1.5054,1.5112,1.3966,1.3547,1.3253,1.2953,1.2665,1.2485,1.2472,1.1906,1.1626,1.1391,1.162,1.1465,1.1539,1.1391,1.0767,0.9713,0.915,0.8243,0.7013,0.6654,0.6716,0.677,0.6793,0.6871,0.698,0.7017,0.7058,0.7092,0.6983,0.6888,0.6973,0.697,0.7044,0.7115,0.7139,0.7139,0.7139,0.7139,0.7404,0.7841,0.8456,0.9144,0.9918,1.1381,1.251,1.33,1.3997,1.4088,1.4088,1.4055,1.4041,1.4062,1.4035,1.3874,1.3385,1.2779,1.1611,1.0696,1.0046,0.9448,0.8713,0.8259,0.8237,0.7936,0.733,0.7176,0.748,0.7698,0.8566,0.8618,0.8469,0.833,0.8282,0.8347,0.8233,0.9019,0.9608,0.892,0.8825,0.9217,0.8432,0.8038,0.8134,0.9312,0.9316,0.8137,0.941,0.9217,0.892,0.9312,1.0092,1.0779,1.0583,1.1741,1.3584,1.3878,1.4657,1.5534,1.5825,1.5825,1.5833,1.6451,1.6934,1.7168,1.6673,1.6458,1.6461,1.5767,1.4965,1.4671,1.522,1.5137,1.4412,1.4817,1.497,1.4232,1.3973,1.373,1.332,1.2986,1.2889,1.2682,1.1677,1.1596,1.2078,1.1803,1.1702,1.2195,1.226,1.1526,1.0006,0.9906,0.9218,0.7338,0.6812,0.6874,0.6936,0.6953,0.7007,0.7085,0.7129,0.7129,0.7136,0.7122,0.7132,0.7139,0.7139,0.7139,0.7139,0.7139,0.7139,0.7139,0.7228,0.7489,0.8364,0.9065,0.9923,1.0869,1.2163,1.2778,1.3058,1.3574,1.4088,1.4088,1.4082,1.4075,1.4082,1.4082,1.3968,1.3507,1.2724,1.1277,1.0428,1.0847,1.0286,0.9163,0.8995,0.9251,0.877,0.8012,0.8313,0.8841,0.9049,0.9644,0.8618,0.8472,0.833,0.878,0.9525,0.9608,0.9702,0.9899,0.9706,0.9019,0.8528,0.8137,0.8038,0.8141,0.941,0.9213,0.8333,0.9312,0.9805,0.9706,0.9805,1.1258,1.2328,1.2139,1.2425,1.3686,1.3878,1.4561,1.5534,1.5825,1.5825,1.59,1.6014,1.6422,1.707,1.7532,1.7889,1.7564,1.7127,1.6278,1.5431,1.5628,1.5379,1.4412,1.4489,1.4412,1.4405,1.483,1.4759,1.4028,1.3507,1.329,1.3086,1.2778,1.2713,1.2784,1.281,1.2746,1.2921,1.2882,1.2066,1.0173,0.9722,0.8996,0.7197,0.6967,0.7035,0.7061,0.7095,0.7099,0.7132,0.7139,0.7139,0.7139,0.7139,0.7139,0.7139,0.7139,0.7139,0.7139,0.7139,0.7139,0.7139,0.7228,0.7753,0.8715,0.9753,1.0697,1.1821,1.2942,1.313,1.3319,1.3574,1.4088,1.4088,1.4088,1.4088,1.4088,1.4088,1.4075,1.3612,1.3289,1.2146,1.197,1.2299,1.1325,0.99,1.016,1.0477,0.9544,0.8841,0.9145,0.9588,1.0018,1.0673,0.8621,0.8469,0.8333,0.8581,0.9038,0.9019,0.941,0.9805,0.9312,0.9019,0.8825,0.8333,0.8336,0.9019,1.0194,1.0194,0.9118,0.8924,0.9801,1.0583,1.0974,1.2328,1.4268,1.4178,1.4172,1.4758,1.4854,1.5242,1.5635,1.5825,1.5825,1.5825,1.5825,1.6483,1.6934,1.7349,1.7265,1.736,1.7257,1.6676,1.6027,1.6828,1.6683,1.5628,1.5144,1.465,1.425,1.5137,1.4977,1.4413,1.4262,1.4006,1.3467,1.3287,1.322,1.3206,1.3206,1.3206,1.3206,1.3055,1.2271,1.0259,0.9664,0.8543,0.7486,0.7031,0.7058,0.7119,0.7136,0.7139,0.7139,0.7139,0.7139,0.7139,0.7139,0.7139,0.7139,0.7139,0.7139,0.7139,0.7139,0.7139,0.7139,0.7316,0.8448,0.9579,1.0697,1.1638,1.2693,1.3646,1.3737,1.3913,1.3919,1.4088,1.4088,1.4088,1.4088,1.4088,1.4088,1.4088,1.3917,1.3708,1.3404,1.3124,1.2672,1.1942,1.095,1.127,1.1433,1.098,1.0501,1.0196,1.0335,1.1131,1.1803,0.8608,0.8442,0.8319,0.818,0.8052,0.8038,0.8825,0.9702,0.8528,0.8825,0.9509,0.8627,0.8627,0.9998,1.0872,1.0877,0.9903,0.8825,0.9213,1.0974,1.1165,1.2716,1.4561,1.5045,1.5146,1.573,1.5635,1.573,1.573,1.5825,1.5825,1.5825,1.5825,1.6271,1.6771,1.6522,1.6493,1.7109,1.673,1.632,1.6184,1.7343,1.7342,1.6683,1.5951,1.5061,1.4573,1.522,1.5545,1.4489,1.5379,1.5068,1.4199,1.3507,1.3347,1.3367,1.342,1.344,1.3454,1.334,1.2575,1.0658,0.9527,0.8585,0.7785,0.721,0.7126,0.7132,0.7139,0.7139,0.7139,0.7139,0.7139,0.7139,0.7228,0.7316,0.7139,0.7228,0.7401,0.7139,0.7139,0.7139,0.7312,0.7577,0.9052,1.0351,1.1466,1.2504,1.3555,1.4088,1.4088,1.4088,1.4088,1.4088,1.4088,1.4088,1.4088,1.4088,1.4088,1.4088,1.4088,1.4008,1.3715,1.3061,1.2481,1.208,1.1932,1.2087,1.2233,1.2201,1.17,1.0938,1.1372,1.2318,1.291,0.855,0.8303,0.8279,0.818,0.8052,0.8038,0.8726,0.9604,0.8528,0.8825,0.9702,0.863,0.8726,0.9805,1.0096,1.0194,0.9706,0.8825,0.8825,1.0293,1.0583,1.1843,1.3974,1.4459,1.4848,1.5629,1.5825,1.5825,1.5825,1.5825,1.5825,1.5825,1.5825,1.6109,1.6379,1.6778,1.6878,1.685,1.6714,1.6503,1.6382,1.6633,1.6764,1.6355,1.6026,1.5296,1.4901,1.5876,1.6519,1.5703,1.6527,1.6242,1.5187,1.431,1.3964,1.3861,1.3854,1.3828,1.3841,1.3895,1.3245,1.1906,1.0399,0.9293,0.8515,0.7665,0.7228,0.7139,0.7139,0.7139,0.7139,0.7139,0.7139,0.7316,0.7837,0.8189,0.7661,0.7841,0.8101,0.7489,0.7316,0.7139,0.7316,0.7837,0.8965,1.0178,1.1209,1.251,1.373,1.4088,1.4088,1.4088,1.4088,1.4088,1.4088,1.4088,1.4088,1.4088,1.4088,1.4088,1.4088,1.4088,1.382,1.3355,1.3156,1.3059,1.3061,1.2981,1.2936,1.2927,1.2198,1.1471,1.2378,1.3368,1.3845,0.8401,0.8265,0.8187,0.8109,0.8045,0.8038,0.8726,0.9706,0.8627,0.8726,0.9316,0.8726,0.8726,0.9706,1.0002,1.0002,0.9706,0.8627,0.8825,0.9805,1.0096,1.1361,1.359,1.3782,1.4651,1.5432,1.5825,1.5825,1.5825,1.5825,1.5825,1.5825,1.5825,1.5825,1.592,1.6278,1.6577,1.6451,1.6635,1.6757,1.6492,1.6893,1.7123,1.6617,1.6453,1.5951,1.547,1.6363,1.6764,1.6108,1.6683,1.6281,1.5304,1.4489,1.4088,1.4088,1.4088,1.4088,1.4088,1.4082,1.3457,1.2322,1.0838,0.9726,0.8882,0.7841,0.7139,0.7139,0.7139,0.7139,0.7139,0.7139,0.7401,0.8013,0.8627,0.8886,0.8882,0.8973,0.854,0.8013,0.7577,0.7316,0.7228,0.7925,0.8877,0.9918,1.095,1.2339,1.3822,1.4082,1.4088,1.4088,1.4088,1.4088,1.4088,1.4088,1.4088,1.4088,1.4088,1.4088,1.4088,1.4088,1.4088,1.3944,1.3915,1.3794,1.3621,1.3287,1.3488,1.3593,1.2974,1.2777,1.3586,1.4333,1.4816,0.8255,0.8214,0.8089,0.8038,0.8038,0.8038,0.8726,0.9608,0.8924,0.9019,0.9702,0.9019,0.9019,0.9805,1.0002,1.0002,0.9903,0.8627,0.8627,0.9213,0.9509,1.0872,1.2522,1.359,1.4076,1.5051,1.573,1.5825,1.5825,1.5825,1.5825,1.5825,1.5825,1.5825,1.5825,1.592,1.5825,1.6014,1.6253,1.6652,1.7218,1.787,1.8293,1.7557,1.7302,1.6648,1.5936,1.642,1.6672,1.6386,1.6437,1.6198,1.4734,1.425,1.4088,1.4088,1.4088,1.4088,1.4088,1.4088,1.3561,1.2328,1.1214,1.0096,0.8973,0.7929,0.7139,0.7139,0.7492,0.7577,0.7665,0.7749,0.836,0.8969,0.9492,0.9749,0.9923,0.9923,0.9492,0.8882,0.8013,0.7848,0.7952,0.7665,0.8528,1.0346,1.1381,1.2254,1.3561,1.3997,1.4088,1.4088,1.4088,1.4088,1.4088,1.4088,1.4088,1.4088,1.4088,1.4088,1.4088,1.4088,1.4173,1.4166,1.4068,1.3941,1.3801,1.3899,1.4236,1.423,1.3831,1.4055,1.4808,1.53,1.5787,0.8191,0.8065,0.8048,0.8038,0.8038,0.8038,0.8825,0.9903,0.9899,0.9801,1.0194,0.9805,0.9702,0.9801,0.9899,0.9899,0.9509,0.8726,0.8134,0.8528,0.8528,0.941,1.0681,1.1653,1.3204,1.4561,1.5439,1.573,1.5825,1.5825,1.5825,1.5825,1.5825,1.5825,1.5825,1.5825,1.5825,1.5778,1.5724,1.6411,1.7612,1.7353,1.7454,1.7626,1.7259,1.6627,1.6244,1.6538,1.6522,1.7147,1.6296,1.5869,1.5379,1.4573,1.4166,1.4088,1.4088,1.4088,1.4088,1.3906,1.3555,1.2334,1.1214,1.0096,0.8969,0.7921,0.7132,0.7139,0.7929,0.8648,0.8828,0.9506,1.0101,1.0631,1.1089,1.1068,1.1052,1.0963,1.0604,1.0192,0.9522,0.9143,0.9134,0.8476,0.8269,1.0168,1.1735,1.2637,1.3357,1.394,1.4182,1.4202,1.4108,1.4088,1.4088,1.4088,1.4108,1.4102,1.4334,1.4334,1.4496,1.4573,1.4328,1.4328,1.425,1.4328,1.4372,1.4543,1.5021,1.5227,1.5319,1.5573,1.5935,1.6377,1.6766,0.8099,0.8038,0.8038,0.8038,0.8137,0.8821,0.9899,1.0872,1.1068,1.1072,1.0877,1.0288,0.9608,0.9118,0.8825,0.8821,0.8726,0.8233,0.8038,0.8038,0.8134,0.9015,1.0872,1.175,1.2818,1.4465,1.5439,1.573,1.5825,1.5825,1.5825,1.5825,1.5825,1.5825,1.5825,1.5825,1.5825,1.5745,1.5644,1.6141,1.7033,1.7052,1.6858,1.7383,1.6873,1.6949,1.711,1.6632,1.7233,1.7879,1.7052,1.5875,1.5506,1.4727,1.4088,1.4088,1.4088,1.4088,1.3997,1.347,1.2936,1.2242,1.1214,1.0091,0.8965,0.799,0.7555,0.8101,0.854,0.9279,0.9981,1.0539,1.1237,1.1761,1.2371,1.2549,1.2377,1.2006,1.1794,1.1382,1.1066,1.0889,1.0711,1.043,1.0317,1.1438,1.2575,1.3209,1.3824,1.4348,1.4462,1.4369,1.4229,1.4088,1.4088,1.4088,1.4135,1.4298,1.4999,1.5075,1.5144,1.5137,1.4977,1.4734,1.4489,1.465,1.488,1.5284,1.5774,1.6365,1.6954,1.7123,1.7132,1.7168,1.7487,0.8528,0.8531,0.8528,0.8531,0.8627,0.9903,1.097,1.1848,1.2237,1.2237,1.156,1.0583,0.941,0.8627,0.8336,0.8137,0.8038,0.8038,0.8038,0.8038,0.8233,0.9019,1.0288,1.1361,1.2823,1.4956,1.5439,1.573,1.5825,1.5825,1.5825,1.5825,1.5825,1.5825,1.5825,1.5825,1.5825,1.5805,1.5638,1.6153,1.6985,1.7079,1.6907,1.7041,1.7189,1.7674,1.8216,1.785,1.828,1.8834,1.7488,1.6259,1.5752,1.4895,1.4253,1.4128,1.4088,1.4088,1.3906,1.347,1.2589,1.1815,1.13,1.0265,0.957,0.8404,0.8222,0.9318,1.0003,1.0617,1.1258,1.1865,1.2644,1.3087,1.3441,1.3847,1.3944,1.3267,1.2992,1.3028,1.2814,1.271,1.2524,1.2513,1.2658,1.3135,1.3588,1.3845,1.436,1.4912,1.4751,1.4616,1.4636,1.4394,1.4262,1.4242,1.4242,1.4654,1.5358,1.5755,1.5883,1.5944,1.5869,1.5462,1.5151,1.5779,1.6569,1.6561,1.6627,1.7473,1.8153,1.8257,1.833,1.8194,1.8175,0.9903,0.9903,0.9899,0.9899,0.9998,1.1268,1.1848,1.2237,1.3295,1.3102,1.2042,1.0583,0.9903,0.9509,0.8531,0.8038,0.8038,0.8038,0.8038,0.8038,0.8038,0.8432,0.9702,1.1068,1.2242,1.3108,1.4758,1.573,1.5825,1.5825,1.5825,1.5825,1.5825,1.5825,1.5825,1.5825,1.5825,1.5825,1.5745,1.6397,1.7223,1.7542,1.7527,1.7903,1.8545,1.9175,1.8847,1.8742,1.9191,2.012,1.8013,1.6827,1.6397,1.5168,1.4489,1.4289,1.4235,1.415,1.388,1.3566,1.2802,1.1488,1.0626,1.0661,1.0639,1.0574,1.0544,1.0702,1.1377,1.2186,1.301,1.3735,1.4167,1.4366,1.434,1.4441,1.4389,1.3906,1.3795,1.4372,1.4366,1.4116,1.4166,1.3976,1.3853,1.4244,1.4132,1.4485,1.511,1.5459,1.5164,1.5034,1.5041,1.4878,1.4549,1.4549,1.4778,1.5352,1.6063,1.6352,1.6499,1.6666,1.7342,1.691,1.677,1.7513,1.7946,1.7649,1.7827,1.8709,1.9298,1.9256,1.9118,1.8859,1.8817,1.0485,1.1263,1.2032,1.194,1.1263,1.2619,1.3102,1.3397,1.4459,1.4364,1.3006,1.1068,1.0002,0.9608,0.8627,0.8038,0.8038,0.8038,0.8038,0.8038,0.8038,0.892,1.019,1.1361,1.2721,1.398,1.5343,1.5825,1.5825,1.5825,1.5825,1.5825,1.5825,1.5825,1.5825,1.5825,1.5825,1.5825,1.592,1.648,1.7412,1.7777,1.8048,1.8864,1.9039,1.9892,2.0099,1.9642,2.0316,2.0434,1.857,1.7731,1.7156,1.5746,1.4886,1.4596,1.4569,1.43,1.3636,1.348,1.2907,1.2386,1.1404,1.1056,1.1932,1.2756,1.2678,1.2802,1.2707,1.335,1.4411,1.4878,1.5133,1.5211,1.517,1.511,1.4916,1.4403,1.4441,1.4937,1.5101,1.5171,1.5297,1.5411,1.5338,1.5206,1.5114,1.5166,1.5895,1.614,1.5756,1.5575,1.5686,1.526,1.4925,1.5068,1.5328,1.6073,1.679,1.7314,1.7795,1.8832,1.9311,1.8745,1.816,1.844,1.8575,1.8549,1.8843,1.9608,2.0001,2.0216,1.9898,1.9495,1.9554,1.1648,1.2624,1.3884,1.3686,1.2716,1.3878,1.4465,1.4657,1.5343,1.5343,1.4262,1.2129,1.0872,1.0288,0.9217,0.8333,0.8134,0.8038,0.8038,0.8038,0.8233,0.941,1.0774,1.1945,1.292,1.4854,1.573,1.5825,1.5825,1.5825,1.5825,1.5825,1.5825,1.5825,1.5825,1.5825,1.5825,1.5825,1.6292,1.6662,1.7684,1.8603,1.868,1.977,2.0223,2.0755,2.1167,2.0962,2.1432,2.1249,2.0043,1.8467,1.7663,1.6743,1.5307,1.5003,1.488,1.4417,1.3435,1.2631,1.2647,1.262,1.1912,1.2007,1.2971,1.4229,1.4244,1.3826,1.3804,1.4251,1.5418,1.5444,1.5511,1.5511,1.5498,1.5444,1.5411,1.5147,1.5192,1.5431,1.5577,1.5651,1.5927,1.6101,1.6399,1.6095,1.5591,1.6185,1.743,1.7295,1.6497,1.6364,1.6392,1.5847,1.5305,1.5433,1.5711,1.6845,1.7652,1.8796,1.9493,2.0485,2.0819,2.0217,1.9732,1.9434,1.9387,1.9515,1.9872,2.0323,2.0489,2.0557,2.044,2.0053,2.014,1.3776,1.3974,1.5146,1.4949,1.3974,1.5146,1.573,1.5534,1.573,1.573,1.5432,1.407,1.2716,1.1653,1.0194,0.9019,0.8134,0.8038,0.8038,0.8038,0.8038,0.892,1.019,1.156,1.2915,1.3974,1.514,1.5825,1.5825,1.5825,1.5825,1.5825,1.5825,1.5825,1.5825,1.5825,1.5825,1.6015,1.7037,1.7498,1.8503,1.9869,2.0223,2.0584,2.1587,2.2129,2.1854,2.2129,2.2532,2.2387,2.0462,1.9224,1.8734,1.6639,1.5467,1.5097,1.5057,1.4463,1.3223,1.2107,1.2253,1.2825,1.2226,1.2323,1.3168,1.4254,1.5197,1.4734,1.4989,1.518,1.5504,1.5618,1.5718,1.5752,1.5718,1.5698,1.5658,1.5638,1.5665,1.5678,1.5752,1.5818,1.6285,1.6655,1.7296,1.7088,1.6365,1.6915,1.8264,1.8195,1.7202,1.6996,1.7026,1.6338,1.5735,1.5732,1.6181,1.7342,1.8419,1.9381,2.0452,2.1268,2.1438,2.1327,2.1,2.058,2.055,2.0605,2.0848,2.1081,2.0644,2.0557,2.0547,2.0537,2.0508,1.4364,1.5146,1.5635,1.554,1.5242,1.5635,1.5825,1.5825,1.5825,1.5825,1.5534,1.4465,1.3199,1.1843,1.0583,0.9312,0.8233,0.8038,0.8038,0.8038,0.8137,0.9509,1.0779,1.1945,1.3108,1.4752,1.573,1.5825,1.5825,1.5825,1.5825,1.5825,1.5825,1.5825,1.5825,1.592,1.6109,1.6943,1.7677,1.8403,1.9943,2.0854,2.1489,2.1676,2.2687,2.2775,2.2403,2.295,2.3047,2.2687,2.0674,1.9505,1.8846,1.6928,1.5705,1.5524,1.5524,1.5345,1.4578,1.3914,1.3237,1.3068,1.2472,1.256,1.4422,1.5171,1.5471,1.5524,1.5565,1.5645,1.5738,1.5752,1.5805,1.5805,1.5792,1.5792,1.5772,1.5778,1.5792,1.5785,1.5825,1.6008,1.6379,1.685,1.7505,1.787,1.7217,1.7131,1.8211,1.835,1.781,1.7695,1.7517,1.6771,1.6243,1.6177,1.6655,1.7702,1.8776,1.9718,2.0828,2.1911,2.2092,2.2055,2.186,2.1656,2.1477,2.1392,2.1639,2.1681,2.1312,2.0944,2.0769,2.0702,2.0557,1.5045,1.573,1.5825,1.5825,1.5825,1.5825,1.5825,1.5825,1.5825,1.5825,1.5629,1.4854,1.359,1.2139,1.097,0.9509,0.8137,0.8038,0.8528,0.8528,0.8726,1.0382,1.1843,1.2721,1.3884,1.5337,1.5825,1.5825,1.5825,1.5825,1.5825,1.5825,1.5825,1.5825,1.592,1.6292,1.6857,1.777,1.8495,1.9761,2.0935,2.1756,2.2315,2.2775,2.3144,2.3047,2.3047,2.3047,2.2862,2.2041,2.0854,1.9314,1.8403,1.721,1.592,1.5832,1.5337,1.5222,1.4626,1.3657,1.3137,1.3712,1.2278,1.2685,1.4709,1.5324,1.571,1.5805,1.5832,1.5825,1.5818,1.5825,1.6015,1.6015,1.592,1.592,1.6386,1.6386,1.6197,1.6197,1.6452,1.6546,1.6835,1.703,1.7684,1.787,1.8056,1.8149,1.8048,1.7699,1.7822,1.79,1.7677,1.708,1.6619,1.656,1.7217,1.8141,1.9139,2.0124,2.1444,2.2524,2.2611,2.2715,2.2425,2.2256,2.2079,2.2069,2.2408,2.245,2.2174,2.1741,2.1165,2.0934,2.0712,1.5825,1.5825,1.5825,1.5825,1.5825,1.5825,1.5825,1.5825,1.5825,1.5825,1.573,1.573,1.437,1.2436,1.195,1.0681,0.892,0.8528,0.9114,0.9801,0.9993,1.1843,1.2909,1.3686,1.4459,1.5337,1.5825,1.5825,1.5825,1.5825,1.5825,1.5825,1.5825,1.5825,1.6103,1.703,1.7684,1.8503,1.967,2.0845,2.1747,2.2403,2.2775,2.3144,2.3144,2.3144,2.3144,2.3047,2.2403,2.1489,2.0215,1.8956,1.777,1.648,1.6015,1.5534,1.4651,1.4459,1.407,1.3011,1.3108,1.3782,1.2984,1.3097,1.3986,1.5395,1.5681,1.5845,1.5825,1.5825,1.5825,1.6109,1.6292,1.6292,1.6204,1.6574,1.7124,1.7124,1.6936,1.7016,1.7539,1.7902,1.848,1.868,1.8411,1.8141,1.8411,1.878,1.8303,1.6685,1.6994,1.7863,1.7554,1.7252,1.7073,1.7252,1.7855,1.8864,1.9497,2.0486,2.1924,2.2911,2.3162,2.3189,2.2969,2.2962,2.3258,2.3297,2.3175,2.3176,2.3123,2.2832,2.2327,2.1308,2.1011,1.5825,1.5825,1.5825,1.5825,1.5825,1.5825,1.5825,1.5825,1.5825,1.5825,1.5825,1.5825,1.4752,1.3392,1.3301,1.2134,1.1263,1.0774,1.0974,1.1268,1.1361,1.2522,1.3397,1.407,1.4752,1.5439,1.5825,1.5825,1.5825,1.5825,1.5825,1.5825,1.5825,1.5825,1.6567,1.7948,1.8588,1.9405,2.0666,2.1578,2.2306,2.2862,2.3144,2.3144,2.3144,2.3144,2.3144,2.3144,2.2403,2.1302,2.0124,1.8956,1.7777,1.6574,1.5825,1.5832,1.5343,1.4949,1.4172,1.437,1.4465,1.4268,1.4172,1.4854,1.535,1.5465,1.5777,1.5845,1.5825,1.5825,1.5825,1.6015,1.6662,1.7124,1.6943,1.6943,1.749,1.784,1.7654,1.8118,1.864,1.909,1.967,1.9852,1.9497,1.8956,1.868,1.9047,1.884,1.723,1.685,1.7817,1.8288,1.8172,1.8072,1.8232,1.8784,1.9405,2.0124,2.0755,2.1667,2.2648,2.3367,2.3943,2.432,2.4647,2.4922,2.477,2.4425,2.4357,2.4344,2.3936,2.3427,2.2478,2.168,1.5825,1.5825,1.5825,1.5825,1.5825,1.5825,1.5825,1.5825,1.5825,1.5825,1.5825,1.5825,1.514,1.3974,1.3776,1.3102,1.1848,1.1653,1.195,1.2619,1.2721,1.359,1.4268,1.4657,1.5146,1.5635,1.5825,1.5825,1.5825,1.5825,1.5825,1.5825,1.5825,1.6197,1.703,1.8403,1.9588,2.0404,2.14,2.2315,2.2775,2.3144,2.3144,2.3144,2.3144,2.3144,2.3144,2.3144,2.2403,2.1302,2.0124,1.8956,1.777,1.6574,1.5825,1.5832,1.573,1.5343,1.4949,1.5337,1.5146,1.5051,1.5337,1.5534,1.573,1.5737,1.5838,1.5825,1.5825,1.5825,1.5825,1.6008,1.7117,1.8226,1.777,1.7217,1.7755,1.8372,1.874,1.9214,1.967,2.0025,2.0395,2.0666,2.0215,1.8948,1.8503,1.8864,1.8856,1.8272,1.798,1.8648,1.9206,1.9472,1.9356,1.9372,1.994,2.0395,2.0666,2.1293,2.1845,2.2726,2.3877,2.5052,2.6047,2.6046,2.5836,2.5893,2.5723,2.5566,2.5466,2.5444,2.4749,2.3649,2.3001,1.5825,1.5825,1.5825,1.5825,1.5825,1.5825,1.5825,1.5825,1.5825,1.5825,1.5825,1.5825,1.5242,1.4459,1.4262,1.3782,1.3108,1.292,1.3301,1.407,1.407,1.4657,1.5242,1.5825,1.5629,1.573,1.5825,1.5825,1.5825,1.5825,1.5825,1.5825,1.6109,1.6574,1.7498,1.9131,2.0305,2.1025,2.2031,2.296,2.296,2.3144,2.3144,2.3144,2.3144,2.3144,2.3144,2.2862,2.2492,2.1302,2.0305,1.9222,1.777,1.6574,1.6015,1.5825,1.5825,1.5432,1.5337,1.5534,1.5534,1.5534,1.573,1.5825,1.5825,1.5825,1.5825,1.5242,1.514,1.5146,1.5146,1.533,1.6163,1.7289,1.7498,1.7498,1.7948,1.8748,1.9662,2.0314,2.1123,2.14,2.14,2.1676,2.1123,1.9314,1.8856,1.9314,1.9214,1.9015,1.8975,1.9348,1.9918,2.0369,2.039,2.0427,2.1141,2.148,2.1569,2.1845,2.2501,2.3444,2.4553,2.613,2.7626,2.6789,2.6493,2.6886,2.6971,2.632,2.64,2.6769,2.6127,2.5016,2.4281,1.5825,1.5825,1.5825,1.5825,1.5825,1.5825,1.5825,1.5825,1.5825,1.5825,1.5825,1.5825,1.5635,1.5242,1.514,1.4854,1.4758,1.437,1.4949,1.514,1.5242,1.5242,1.573,1.5825,1.5825,1.5825,1.5825,1.5825,1.5825,1.5825,1.5825,1.592,1.648,1.7412,1.7956,1.9679,2.0935,2.1569,2.2403,2.3047,2.3144,2.3144,2.3144,2.3144,2.3144,2.3144,2.3144,2.3047,2.2394,2.1382,2.1114,1.9761,1.787,1.648,1.592,1.5825,1.5825,1.5432,1.514,1.5337,1.5439,1.5146,1.5242,1.5629,1.5825,1.5825,1.5534,1.4848,1.4459,1.4459,1.4561,1.4841,1.5311,1.6358,1.7311,1.777,1.8226,1.9322,2.0494,2.1498,2.2403,2.2501,2.2501,2.2138,2.1587,2.1123,2.0755,2.0755,2.0486,2.0189,1.9692,1.9971,2.0604,2.0971,2.1105,2.1478,2.2003,2.2394,2.2403,2.2775,2.3057,2.4145,2.5305,2.7706,2.904,2.7947,2.7695,2.8652,2.8553,2.7447,2.7144,2.7512,2.7483,2.6514,2.5743,1.5825,1.5825,1.5825,1.5825,1.5825,1.5825,1.5825,1.5825,1.5825,1.6103,1.648,1.6109,1.5825,1.5825,1.5825,1.5825,1.5825,1.573,1.5629,1.573,1.5825,1.573,1.5825,1.5825,1.5825,1.5825,1.5825,1.5825,1.5825,1.5825,1.5825,1.6015,1.7037,1.8056,1.8596,2.0305,2.1658,2.212,2.2775,2.3047,2.3144,2.3144,2.3144,2.3144,2.3144,2.3144,2.3144,2.3135,2.2765,2.1756,2.1123,1.9579,1.7863,1.648,1.592,1.5825,1.573,1.5534,1.5146,1.5146,1.5439,1.5146,1.5146,1.5825,1.5825,1.5825,1.573,1.5146,1.4262,1.4166,1.4657,1.5038,1.5792,1.6741,1.749,1.8041,1.8772,1.9761,2.1042,2.2315,2.2862,2.2862,2.2862,2.2775,2.2129,2.1123,2.1114,2.0755,2.0755,2.1033,2.0615,2.0642,2.1398,2.1906,2.2161,2.2444,2.2755,2.3047,2.3144,2.3057,2.3222,2.4638,2.6213,2.7959,2.8949,2.8688,2.8767,2.9365,2.9081,2.7822,2.7915,2.8236,2.8059,2.7965,2.7373,1.592,1.6015,1.6109,1.6109,1.6015,1.6015,1.592,1.5825,1.5825,1.648,1.7404,1.6574,1.6109,1.6015,1.5825,1.5825,1.5825,1.5825,1.5825,1.5825,1.5825,1.5825,1.5825,1.5825,1.5825,1.5825,1.5825,1.5825,1.5825,1.5825,1.592,1.6103,1.7217,1.8503,1.9588,2.0854,2.2041,2.2677,2.3047,2.3047,2.3144,2.3144,2.3144,2.3144,2.3144,2.3144,2.3144,2.3135,2.3047,2.2217,2.0953,1.9231,1.7863,1.6574,1.6015,1.5825,1.5825,1.5629,1.5337,1.5439,1.5534,1.5534,1.573,1.5825,1.5825,1.5825,1.573,1.5045,1.4166,1.3878,1.4364,1.4752,1.5596,1.6929,1.7576,1.8403,1.9306,2.0215,2.1578,2.296,2.3135,2.3135,2.3144,2.3144,2.258,2.148,2.0755,2.0305,2.0124,2.0773,2.098,2.1407,2.2199,2.2687,2.294,2.3028,2.3144,2.3144,2.3144,2.3144,2.3387,2.4553,2.5797,2.729,2.8028,2.8426,2.8676,2.9028,2.856,2.8354,2.8609,2.8954,2.8895,2.8825,2.8737,1.6386,1.7311,1.7318,1.7318,1.7318,1.7318,1.6763,1.592,1.592,1.648,1.7498,1.7591,1.7318,1.7318,1.6204,1.592,1.6109,1.592,1.5825,1.5825,1.5825,1.5825,1.5825,1.5825,1.5825,1.5825,1.5825,1.5825,1.5825,1.5825,1.5825,1.592,1.8211,1.9222,1.967,2.1123,2.2775,2.3144,2.3144,2.3144,2.3144,2.3144,2.3144,2.3144,2.3144,2.3144,2.3144,2.3144,2.3135,2.2403,2.0863,1.9139,1.777,1.6574,1.6015,1.5825,1.5825,1.5439,1.5337,1.5534,1.5534,1.4949,1.5242,1.5825,1.5825,1.5825,1.5337,1.4364,1.3488,1.2909,1.3108,1.3108,1.3771,1.5886,1.7124,1.8403,1.9488,2.0486,2.1676,2.2668,2.3212,2.3222,2.3144,2.3135,2.3212,2.2208,2.148,2.1033,2.1578,2.1498,2.1329,2.2069,2.2911,2.2989,2.3047,2.3038,2.3144,2.3144,2.3135,2.3299,2.3551,2.4221,2.5462,2.6883,2.7867,2.8518,2.8688,2.9106,2.9263,2.916,2.9431,2.9614,2.9603,2.9503,2.9289]}]]